Wetterdaten: aktuell Montag, 17.06.2019 18:52
Datum Zeit Temp. I. Temp 2m Temp 5cm Temp -10cm Feuchte I. Luftf 2m Luftdruck Regen Wind Richtung Richtung Sonnenschein ET UV Solar Taupunkt Windchill Windben Empfang
17.06.2019 18:52 24,7 C 25,3 C 10,6 C 22,2 C 63 % 51 % 1016,8 hPa 0,0 l/m 3,2 km/h (1 Bft) SO 135 1 min 0,000 mm 0,0 UV-I 248 W/m 14,4 C 25,3 C 8,0 km/h (2 Bft) 95,65 %
17.06.2019 18:51 24,7 C 25,3 C 10,6 C 22,2 C 63 % 51 % 1016,8 hPa 0,0 l/m 4,8 km/h (1 Bft) O-NO 67 1 min 0,000 mm 0,0 UV-I 221 W/m 14,4 C 25,3 C 16,1 km/h (3 Bft) 82,61 %
17.06.2019 18:50 24,7 C 25,4 C 10,6 C 22,2 C 63 % 51 % 1016,8 hPa 0,0 l/m 9,7 km/h (2 Bft) O-SO 112 1 min 0,000 mm 0,0 UV-I 227 W/m 14,5 C 24,7 C 12,9 km/h (3 Bft) 91,30 %
17.06.2019 18:49 24,7 C 25,4 C 10,6 C 22,2 C 63 % 51 % 1016,8 hPa 0,0 l/m 9,7 km/h (2 Bft) SO 135 1 min 0,000 mm 0,0 UV-I 276 W/m 14,5 C 24,7 C 16,1 km/h (3 Bft) 91,30 %
17.06.2019 18:48 24,7 C 25,4 C 10,6 C 22,2 C 63 % 51 % 1016,8 hPa 0,0 l/m 9,7 km/h (2 Bft) O 90 1 min 0,000 mm 0,0 UV-I 279 W/m 14,5 C 24,7 C 16,1 km/h (3 Bft) 95,65 %
17.06.2019 18:47 24,7 C 25,4 C 10,6 C 22,2 C 63 % 52 % 1016,8 hPa 0,0 l/m 12,9 km/h (3 Bft) O-SO 112 1 min 0,000 mm 0,0 UV-I 260 W/m 14,8 C 24,1 C 20,9 km/h (4 Bft) 91,30 %
17.06.2019 18:46 24,7 C 25,3 C 10,6 C 22,2 C 63 % 51 % 1016,8 hPa 0,0 l/m 8,0 km/h (2 Bft) O-SO 112 1 min 0,000 mm 0,0 UV-I 267 W/m 14,4 C 24,9 C 12,9 km/h (3 Bft) 100,00 %
17.06.2019 18:45 24,7 C 25,4 C 10,6 C 22,2 C 63 % 51 % 1016,8 hPa 0,0 l/m 6,4 km/h (2 Bft) O 90 1 min 0,000 mm 0,0 UV-I 258 W/m 14,5 C 25,4 C 14,5 km/h (3 Bft) 86,96 %
17.06.2019 18:44 24,7 C 25,3 C 10,6 C 22,2 C 63 % 51 % 1016,8 hPa 0,0 l/m 6,4 km/h (2 Bft) O-NO 67 1 min 0,000 mm 0,0 UV-I 246 W/m 14,4 C 25,3 C 12,9 km/h (3 Bft) 86,96 %
17.06.2019 18:43 24,7 C 25,3 C 10,6 C 22,2 C 63 % 51 % 1016,8 hPa 0,0 l/m 6,4 km/h (2 Bft) O 90 1 min 0,000 mm 0,0 UV-I 239 W/m 14,4 C 25,3 C 12,9 km/h (3 Bft) 100,00 %
17.06.2019 18:42 24,7 C 25,3 C 10,6 C 22,2 C 63 % 51 % 1016,8 hPa 0,0 l/m 6,4 km/h (2 Bft) O-SO 112 1 min 0,000 mm 0,0 UV-I 243 W/m 14,4 C 25,3 C 11,3 km/h (2 Bft) 91,30 %
17.06.2019 18:41 24,7 C 25,3 C 10,6 C 22,2 C 63 % 51 % 1016,8 hPa 0,0 l/m 8,0 km/h (2 Bft) O-NO 67 1 min 0,000 mm 0,0 UV-I 241 W/m 14,4 C 24,9 C 12,9 km/h (3 Bft) 95,65 %
17.06.2019 18:40 24,7 C 25,3 C 10,6 C 22,2 C 63 % 51 % 1016,8 hPa 0,0 l/m 4,8 km/h (1 Bft) O 90 1 min 0,000 mm 0,0 UV-I 243 W/m 14,4 C 25,3 C 11,3 km/h (2 Bft) 95,65 %
17.06.2019 18:39 24,7 C 25,3 C 10,6 C 22,2 C 63 % 50 % 1016,8 hPa 0,0 l/m 6,4 km/h (2 Bft) O-SO 112 1 min 0,000 mm 0,0 UV-I 243 W/m 14,1 C 25,3 C 11,3 km/h (2 Bft) 95,65 %
17.06.2019 18:38 24,7 C 25,3 C 10,6 C 22,2 C 63 % 50 % 1016,8 hPa 0,0 l/m 9,7 km/h (2 Bft) O 90 1 min 0,000 mm 0,0 UV-I 234 W/m 14,1 C 24,6 C 14,5 km/h (3 Bft) 91,30 %
17.06.2019 18:37 24,7 C 25,3 C 10,6 C 22,2 C 63 % 50 % 1016,8 hPa 0,0 l/m 9,7 km/h (2 Bft) O-SO 112 1 min 0,000 mm 0,0 UV-I 223 W/m 14,1 C 24,6 C 16,1 km/h (3 Bft) 91,30 %
17.06.2019 18:36 24,7 C 25,3 C 10,6 C 22,2 C 63 % 50 % 1016,8 hPa 0,0 l/m 8,0 km/h (2 Bft) O-SO 112 1 min 0,000 mm 0,0 UV-I 227 W/m 14,1 C 24,9 C 14,5 km/h (3 Bft) 95,65 %
17.06.2019 18:35 24,7 C 25,3 C 10,6 C 22,2 C 63 % 50 % 1016,8 hPa 0,0 l/m 4,8 km/h (1 Bft) O-SO 112 1 min 0,000 mm 0,0 UV-I 227 W/m 14,1 C 25,3 C 9,7 km/h (2 Bft) 91,30 %
17.06.2019 18:34 24,7 C 25,3 C 10,6 C 22,2 C 63 % 50 % 1016,8 hPa 0,0 l/m 9,7 km/h (2 Bft) O-SO 112 1 min 0,000 mm 0,0 UV-I 229 W/m 14,1 C 24,6 C 16,1 km/h (3 Bft) 91,30 %
17.06.2019 18:33 24,7 C 25,3 C 11,1 C 22,2 C 63 % 50 % 1016,8 hPa 0,0 l/m 11,3 km/h (2 Bft) O-NO 67 1 min 0,000 mm 0,0 UV-I 223 W/m 14,1 C 24,3 C 16,1 km/h (3 Bft) 100,00 %
17.06.2019 18:32 24,7 C 25,3 C 11,1 C 22,2 C 63 % 50 % 1016,8 hPa 0,0 l/m 9,7 km/h (2 Bft) O 90 1 min 0,000 mm 0,0 UV-I 211 W/m 14,1 C 24,6 C 14,5 km/h (3 Bft) 91,30 %
17.06.2019 18:31 24,7 C 25,3 C 10,6 C 22,2 C 63 % 50 % 1016,8 hPa 0,0 l/m 8,0 km/h (2 Bft) O 90 1 min 0,000 mm 0,0 UV-I 221 W/m 14,1 C 24,9 C 12,9 km/h (3 Bft) 95,65 %
17.06.2019 18:30 24,7 C 25,3 C 11,1 C 22,2 C 63 % 50 % 1016,8 hPa 0,0 l/m 8,0 km/h (2 Bft) O-SO 112 1 min 0,000 mm 0,0 UV-I 225 W/m 14,1 C 24,9 C 14,5 km/h (3 Bft) 95,65 %
17.06.2019 18:29 24,7 C 25,3 C 11,1 C 22,2 C 63 % 49 % 1016,9 hPa 0,0 l/m 8,0 km/h (2 Bft) O-SO 112 1 min 0,000 mm 0,0 UV-I 227 W/m 13,8 C 24,9 C 14,5 km/h (3 Bft) 95,65 %
17.06.2019 18:28 24,7 C 25,3 C 11,1 C 22,2 C 63 % 50 % 1016,9 hPa 0,0 l/m 9,7 km/h (2 Bft) O-SO 112 1 min 0,000 mm 0,0 UV-I 229 W/m 14,1 C 24,6 C 14,5 km/h (3 Bft) 91,30 %
17.06.2019 18:27 24,7 C 25,3 C 11,1 C 22,2 C 63 % 50 % 1016,9 hPa 0,0 l/m 9,7 km/h (2 Bft) O 90 1 min 0,000 mm 0,0 UV-I 227 W/m 14,1 C 24,6 C 16,1 km/h (3 Bft) 95,65 %
17.06.2019 18:26 24,7 C 25,3 C 11,1 C 22,2 C 63 % 50 % 1016,9 hPa 0,0 l/m 9,7 km/h (2 Bft) O-SO 112 1 min 0,000 mm 0,0 UV-I 227 W/m 14,1 C 24,6 C 12,9 km/h (3 Bft) 91,30 %
17.06.2019 18:25 24,7 C 25,3 C 11,1 C 22,2 C 63 % 50 % 1016,9 hPa 0,0 l/m 11,3 km/h (2 Bft) O 90 1 min 0,000 mm 0,0 UV-I 230 W/m 14,1 C 24,3 C 19,3 km/h (3 Bft) 91,30 %
17.06.2019 18:24 24,7 C 25,3 C 11,1 C 22,2 C 63 % 49 % 1016,9 hPa 0,0 l/m 9,7 km/h (2 Bft) O-SO 112 1 min 0,000 mm 0,0 UV-I 236 W/m 13,8 C 24,6 C 20,9 km/h (4 Bft) 100,00 %
17.06.2019 18:23 24,7 C 25,3 C 11,1 C 22,2 C 63 % 50 % 1016,9 hPa 0,0 l/m 14,5 km/h (3 Bft) O 90 1 min 0,000 mm 0,0 UV-I 243 W/m 14,1 C 23,7 C 20,9 km/h (4 Bft) 86,96 %
17.06.2019 18:22 24,7 C 25,3 C 10,6 C 22,2 C 63 % 49 % 1016,9 hPa 0,0 l/m 9,7 km/h (2 Bft) O 90 1 min 0,000 mm 0,0 UV-I 244 W/m 13,8 C 24,6 C 17,7 km/h (3 Bft) 95,65 %
17.06.2019 18:21 24,7 C 25,3 C 10,6 C 22,2 C 63 % 50 % 1016,9 hPa 0,0 l/m 12,9 km/h (3 Bft) O-SO 112 1 min 0,000 mm 0,0 UV-I 243 W/m 14,1 C 24,0 C 24,1 km/h (4 Bft) 95,65 %
17.06.2019 18:20 24,7 C 25,4 C 10,6 C 22,2 C 63 % 49 % 1016,9 hPa 0,0 l/m 8,0 km/h (2 Bft) O 90 1 min 0,000 mm 0,0 UV-I 243 W/m 13,9 C 25,0 C 17,7 km/h (3 Bft) 95,65 %
17.06.2019 18:19 24,7 C 25,4 C 10,6 C 22,2 C 63 % 49 % 1016,9 hPa 0,0 l/m 11,3 km/h (2 Bft) O 90 1 min 0,000 mm 0,0 UV-I 241 W/m 13,9 C 24,4 C 16,1 km/h (3 Bft) 86,96 %
17.06.2019 18:18 24,7 C 25,4 C 10,6 C 22,2 C 63 % 49 % 1016,9 hPa 0,0 l/m 11,3 km/h (2 Bft) O 90 1 min 0,000 mm 0,0 UV-I 241 W/m 13,9 C 24,4 C 17,7 km/h (3 Bft) 100,00 %
17.06.2019 18:17 24,7 C 25,4 C 10,6 C 22,2 C 63 % 49 % 1016,9 hPa 0,0 l/m 16,1 km/h (3 Bft) O 90 1 min 0,000 mm 0,0 UV-I 239 W/m 13,9 C 23,6 C 24,1 km/h (4 Bft) 91,30 %
17.06.2019 18:16 24,7 C 25,4 C 10,6 C 22,2 C 63 % 49 % 1016,9 hPa 0,0 l/m 12,9 km/h (3 Bft) O-NO 67 1 min 0,000 mm 0,0 UV-I 241 W/m 13,9 C 24,1 C 17,7 km/h (3 Bft) 95,65 %
17.06.2019 18:15 24,7 C 25,4 C 10,6 C 22,2 C 63 % 49 % 1016,9 hPa 0,0 l/m 11,3 km/h (2 Bft) O-NO 67 1 min 0,000 mm 0,0 UV-I 239 W/m 13,9 C 24,4 C 17,7 km/h (3 Bft) 95,65 %
17.06.2019 18:14 24,7 C 25,4 C 10,6 C 22,2 C 63 % 49 % 1017,0 hPa 0,0 l/m 9,7 km/h (2 Bft) O 90 1 min 0,000 mm 0,0 UV-I 239 W/m 13,9 C 24,7 C 20,9 km/h (4 Bft) 95,65 %
17.06.2019 18:13 24,7 C 25,5 C 10,6 C 22,2 C 63 % 48 % 1017,0 hPa 0,0 l/m 4,8 km/h (1 Bft) O 90 1 min 0,000 mm 0,0 UV-I 243 W/m 13,7 C 25,5 C 9,7 km/h (2 Bft) 91,30 %
17.06.2019 18:12 24,7 C 25,5 C 10,6 C 22,2 C 63 % 49 % 1017,0 hPa 0,0 l/m 11,3 km/h (2 Bft) O-SO 112 1 min 0,000 mm 0,0 UV-I 246 W/m 14,0 C 24,5 C 16,1 km/h (3 Bft) 91,30 %
17.06.2019 18:11 24,7 C 25,5 C 10,6 C 22,2 C 63 % 49 % 1017,0 hPa 0,0 l/m 8,0 km/h (2 Bft) O-SO 112 1 min 0,000 mm 0,0 UV-I 248 W/m 14,0 C 25,1 C 14,5 km/h (3 Bft) 91,30 %
17.06.2019 18:10 24,7 C 25,5 C 10,6 C 22,2 C 63 % 49 % 1017,0 hPa 0,0 l/m 11,3 km/h (2 Bft) O-SO 112 1 min 0,000 mm 0,0 UV-I 248 W/m 14,0 C 24,5 C 16,1 km/h (3 Bft) 91,30 %
17.06.2019 18:09 24,7 C 25,6 C 10,6 C 22,2 C 63 % 49 % 1017,0 hPa 0,0 l/m 11,3 km/h (2 Bft) O-SO 112 1 min 0,000 mm 0,0 UV-I 246 W/m 14,1 C 24,6 C 16,1 km/h (3 Bft) 100,00 %
17.06.2019 18:08 24,7 C 25,6 C 11,1 C 22,2 C 63 % 48 % 1017,0 hPa 0,0 l/m 6,4 km/h (2 Bft) S-SO 157 1 min 0,000 mm 0,0 UV-I 248 W/m 13,8 C 25,6 C 11,3 km/h (2 Bft) 91,30 %
17.06.2019 18:07 24,7 C 25,6 C 11,1 C 22,2 C 63 % 48 % 1017,0 hPa 0,0 l/m 9,7 km/h (2 Bft) SO 135 1 min 0,000 mm 0,0 UV-I 246 W/m 13,8 C 24,9 C 14,5 km/h (3 Bft) 95,65 %
17.06.2019 18:06 24,7 C 25,6 C 11,1 C 22,2 C 63 % 48 % 1017,0 hPa 0,0 l/m 14,5 km/h (3 Bft) O-SO 112 1 min 0,000 mm 0,0 UV-I 253 W/m 13,8 C 24,1 C 22,5 km/h (4 Bft) 95,65 %
17.06.2019 18:05 24,7 C 25,6 C 11,1 C 22,2 C 63 % 48 % 1017,0 hPa 0,0 l/m 17,7 km/h (3 Bft) O-SO 112 1 min 0,000 mm 0,0 UV-I 264 W/m 13,8 C 23,7 C 24,1 km/h (4 Bft) 95,65 %
17.06.2019 18:04 24,7 C 25,6 C 11,1 C 22,2 C 63 % 48 % 1017,0 hPa 0,0 l/m 9,7 km/h (2 Bft) SO 135 1 min 0,000 mm 0,0 UV-I 281 W/m 13,8 C 24,9 C 14,5 km/h (3 Bft) 91,30 %
17.06.2019 18:03 24,7 C 25,6 C 11,1 C 22,2 C 63 % 48 % 1017,0 hPa 0,0 l/m 6,4 km/h (2 Bft) O-SO 112 1 min 0,000 mm 0,0 UV-I 285 W/m 13,8 C 25,6 C 12,9 km/h (3 Bft) 100,00 %
17.06.2019 18:02 24,7 C 25,6 C 11,1 C 22,2 C 63 % 48 % 1017,0 hPa 0,0 l/m 8,0 km/h (2 Bft) O-SO 112 1 min 0,000 mm 0,0 UV-I 287 W/m 13,8 C 25,2 C 12,9 km/h (3 Bft) 91,30 %
17.06.2019 18:01 24,7 C 25,7 C 11,1 C 22,2 C 63 % 48 % 1017,0 hPa 0,0 l/m 12,9 km/h (3 Bft) O-SO 112 1 min 0,000 mm 0,0 UV-I 285 W/m 13,9 C 24,5 C 22,5 km/h (4 Bft) 91,30 %
17.06.2019 18:00 24,7 C 25,7 C 11,1 C 22,2 C 63 % 48 % 1017,0 hPa 0,0 l/m 11,3 km/h (2 Bft) O 90 1 min 0,330 mm 0,0 UV-I 283 W/m 13,9 C 24,7 C 19,3 km/h (3 Bft) 95,65 %
17.06.2019 17:59 24,7 C 25,7 C 11,7 C 22,2 C 64 % 48 % 1016,8 hPa 0,0 l/m 9,7 km/h (2 Bft) O-SO 112 1 min 0,000 mm 0,0 UV-I 283 W/m 13,9 C 25,0 C 19,3 km/h (3 Bft) 95,65 %
17.06.2019 17:58 24,7 C 25,8 C 11,7 C 22,2 C 63 % 48 % 1016,8 hPa 0,0 l/m 9,7 km/h (2 Bft) O-SO 112 1 min 0,000 mm 0,0 UV-I 276 W/m 13,9 C 25,1 C 16,1 km/h (3 Bft) 91,30 %
17.06.2019 17:57 24,7 C 25,8 C 11,7 C 22,2 C 63 % 47 % 1016,8 hPa 0,0 l/m 16,1 km/h (3 Bft) O 90 1 min 0,000 mm 0,0 UV-I 276 W/m 13,6 C 24,1 C 25,7 km/h (4 Bft) 95,65 %
17.06.2019 17:56 24,7 C 25,9 C 11,7 C 22,2 C 63 % 49 % 1016,8 hPa 0,0 l/m 12,9 km/h (3 Bft) O-NO 67 1 min 0,000 mm 0,0 UV-I 274 W/m 14,4 C 24,7 C 19,3 km/h (3 Bft) 95,65 %
17.06.2019 17:55 24,7 C 25,9 C 11,7 C 22,2 C 63 % 48 % 1016,8 hPa 0,0 l/m 8,0 km/h (2 Bft) O 90 1 min 0,000 mm 0,0 UV-I 269 W/m 14,0 C 25,5 C 12,9 km/h (3 Bft) 91,30 %
17.06.2019 17:54 24,7 C 26,0 C 11,7 C 22,2 C 63 % 48 % 1016,8 hPa 0,0 l/m 9,7 km/h (2 Bft) SO 135 1 min 0,000 mm 0,0 UV-I 267 W/m 14,1 C 25,3 C 14,5 km/h (3 Bft) 95,65 %
17.06.2019 17:53 24,7 C 26,1 C 11,7 C 22,2 C 63 % 48 % 1016,8 hPa 0,0 l/m 11,3 km/h (2 Bft) O-SO 112 1 min 0,000 mm 0,0 UV-I 265 W/m 14,2 C 25,2 C 19,3 km/h (3 Bft) 95,65 %
17.06.2019 17:52 24,7 C 26,1 C 11,7 C 22,2 C 63 % 48 % 1016,8 hPa 0,0 l/m 4,8 km/h (1 Bft) O 90 1 min 0,000 mm 0,0 UV-I 262 W/m 14,2 C 26,1 C 9,7 km/h (2 Bft) 95,65 %
17.06.2019 17:51 24,7 C 26,1 C 12,2 C 22,2 C 63 % 48 % 1016,8 hPa 0,0 l/m 4,8 km/h (1 Bft) O 90 1 min 0,000 mm 0,0 UV-I 260 W/m 14,2 C 26,1 C 9,7 km/h (2 Bft) 95,65 %
17.06.2019 17:50 24,7 C 26,2 C 12,2 C 22,2 C 63 % 47 % 1016,8 hPa 0,0 l/m 11,3 km/h (2 Bft) O-NO 67 1 min 0,000 mm 0,0 UV-I 264 W/m 14,0 C 25,3 C 16,1 km/h (3 Bft) 91,30 %
17.06.2019 17:49 24,7 C 26,3 C 12,2 C 22,2 C 63 % 47 % 1016,8 hPa 0,0 l/m 14,5 km/h (3 Bft) O-SO 112 1 min 0,000 mm 0,0 UV-I 267 W/m 14,1 C 24,9 C 22,5 km/h (4 Bft) 91,30 %
17.06.2019 17:48 24,7 C 26,3 C 12,2 C 22,2 C 63 % 47 % 1016,8 hPa 0,0 l/m 12,9 km/h (3 Bft) O-SO 112 1 min 0,000 mm 0,0 UV-I 281 W/m 14,1 C 25,2 C 25,7 km/h (4 Bft) 95,65 %
17.06.2019 17:47 24,7 C 26,4 C 12,2 C 22,2 C 63 % 47 % 1016,8 hPa 0,0 l/m 12,9 km/h (3 Bft) O-SO 112 1 min 0,000 mm 0,0 UV-I 320 W/m 14,2 C 25,3 C 19,3 km/h (3 Bft) 95,65 %
17.06.2019 17:46 24,7 C 26,4 C 12,8 C 22,2 C 63 % 47 % 1016,8 hPa 0,0 l/m 8,0 km/h (2 Bft) O-NO 67 1 min 0,000 mm 0,0 UV-I 318 W/m 14,2 C 26,1 C 16,1 km/h (3 Bft) 91,30 %
17.06.2019 17:45 24,7 C 26,4 C 12,8 C 22,2 C 63 % 47 % 1016,8 hPa 0,0 l/m 9,7 km/h (2 Bft) O 90 1 min 0,000 mm 0,0 UV-I 352 W/m 14,2 C 25,8 C 14,5 km/h (3 Bft) 91,30 %
17.06.2019 17:44 24,7 C 26,4 C 12,8 C 22,2 C 63 % 47 % 1016,9 hPa 0,0 l/m 11,3 km/h (2 Bft) O-NO 67 1 min 0,000 mm 0,0 UV-I 353 W/m 14,2 C 25,5 C 16,1 km/h (3 Bft) 100,00 %
17.06.2019 17:43 24,7 C 26,4 C 12,8 C 22,2 C 63 % 47 % 1016,9 hPa 0,0 l/m 9,7 km/h (2 Bft) O-SO 112 1 min 0,000 mm 0,0 UV-I 352 W/m 14,2 C 25,8 C 16,1 km/h (3 Bft) 91,30 %
17.06.2019 17:42 24,7 C 26,4 C 12,8 C 22,2 C 63 % 48 % 1016,9 hPa 0,0 l/m 9,7 km/h (2 Bft) O-NO 67 1 min 0,000 mm 0,0 UV-I 367 W/m 14,5 C 25,8 C 12,9 km/h (3 Bft) 91,30 %
17.06.2019 17:41 24,7 C 26,4 C 13,3 C 22,2 C 63 % 47 % 1016,9 hPa 0,0 l/m 8,0 km/h (2 Bft) O-SO 112 1 min 0,000 mm 0,0 UV-I 406 W/m 14,2 C 26,1 C 17,7 km/h (3 Bft) 100,00 %
17.06.2019 17:40 24,7 C 26,4 C 13,3 C 22,2 C 63 % 48 % 1016,9 hPa 0,0 l/m 6,4 km/h (2 Bft) O-NO 67 1 min 0,000 mm 0,0 UV-I 429 W/m 14,5 C 26,4 C 11,3 km/h (2 Bft) 95,65 %
17.06.2019 17:39 24,7 C 26,4 C 13,3 C 22,2 C 63 % 48 % 1016,9 hPa 0,0 l/m 9,7 km/h (2 Bft) O-NO 67 1 min 0,000 mm 0,0 UV-I 443 W/m 14,5 C 25,8 C 16,1 km/h (3 Bft) 95,65 %
17.06.2019 17:38 24,7 C 26,4 C 13,3 C 22,2 C 63 % 47 % 1016,9 hPa 0,0 l/m 9,7 km/h (2 Bft) O 90 1 min 0,000 mm 0,0 UV-I 445 W/m 14,2 C 25,8 C 17,7 km/h (3 Bft) 95,65 %
17.06.2019 17:37 24,7 C 26,4 C 13,3 C 22,2 C 63 % 48 % 1016,9 hPa 0,0 l/m 6,4 km/h (2 Bft) O-NO 67 1 min 0,000 mm 0,0 UV-I 450 W/m 14,5 C 26,4 C 9,7 km/h (2 Bft) 95,65 %
17.06.2019 17:36 24,7 C 26,4 C 13,3 C 22,2 C 63 % 47 % 1016,9 hPa 0,0 l/m 9,7 km/h (2 Bft) O-SO 112 1 min 0,000 mm 0,0 UV-I 443 W/m 14,2 C 25,8 C 16,1 km/h (3 Bft) 86,96 %
17.06.2019 17:35 24,7 C 26,4 C 13,3 C 22,2 C 63 % 48 % 1016,9 hPa 0,0 l/m 8,0 km/h (2 Bft) O 90 1 min 0,000 mm 0,0 UV-I 443 W/m 14,5 C 26,1 C 14,5 km/h (3 Bft) 100,00 %
17.06.2019 17:34 24,6 C 26,4 C 12,8 C 22,2 C 63 % 47 % 1016,9 hPa 0,0 l/m 9,7 km/h (2 Bft) O-NO 67 1 min 0,000 mm 0,0 UV-I 429 W/m 14,2 C 25,8 C 12,9 km/h (3 Bft) 91,30 %
17.06.2019 17:33 24,7 C 26,4 C 12,8 C 22,2 C 63 % 48 % 1016,9 hPa 0,0 l/m 8,0 km/h (2 Bft) O 90 1 min 0,000 mm 0,0 UV-I 436 W/m 14,5 C 26,1 C 11,3 km/h (2 Bft) 91,30 %
17.06.2019 17:32 24,6 C 26,3 C 12,8 C 22,2 C 63 % 48 % 1016,9 hPa 0,0 l/m 3,2 km/h (1 Bft) O-NO 67 1 min 0,000 mm 0,0 UV-I 438 W/m 14,4 C 26,3 C 11,3 km/h (2 Bft) 95,65 %
17.06.2019 17:31 24,6 C 26,3 C 12,8 C 22,2 C 63 % 49 % 1016,9 hPa 0,0 l/m 3,2 km/h (1 Bft) NO 45 1 min 0,000 mm 0,0 UV-I 431 W/m 14,7 C 26,3 C 9,7 km/h (2 Bft) 91,30 %
17.06.2019 17:30 24,6 C 26,3 C 12,8 C 22,2 C 63 % 48 % 1016,9 hPa 0,0 l/m 11,3 km/h (2 Bft) O-NO 67 1 min 0,000 mm 0,0 UV-I 431 W/m 14,4 C 25,4 C 20,9 km/h (4 Bft) 95,65 %
17.06.2019 17:29 24,6 C 26,4 C 12,8 C 22,2 C 63 % 47 % 1017,2 hPa 0,0 l/m 9,7 km/h (2 Bft) O 90 1 min 0,000 mm 0,0 UV-I 399 W/m 14,2 C 25,8 C 17,7 km/h (3 Bft) 95,65 %
17.06.2019 17:28 24,6 C 26,4 C 12,8 C 22,2 C 63 % 47 % 1017,2 hPa 0,0 l/m 9,7 km/h (2 Bft) O-NO 67 1 min 0,000 mm 0,0 UV-I 415 W/m 14,2 C 25,8 C 14,5 km/h (3 Bft) 95,65 %
17.06.2019 17:27 24,6 C 26,4 C 13,3 C 22,2 C 63 % 47 % 1017,2 hPa 0,0 l/m 12,9 km/h (3 Bft) O-NO 67 1 min 0,000 mm 0,0 UV-I 408 W/m 14,2 C 25,3 C 22,5 km/h (4 Bft) 91,30 %
17.06.2019 17:26 24,6 C 26,4 C 13,3 C 22,2 C 63 % 47 % 1017,2 hPa 0,0 l/m 4,8 km/h (1 Bft) O-SO 112 1 min 0,000 mm 0,0 UV-I 406 W/m 14,2 C 26,4 C 14,5 km/h (3 Bft) 95,65 %
17.06.2019 17:25 24,6 C 26,4 C 13,3 C 22,2 C 63 % 47 % 1017,2 hPa 0,0 l/m 9,7 km/h (2 Bft) O 90 1 min 0,000 mm 0,0 UV-I 411 W/m 14,2 C 25,8 C 16,1 km/h (3 Bft) 86,96 %
17.06.2019 17:24 24,6 C 26,4 C 13,3 C 22,2 C 63 % 48 % 1017,2 hPa 0,0 l/m 9,7 km/h (2 Bft) O-NO 67 1 min 0,000 mm 1,5 UV-I 429 W/m 14,5 C 25,8 C 14,5 km/h (3 Bft) 95,65 %
17.06.2019 17:23 24,6 C 26,3 C 13,3 C 22,2 C 63 % 49 % 1017,2 hPa 0,0 l/m 8,0 km/h (2 Bft) O-NO 67 1 min 0,000 mm 2,8 UV-I 434 W/m 14,7 C 26,0 C 12,9 km/h (3 Bft) 95,65 %
17.06.2019 17:22 24,6 C 26,3 C 13,3 C 22,2 C 63 % 48 % 1017,2 hPa 0,0 l/m 8,0 km/h (2 Bft) O-NO 67 1 min 0,000 mm 3,8 UV-I 436 W/m 14,4 C 26,0 C 11,3 km/h (2 Bft) 91,30 %
17.06.2019 17:21 24,6 C 26,3 C 13,3 C 22,2 C 63 % 47 % 1017,2 hPa 0,0 l/m 8,0 km/h (2 Bft) O 90 1 min 0,000 mm 4,2 UV-I 432 W/m 14,1 C 26,0 C 9,7 km/h (2 Bft) 95,65 %
17.06.2019 17:20 24,6 C 26,3 C 13,3 C 22,2 C 63 % 48 % 1017,2 hPa 0,0 l/m 3,2 km/h (1 Bft) O-SO 112 1 min 0,000 mm 5,1 UV-I 441 W/m 14,4 C 26,3 C 11,3 km/h (2 Bft) 95,65 %
17.06.2019 17:19 24,6 C 26,3 C 13,3 C 22,2 C 63 % 48 % 1017,2 hPa 0,0 l/m 11,3 km/h (2 Bft) O-SO 112 1 min 0,000 mm 6,1 UV-I 429 W/m 14,4 C 25,4 C 16,1 km/h (3 Bft) 95,65 %
17.06.2019 17:18 24,6 C 26,3 C 13,3 C 22,2 C 63 % 47 % 1017,2 hPa 0,0 l/m 6,4 km/h (2 Bft) SO 135 1 min 0,000 mm 6,4 UV-I 443 W/m 14,1 C 26,3 C 11,3 km/h (2 Bft) 91,30 %
17.06.2019 17:17 24,6 C 26,3 C 13,3 C 22,2 C 63 % 48 % 1017,2 hPa 0,0 l/m 11,3 km/h (2 Bft) O-NO 67 1 min 0,000 mm 6,8 UV-I 439 W/m 14,4 C 25,4 C 19,3 km/h (3 Bft) 95,65 %
17.06.2019 17:16 24,6 C 26,2 C 13,3 C 22,2 C 63 % 48 % 1017,2 hPa 0,0 l/m 9,7 km/h (2 Bft) O-NO 67 1 min 0,000 mm 6,8 UV-I 445 W/m 14,3 C 25,5 C 16,1 km/h (3 Bft) 91,30 %
17.06.2019 17:15 24,6 C 26,2 C 13,3 C 22,2 C 63 % 47 % 1017,2 hPa 0,0 l/m 8,0 km/h (2 Bft) O-NO 67 1 min 0,000 mm 6,7 UV-I 411 W/m 14,0 C 25,9 C 16,1 km/h (3 Bft) 95,65 %
17.06.2019 17:14 24,6 C 26,2 C 12,8 C 22,2 C 63 % 47 % 1017,3 hPa 0,0 l/m 6,4 km/h (2 Bft) O-NO 67 1 min 0,000 mm 6,7 UV-I 427 W/m 14,0 C 26,2 C 11,3 km/h (2 Bft) 95,65 %
17.06.2019 17:13 24,6 C 26,2 C 12,8 C 22,2 C 63 % 47 % 1017,3 hPa 0,0 l/m 12,9 km/h (3 Bft) SO 135 1 min 0,000 mm 7,2 UV-I 448 W/m 14,0 C 25,0 C 22,5 km/h (4 Bft) 95,65 %
17.06.2019 17:12 24,6 C 26,2 C 12,8 C 22,2 C 63 % 47 % 1017,3 hPa 0,0 l/m 11,3 km/h (2 Bft) O-SO 112 1 min 0,000 mm 7,2 UV-I 448 W/m 14,0 C 25,3 C 17,7 km/h (3 Bft) 91,30 %
17.06.2019 17:11 24,6 C 26,2 C 12,8 C 22,2 C 63 % 47 % 1017,3 hPa 0,0 l/m 11,3 km/h (2 Bft) O 90 1 min 0,000 mm 7,2 UV-I 439 W/m 14,0 C 25,3 C 19,3 km/h (3 Bft) 95,65 %
17.06.2019 17:10 24,6 C 26,2 C 12,8 C 22,2 C 63 % 46 % 1017,3 hPa 0,0 l/m 11,3 km/h (2 Bft) O-SO 112 1 min 0,000 mm 7,3 UV-I 445 W/m 13,6 C 25,3 C 16,1 km/h (3 Bft) 95,65 %
17.06.2019 17:09 24,6 C 26,2 C 13,3 C 22,2 C 63 % 46 % 1017,3 hPa 0,0 l/m 14,5 km/h (3 Bft) O-SO 112 1 min 0,000 mm 7,3 UV-I 443 W/m 13,6 C 24,8 C 24,1 km/h (4 Bft) 86,96 %
17.06.2019 17:08 24,6 C 26,2 C 13,3 C 22,2 C 63 % 46 % 1017,3 hPa 0,0 l/m 16,1 km/h (3 Bft) O-SO 112 1 min 0,000 mm 7,4 UV-I 436 W/m 13,6 C 24,6 C 24,1 km/h (4 Bft) 100,00 %
17.06.2019 17:07 24,6 C 26,2 C 13,3 C 22,2 C 63 % 46 % 1017,3 hPa 0,0 l/m 8,0 km/h (2 Bft) O 90 1 min 0,000 mm 7,4 UV-I 445 W/m 13,6 C 25,9 C 14,5 km/h (3 Bft) 91,30 %
17.06.2019 17:06 24,6 C 26,2 C 13,3 C 22,2 C 63 % 46 % 1017,3 hPa 0,0 l/m 11,3 km/h (2 Bft) O 90 1 min 0,000 mm 7,4 UV-I 434 W/m 13,6 C 25,3 C 17,7 km/h (3 Bft) 95,65 %
17.06.2019 17:05 24,6 C 26,2 C 13,3 C 22,2 C 63 % 46 % 1017,3 hPa 0,0 l/m 8,0 km/h (2 Bft) O-SO 112 1 min 0,000 mm 7,5 UV-I 434 W/m 13,6 C 25,9 C 12,9 km/h (3 Bft) 95,65 %
17.06.2019 17:04 24,6 C 26,2 C 13,3 C 22,2 C 63 % 46 % 1017,3 hPa 0,0 l/m 6,4 km/h (2 Bft) SO 135 1 min 0,000 mm 7,5 UV-I 438 W/m 13,6 C 26,2 C 11,3 km/h (2 Bft) 95,65 %
17.06.2019 17:03 24,6 C 26,2 C 13,3 C 22,2 C 63 % 46 % 1017,3 hPa 0,0 l/m 8,0 km/h (2 Bft) SO 135 1 min 0,000 mm 7,5 UV-I 427 W/m 13,6 C 25,9 C 12,9 km/h (3 Bft) 91,30 %
17.06.2019 17:02 24,6 C 26,2 C 13,3 C 22,2 C 63 % 46 % 1017,3 hPa 0,0 l/m 12,9 km/h (3 Bft) O 90 1 min 0,000 mm 7,5 UV-I 415 W/m 13,6 C 25,0 C 17,7 km/h (3 Bft) 100,00 %
17.06.2019 17:01 24,6 C 26,2 C 13,3 C 22,2 C 63 % 45 % 1017,3 hPa 0,0 l/m 12,9 km/h (3 Bft) O 90 1 min 0,000 mm 7,6 UV-I 420 W/m 13,3 C 25,0 C 20,9 km/h (4 Bft) 91,30 %
17.06.2019 17:00 24,6 C 26,2 C 13,3 C 22,2 C 63 % 46 % 1017,3 hPa 0,0 l/m 12,9 km/h (3 Bft) O 90 1 min 0,381 mm 7,6 UV-I 441 W/m 13,6 C 25,0 C 24,1 km/h (4 Bft) 95,65 %
17.06.2019 16:59 24,6 C 26,2 C 13,3 C 22,2 C 63 % 46 % 1017,3 hPa 0,0 l/m 6,4 km/h (2 Bft) O-SO 112 1 min 0,000 mm 7,6 UV-I 424 W/m 13,6 C 26,2 C 12,9 km/h (3 Bft) 95,65 %
17.06.2019 16:58 24,6 C 26,2 C 13,3 C 22,2 C 63 % 47 % 1017,3 hPa 0,0 l/m 11,3 km/h (2 Bft) O-SO 112 1 min 0,000 mm 7,6 UV-I 454 W/m 14,0 C 25,3 C 17,7 km/h (3 Bft) 95,65 %
17.06.2019 16:57 24,6 C 26,2 C 13,3 C 22,2 C 63 % 47 % 1017,3 hPa 0,0 l/m 11,3 km/h (2 Bft) O-SO 112 1 min 0,000 mm 7,5 UV-I 462 W/m 14,0 C 25,3 C 20,9 km/h (4 Bft) 95,65 %
17.06.2019 16:56 24,6 C 26,2 C 13,3 C 22,2 C 63 % 47 % 1017,3 hPa 0,0 l/m 11,3 km/h (2 Bft) O 90 1 min 0,000 mm 7,4 UV-I 471 W/m 14,0 C 25,3 C 16,1 km/h (3 Bft) 95,65 %
17.06.2019 16:55 24,6 C 26,2 C 13,3 C 22,2 C 63 % 46 % 1017,3 hPa 0,0 l/m 6,4 km/h (2 Bft) O-NO 67 1 min 0,000 mm 7,5 UV-I 461 W/m 13,6 C 26,2 C 9,7 km/h (2 Bft) 100,00 %
17.06.2019 16:54 24,6 C 26,3 C 13,3 C 22,2 C 63 % 47 % 1017,3 hPa 0,0 l/m 9,7 km/h (2 Bft) O-NO 67 1 min 0,000 mm 7,5 UV-I 452 W/m 14,1 C 25,7 C 12,9 km/h (3 Bft) 95,65 %
17.06.2019 16:53 24,6 C 26,2 C 13,3 C 22,2 C 63 % 47 % 1017,3 hPa 0,0 l/m 8,0 km/h (2 Bft) O-SO 112 1 min 0,000 mm 7,6 UV-I 429 W/m 14,0 C 25,9 C 14,5 km/h (3 Bft) 95,65 %
17.06.2019 16:52 24,6 C 26,2 C 13,3 C 22,2 C 63 % 48 % 1017,3 hPa 0,0 l/m 9,7 km/h (2 Bft) O-NO 67 1 min 0,000 mm 7,5 UV-I 434 W/m 14,3 C 25,5 C 19,3 km/h (3 Bft) 95,65 %
17.06.2019 16:51 24,6 C 26,2 C 13,9 C 22,2 C 63 % 48 % 1017,3 hPa 0,0 l/m 8,0 km/h (2 Bft) O-NO 67 1 min 0,000 mm 7,5 UV-I 438 W/m 14,3 C 25,9 C 14,5 km/h (3 Bft) 95,65 %
17.06.2019 16:50 24,6 C 26,2 C 13,3 C 22,2 C 63 % 47 % 1017,3 hPa 0,0 l/m 6,4 km/h (2 Bft) O-NO 67 1 min 0,000 mm 7,6 UV-I 432 W/m 14,0 C 26,2 C 9,7 km/h (2 Bft) 95,65 %
17.06.2019 16:49 24,6 C 26,2 C 13,3 C 22,2 C 63 % 46 % 1017,3 hPa 0,0 l/m 11,3 km/h (2 Bft) O-SO 112 1 min 0,000 mm 7,6 UV-I 434 W/m 13,6 C 25,3 C 16,1 km/h (3 Bft) 100,00 %
17.06.2019 16:48 24,6 C 26,3 C 13,9 C 22,2 C 63 % 46 % 1017,3 hPa 0,0 l/m 12,9 km/h (3 Bft) O 90 1 min 0,000 mm 7,5 UV-I 439 W/m 13,7 C 25,2 C 22,5 km/h (4 Bft) 86,96 %
17.06.2019 16:47 24,6 C 26,3 C 13,9 C 22,2 C 63 % 46 % 1017,3 hPa 0,0 l/m 9,7 km/h (2 Bft) O-NO 67 1 min 0,000 mm 7,5 UV-I 425 W/m 13,7 C 25,7 C 17,7 km/h (3 Bft) 95,65 %
17.06.2019 16:46 24,6 C 26,3 C 13,9 C 22,2 C 63 % 47 % 1017,3 hPa 0,0 l/m 12,9 km/h (3 Bft) O 90 1 min 0,000 mm 7,5 UV-I 415 W/m 14,1 C 25,2 C 20,9 km/h (4 Bft) 100,00 %
17.06.2019 16:45 24,6 C 26,2 C 13,9 C 22,2 C 63 % 48 % 1017,3 hPa 0,0 l/m 8,0 km/h (2 Bft) O-NO 67 1 min 0,000 mm 7,4 UV-I 422 W/m 14,3 C 25,9 C 17,7 km/h (3 Bft) 91,30 %
17.06.2019 16:44 24,6 C 26,2 C 13,9 C 22,2 C 63 % 48 % 1017,7 hPa 0,0 l/m 6,4 km/h (2 Bft) NO 45 1 min 0,000 mm 7,3 UV-I 431 W/m 14,3 C 26,2 C 16,1 km/h (3 Bft) 95,65 %
17.06.2019 16:43 24,6 C 26,2 C 13,9 C 22,2 C 63 % 48 % 1017,7 hPa 0,0 l/m 9,7 km/h (2 Bft) NO 45 1 min 0,000 mm 7,2 UV-I 429 W/m 14,3 C 25,5 C 16,1 km/h (3 Bft) 100,00 %
17.06.2019 16:42 24,6 C 26,1 C 13,9 C 22,2 C 63 % 50 % 1017,7 hPa 0,0 l/m 6,4 km/h (2 Bft) O-NO 67 1 min 0,000 mm 7,0 UV-I 446 W/m 14,8 C 26,1 C 12,9 km/h (3 Bft) 95,65 %
17.06.2019 16:41 24,6 C 26,1 C 13,9 C 22,2 C 63 % 48 % 1017,7 hPa 0,0 l/m 4,8 km/h (1 Bft) O-NO 67 1 min 0,000 mm 6,9 UV-I 455 W/m 14,2 C 26,1 C 9,7 km/h (2 Bft) 95,65 %
17.06.2019 16:40 24,6 C 26,2 C 13,9 C 22,2 C 63 % 48 % 1017,7 hPa 0,0 l/m 4,8 km/h (1 Bft) O 90 1 min 0,000 mm 6,7 UV-I 469 W/m 14,3 C 26,2 C 8,0 km/h (2 Bft) 95,65 %
17.06.2019 16:39 24,6 C 26,3 C 13,9 C 22,2 C 63 % 48 % 1017,7 hPa 0,0 l/m 6,4 km/h (2 Bft) O-NO 67 1 min 0,000 mm 6,7 UV-I 487 W/m 14,4 C 26,3 C 14,5 km/h (3 Bft) 95,65 %
17.06.2019 16:38 24,6 C 26,3 C 13,9 C 22,2 C 64 % 48 % 1017,7 hPa 0,0 l/m 8,0 km/h (2 Bft) O 90 1 min 0,000 mm 6,7 UV-I 473 W/m 14,4 C 26,0 C 11,3 km/h (2 Bft) 95,65 %
17.06.2019 16:37 24,6 C 26,3 C 13,9 C 22,2 C 63 % 49 % 1017,7 hPa 0,0 l/m 9,7 km/h (2 Bft) O-NO 67 1 min 0,000 mm 6,7 UV-I 461 W/m 14,7 C 25,7 C 16,1 km/h (3 Bft) 100,00 %
17.06.2019 16:36 24,6 C 26,3 C 14,4 C 22,2 C 63 % 48 % 1017,7 hPa 0,0 l/m 9,7 km/h (2 Bft) NO 45 1 min 0,000 mm 6,7 UV-I 466 W/m 14,4 C 25,7 C 19,3 km/h (3 Bft) 91,30 %
17.06.2019 16:35 24,6 C 26,3 C 14,4 C 22,2 C 63 % 48 % 1017,7 hPa 0,0 l/m 9,7 km/h (2 Bft) O 90 1 min 0,000 mm 6,6 UV-I 473 W/m 14,4 C 25,7 C 14,5 km/h (3 Bft) 95,65 %
17.06.2019 16:34 24,6 C 26,3 C 14,4 C 22,2 C 63 % 49 % 1017,7 hPa 0,0 l/m 8,0 km/h (2 Bft) O-NO 67 1 min 0,000 mm 6,6 UV-I 471 W/m 14,7 C 26,0 C 22,5 km/h (4 Bft) 100,00 %
17.06.2019 16:33 24,6 C 26,3 C 14,4 C 21,7 C 63 % 48 % 1017,7 hPa 0,0 l/m 8,0 km/h (2 Bft) O 90 1 min 0,000 mm 6,6 UV-I 471 W/m 14,4 C 26,0 C 12,9 km/h (3 Bft) 91,30 %
17.06.2019 16:32 24,6 C 26,3 C 14,4 C 21,7 C 63 % 48 % 1017,7 hPa 0,0 l/m 9,7 km/h (2 Bft) O-SO 112 1 min 0,000 mm 6,7 UV-I 473 W/m 14,4 C 25,7 C 14,5 km/h (3 Bft) 95,65 %
17.06.2019 16:31 24,6 C 26,3 C 15,0 C 21,7 C 63 % 47 % 1017,7 hPa 0,0 l/m 6,4 km/h (2 Bft) O 90 1 min 0,000 mm 6,4 UV-I 503 W/m 14,1 C 26,3 C 11,3 km/h (2 Bft) 100,00 %
17.06.2019 16:30 24,6 C 26,3 C 15,0 C 21,7 C 63 % 47 % 1017,7 hPa 0,0 l/m 9,7 km/h (2 Bft) O-NO 67 1 min 0,000 mm 6,3 UV-I 524 W/m 14,1 C 25,7 C 19,3 km/h (3 Bft) 95,65 %
17.06.2019 16:29 24,6 C 26,3 C 15,0 C 21,7 C 63 % 47 % 1017,8 hPa 0,0 l/m 8,0 km/h (2 Bft) SO 135 1 min 0,000 mm 6,1 UV-I 547 W/m 14,1 C 26,0 C 16,1 km/h (3 Bft) 91,30 %
17.06.2019 16:28 24,6 C 26,3 C 15,0 C 21,7 C 63 % 47 % 1017,8 hPa 0,0 l/m 12,9 km/h (3 Bft) O-NO 67 1 min 0,000 mm 6,1 UV-I 534 W/m 14,1 C 25,2 C 20,9 km/h (4 Bft) 100,00 %
17.06.2019 16:27 24,6 C 26,4 C 15,0 C 21,7 C 63 % 48 % 1017,8 hPa 0,0 l/m 16,1 km/h (3 Bft) O-SO 112 1 min 0,000 mm 6,1 UV-I 526 W/m 14,5 C 24,9 C 25,7 km/h (4 Bft) 95,65 %
17.06.2019 16:26 24,6 C 26,4 C 15,0 C 21,7 C 63 % 46 % 1017,8 hPa 0,0 l/m 11,3 km/h (2 Bft) O 90 1 min 0,000 mm 6,1 UV-I 519 W/m 13,8 C 25,5 C 16,1 km/h (3 Bft) 95,65 %
17.06.2019 16:25 24,6 C 26,5 C 15,0 C 21,7 C 63 % 47 % 1017,8 hPa 0,0 l/m 6,4 km/h (2 Bft) O-NO 67 1 min 0,000 mm 6,0 UV-I 538 W/m 14,3 C 26,5 C 12,9 km/h (3 Bft) 91,30 %
17.06.2019 16:24 24,6 C 26,6 C 15,0 C 21,7 C 63 % 47 % 1017,8 hPa 0,0 l/m 16,1 km/h (3 Bft) O 90 1 min 0,000 mm 5,9 UV-I 517 W/m 14,3 C 25,1 C 22,5 km/h (4 Bft) 95,65 %
17.06.2019 16:23 24,6 C 26,6 C 15,0 C 21,7 C 63 % 47 % 1017,8 hPa 0,0 l/m 11,3 km/h (2 Bft) O-NO 67 1 min 0,000 mm 5,7 UV-I 559 W/m 14,3 C 25,7 C 16,1 km/h (3 Bft) 95,65 %
17.06.2019 16:22 24,6 C 26,5 C 15,0 C 21,7 C 63 % 47 % 1017,8 hPa 0,0 l/m 9,7 km/h (2 Bft) O-NO 67 1 min 0,000 mm 5,7 UV-I 548 W/m 14,3 C 25,9 C 17,7 km/h (3 Bft) 100,00 %
17.06.2019 16:21 24,6 C 26,4 C 15,0 C 21,7 C 63 % 47 % 1017,8 hPa 0,0 l/m 8,0 km/h (2 Bft) O-NO 67 1 min 0,000 mm 5,6 UV-I 554 W/m 14,2 C 26,1 C 11,3 km/h (2 Bft) 95,65 %
17.06.2019 16:20 24,6 C 26,3 C 15,0 C 21,7 C 63 % 49 % 1017,8 hPa 0,0 l/m 1,6 km/h (1 Bft) O 90 1 min 0,000 mm 5,5 UV-I 578 W/m 14,7 C 26,3 C 6,4 km/h (2 Bft) 91,30 %
17.06.2019 16:19 24,6 C 26,3 C 15,0 C 21,7 C 63 % 47 % 1017,8 hPa 0,0 l/m 9,7 km/h (2 Bft) O-SO 112 1 min 0,000 mm 5,5 UV-I 584 W/m 14,1 C 25,7 C 14,5 km/h (3 Bft) 95,65 %
17.06.2019 16:18 24,6 C 26,3 C 14,4 C 21,7 C 63 % 46 % 1017,8 hPa 0,0 l/m 9,7 km/h (2 Bft) O-NO 67 1 min 0,000 mm 5,4 UV-I 575 W/m 13,7 C 25,7 C 14,5 km/h (3 Bft) 95,65 %
17.06.2019 16:17 24,6 C 26,3 C 14,4 C 21,7 C 63 % 48 % 1017,8 hPa 0,0 l/m 6,4 km/h (2 Bft) O 90 1 min 0,000 mm 5,4 UV-I 566 W/m 14,4 C 26,3 C 17,7 km/h (3 Bft) 95,65 %
17.06.2019 16:16 24,6 C 26,2 C 14,4 C 21,7 C 63 % 47 % 1017,8 hPa 0,0 l/m 6,4 km/h (2 Bft) NO 45 1 min 0,000 mm 5,5 UV-I 508 W/m 14,0 C 26,2 C 11,3 km/h (2 Bft) 100,00 %
17.06.2019 16:15 24,6 C 26,2 C 14,4 C 21,7 C 63 % 49 % 1017,8 hPa 0,0 l/m 6,4 km/h (2 Bft) SO 135 1 min 0,000 mm 5,5 UV-I 496 W/m 14,6 C 26,2 C 12,9 km/h (3 Bft) 95,65 %
17.06.2019 16:14 24,6 C 26,1 C 14,4 C 21,7 C 63 % 49 % 1018,0 hPa 0,0 l/m 6,4 km/h (2 Bft) O 90 1 min 0,000 mm 5,5 UV-I 503 W/m 14,5 C 26,1 C 9,7 km/h (2 Bft) 95,65 %
17.06.2019 16:13 24,6 C 26,0 C 14,4 C 21,7 C 63 % 49 % 1018,0 hPa 0,0 l/m 8,0 km/h (2 Bft) O-SO 112 1 min 0,000 mm 5,5 UV-I 503 W/m 14,4 C 25,7 C 12,9 km/h (3 Bft) 100,00 %
17.06.2019 16:12 24,6 C 25,9 C 13,9 C 21,7 C 63 % 49 % 1018,0 hPa 0,0 l/m 4,8 km/h (1 Bft) O 90 1 min 0,000 mm 5,4 UV-I 496 W/m 14,4 C 25,9 C 9,7 km/h (2 Bft) 95,65 %
17.06.2019 16:11 24,6 C 25,9 C 13,9 C 21,7 C 63 % 48 % 1018,0 hPa 0,0 l/m 6,4 km/h (2 Bft) O-SO 112 1 min 0,000 mm 5,4 UV-I 508 W/m 14,0 C 25,9 C 11,3 km/h (2 Bft) 95,65 %
17.06.2019 16:10 24,6 C 25,8 C 13,9 C 21,7 C 63 % 49 % 1018,0 hPa 0,0 l/m 6,4 km/h (2 Bft) O-SO 112 1 min 0,000 mm 5,4 UV-I 497 W/m 14,3 C 25,8 C 12,9 km/h (3 Bft) 100,00 %
17.06.2019 16:09 24,6 C 25,8 C 13,9 C 21,7 C 63 % 47 % 1018,0 hPa 0,0 l/m 9,7 km/h (2 Bft) O-NO 67 1 min 0,000 mm 5,6 UV-I 473 W/m 13,6 C 25,1 C 16,1 km/h (3 Bft) 95,65 %
17.06.2019 16:08 24,6 C 25,9 C 13,9 C 21,7 C 63 % 46 % 1018,0 hPa 0,0 l/m 9,7 km/h (2 Bft) O-NO 67 1 min 0,000 mm 5,8 UV-I 464 W/m 13,4 C 25,2 C 16,1 km/h (3 Bft) 95,65 %
17.06.2019 16:07 24,6 C 25,9 C 13,9 C 21,7 C 63 % 46 % 1018,0 hPa 0,0 l/m 16,1 km/h (3 Bft) O 90 1 min 0,000 mm 5,9 UV-I 422 W/m 13,4 C 24,3 C 24,1 km/h (4 Bft) 95,65 %
17.06.2019 16:06 24,6 C 25,9 C 13,9 C 21,7 C 63 % 47 % 1018,0 hPa 0,0 l/m 11,3 km/h (2 Bft) SO 135 1 min 0,000 mm 6,0 UV-I 418 W/m 13,7 C 24,9 C 25,7 km/h (4 Bft) 95,65 %
17.06.2019 16:05 24,6 C 26,0 C 13,9 C 21,7 C 63 % 47 % 1018,0 hPa 0,0 l/m 8,0 km/h (2 Bft) S-SO 157 1 min 0,000 mm 6,1 UV-I 401 W/m 13,8 C 25,7 C 12,9 km/h (3 Bft) 95,65 %
17.06.2019 16:04 24,6 C 26,1 C 13,9 C 21,7 C 63 % 46 % 1018,0 hPa 0,0 l/m 8,0 km/h (2 Bft) O-SO 112 1 min 0,000 mm 6,1 UV-I 413 W/m 13,6 C 25,8 C 14,5 km/h (3 Bft) 95,65 %
17.06.2019 16:03 24,6 C 26,1 C 14,4 C 21,7 C 63 % 46 % 1018,0 hPa 0,0 l/m 11,3 km/h (2 Bft) O 90 1 min 0,000 mm 6,1 UV-I 418 W/m 13,6 C 25,2 C 16,1 km/h (3 Bft) 100,00 %
17.06.2019 16:02 24,6 C 26,2 C 14,4 C 21,7 C 63 % 46 % 1018,0 hPa 0,0 l/m 14,5 km/h (3 Bft) O-SO 112 1 min 0,000 mm 6,0 UV-I 429 W/m 13,6 C 24,8 C 22,5 km/h (4 Bft) 91,30 %
17.06.2019 16:01 24,6 C 26,2 C 14,4 C 21,7 C 63 % 47 % 1018,0 hPa 0,0 l/m 12,9 km/h (3 Bft) O-SO 112 1 min 0,000 mm 5,8 UV-I 473 W/m 14,0 C 25,0 C 19,3 km/h (3 Bft) 95,65 %
17.06.2019 16:00 24,6 C 26,2 C 15,0 C 21,7 C 63 % 47 % 1018,0 hPa 0,0 l/m 8,0 km/h (2 Bft) SO 135 1 min 0,483 mm 5,7 UV-I 478 W/m 14,0 C 25,9 C 12,9 km/h (3 Bft) 95,65 %
17.06.2019 15:59 24,6 C 26,2 C 15,0 C 21,7 C 63 % 48 % 1018,0 hPa 0,0 l/m 9,7 km/h (2 Bft) O-NO 67 1 min 0,000 mm 5,7 UV-I 478 W/m 14,3 C 25,5 C 14,5 km/h (3 Bft) 95,65 %
17.06.2019 15:58 24,6 C 26,2 C 15,0 C 21,7 C 63 % 47 % 1018,0 hPa 0,0 l/m 6,4 km/h (2 Bft) O 90 1 min 0,000 mm 5,7 UV-I 489 W/m 14,0 C 26,2 C 12,9 km/h (3 Bft) 95,65 %
17.06.2019 15:57 24,6 C 26,2 C 15,0 C 21,7 C 63 % 47 % 1018,0 hPa 0,0 l/m 6,4 km/h (2 Bft) O 90 1 min 0,000 mm 5,7 UV-I 506 W/m 14,0 C 26,2 C 11,3 km/h (2 Bft) 95,65 %
17.06.2019 15:56 24,6 C 26,3 C 15,0 C 21,7 C 63 % 46 % 1018,0 hPa 0,0 l/m 9,7 km/h (2 Bft) O-NO 67 1 min 0,000 mm 5,7 UV-I 503 W/m 13,7 C 25,7 C 17,7 km/h (3 Bft) 95,65 %
17.06.2019 15:55 24,6 C 26,3 C 15,0 C 21,7 C 63 % 46 % 1018,0 hPa 0,0 l/m 12,9 km/h (3 Bft) O 90 1 min 0,000 mm 5,7 UV-I 480 W/m 13,7 C 25,2 C 20,9 km/h (4 Bft) 95,65 %
17.06.2019 15:54 24,6 C 26,3 C 15,0 C 21,7 C 63 % 48 % 1018,0 hPa 0,0 l/m 11,3 km/h (2 Bft) O-NO 67 1 min 0,000 mm 5,8 UV-I 455 W/m 14,4 C 25,4 C 17,7 km/h (3 Bft) 100,00 %
17.06.2019 15:53 24,6 C 26,3 C 15,6 C 21,7 C 63 % 47 % 1018,0 hPa 0,0 l/m 8,0 km/h (2 Bft) O-NO 67 1 min 0,000 mm 5,8 UV-I 436 W/m 14,1 C 26,0 C 12,9 km/h (3 Bft) 91,30 %
17.06.2019 15:52 24,6 C 26,3 C 15,6 C 21,7 C 63 % 48 % 1018,0 hPa 0,0 l/m 9,7 km/h (2 Bft) O-NO 67 1 min 0,000 mm 5,9 UV-I 415 W/m 14,4 C 25,7 C 12,9 km/h (3 Bft) 95,65 %
17.06.2019 15:51 24,6 C 26,2 C 15,6 C 21,7 C 63 % 47 % 1018,0 hPa 0,0 l/m 6,4 km/h (2 Bft) O-NO 67 1 min 0,000 mm 5,7 UV-I 443 W/m 14,0 C 26,2 C 16,1 km/h (3 Bft) 95,65 %
17.06.2019 15:50 24,6 C 26,2 C 15,6 C 21,7 C 63 % 48 % 1018,0 hPa 0,0 l/m 8,0 km/h (2 Bft) O-NO 67 1 min 0,000 mm 5,5 UV-I 506 W/m 14,3 C 25,9 C 11,3 km/h (2 Bft) 91,30 %
17.06.2019 15:49 24,6 C 26,2 C 15,6 C 21,7 C 63 % 47 % 1018,0 hPa 0,0 l/m 8,0 km/h (2 Bft) O-NO 67 1 min 0,000 mm 5,4 UV-I 548 W/m 14,0 C 25,9 C 14,5 km/h (3 Bft) 91,30 %
17.06.2019 15:48 24,6 C 26,3 C 16,1 C 21,7 C 63 % 48 % 1018,0 hPa 0,0 l/m 11,3 km/h (2 Bft) O 90 1 min 0,000 mm 5,3 UV-I 638 W/m 14,4 C 25,4 C 17,7 km/h (3 Bft) 95,65 %
17.06.2019 15:47 24,6 C 26,3 C 16,1 C 21,7 C 63 % 46 % 1018,0 hPa 0,0 l/m 12,9 km/h (3 Bft) O-SO 112 1 min 0,000 mm 5,4 UV-I 680 W/m 13,7 C 25,2 C 20,9 km/h (4 Bft) 91,30 %
17.06.2019 15:46 24,6 C 26,4 C 16,1 C 21,7 C 63 % 47 % 1018,0 hPa 0,0 l/m 12,9 km/h (3 Bft) O-NO 67 1 min 0,000 mm 5,4 UV-I 649 W/m 14,2 C 25,3 C 17,7 km/h (3 Bft) 95,65 %
17.06.2019 15:45 24,6 C 26,4 C 16,1 C 21,7 C 64 % 47 % 1018,0 hPa 0,0 l/m 9,7 km/h (2 Bft) NO 45 1 min 0,000 mm 5,5 UV-I 577 W/m 14,2 C 25,8 C 17,7 km/h (3 Bft) 95,65 %
17.06.2019 15:44 24,6 C 26,6 C 16,1 C 21,7 C 63 % 46 % 1018,2 hPa 0,0 l/m 14,5 km/h (3 Bft) O-NO 67 1 min 0,000 mm 5,5 UV-I 564 W/m 14,0 C 25,3 C 22,5 km/h (4 Bft) 95,65 %
17.06.2019 15:43 24,6 C 26,7 C 16,1 C 21,7 C 63 % 45 % 1018,2 hPa 0,0 l/m 19,3 km/h (3 Bft) O 90 1 min 0,000 mm 5,5 UV-I 608 W/m 13,8 C 24,9 C 27,4 km/h (4 Bft) 91,30 %
17.06.2019 15:42 24,6 C 26,7 C 16,1 C 21,7 C 63 % 46 % 1018,2 hPa 0,0 l/m 14,5 km/h (3 Bft) O-SO 112 1 min 0,000 mm 5,5 UV-I 638 W/m 14,1 C 25,4 C 22,5 km/h (4 Bft) 100,00 %
17.06.2019 15:41 24,6 C 26,8 C 16,7 C 21,7 C 63 % 45 % 1018,2 hPa 0,0 l/m 9,7 km/h (2 Bft) O-SO 112 1 min 0,000 mm 5,5 UV-I 603 W/m 13,9 C 26,2 C 11,3 km/h (2 Bft) 91,30 %
17.06.2019 15:40 24,6 C 26,8 C 16,7 C 21,7 C 63 % 45 % 1018,2 hPa 0,0 l/m 9,7 km/h (2 Bft) SO 135 1 min 0,000 mm 5,5 UV-I 592 W/m 13,9 C 26,2 C 16,1 km/h (3 Bft) 91,30 %
17.06.2019 15:39 24,6 C 26,8 C 16,7 C 21,7 C 63 % 45 % 1018,2 hPa 0,0 l/m 8,0 km/h (2 Bft) NO 45 1 min 0,000 mm 5,5 UV-I 759 W/m 13,9 C 26,5 C 11,3 km/h (2 Bft) 95,65 %
17.06.2019 15:38 24,6 C 26,7 C 16,7 C 21,7 C 64 % 46 % 1018,2 hPa 0,0 l/m 14,5 km/h (3 Bft) O-NO 67 1 min 0,000 mm 5,6 UV-I 765 W/m 14,1 C 25,4 C 22,5 km/h (4 Bft) 91,30 %
17.06.2019 15:37 24,6 C 26,7 C 16,7 C 21,7 C 63 % 47 % 1018,2 hPa 0,0 l/m 8,0 km/h (2 Bft) O-NO 67 1 min 0,000 mm 5,6 UV-I 782 W/m 14,4 C 26,4 C 19,3 km/h (3 Bft) 91,30 %
17.06.2019 15:36 24,6 C 26,7 C 16,7 C 21,7 C 63 % 47 % 1018,2 hPa 0,0 l/m 8,0 km/h (2 Bft) O-NO 67 1 min 0,000 mm 5,6 UV-I 770 W/m 14,4 C 26,4 C 12,9 km/h (3 Bft) 95,65 %
17.06.2019 15:35 24,6 C 26,8 C 16,1 C 21,7 C 63 % 45 % 1018,2 hPa 0,0 l/m 9,7 km/h (2 Bft) SO 135 1 min 0,000 mm 5,6 UV-I 784 W/m 13,9 C 26,2 C 19,3 km/h (3 Bft) 95,65 %
17.06.2019 15:34 24,6 C 27,0 C 16,1 C 21,7 C 63 % 45 % 1018,2 hPa 0,0 l/m 11,3 km/h (2 Bft) O 90 1 min 0,000 mm 5,6 UV-I 671 W/m 14,0 C 26,2 C 20,9 km/h (4 Bft) 91,30 %
17.06.2019 15:33 24,6 C 27,1 C 16,7 C 21,7 C 63 % 47 % 1018,2 hPa 0,0 l/m 12,9 km/h (3 Bft) O-NO 67 1 min 0,000 mm 5,6 UV-I 671 W/m 14,8 C 26,1 C 22,5 km/h (4 Bft) 100,00 %
17.06.2019 15:32 24,6 C 26,9 C 16,7 C 21,7 C 63 % 48 % 1018,2 hPa 0,0 l/m 11,3 km/h (2 Bft) O-NO 67 1 min 0,000 mm 5,5 UV-I 749 W/m 14,9 C 26,1 C 19,3 km/h (3 Bft) 86,96 %
17.06.2019 15:31 24,6 C 26,8 C 16,1 C 21,7 C 63 % 48 % 1018,2 hPa 0,0 l/m 6,4 km/h (2 Bft) O 90 1 min 0,000 mm 5,5 UV-I 701 W/m 14,9 C 26,8 C 11,3 km/h (2 Bft) 95,65 %
17.06.2019 15:30 24,6 C 26,7 C 16,7 C 21,7 C 63 % 48 % 1018,2 hPa 0,0 l/m 4,8 km/h (1 Bft) O 90 1 min 0,000 mm 5,5 UV-I 687 W/m 14,8 C 26,7 C 8,0 km/h (2 Bft) 95,65 %
17.06.2019 15:29 24,6 C 26,6 C 16,7 C 21,7 C 63 % 49 % 1018,3 hPa 0,0 l/m 4,8 km/h (1 Bft) NO 45 1 min 0,000 mm 5,4 UV-I 621 W/m 15,0 C 26,6 C 11,3 km/h (2 Bft) 91,30 %
17.06.2019 15:28 24,6 C 26,6 C 16,7 C 21,7 C 63 % 49 % 1018,3 hPa 0,0 l/m 3,2 km/h (1 Bft) O-NO 67 1 min 0,000 mm 5,5 UV-I 687 W/m 15,0 C 26,6 C 9,7 km/h (2 Bft) 95,65 %
17.06.2019 15:27 24,6 C 26,6 C 16,1 C 21,7 C 63 % 48 % 1018,3 hPa 0,0 l/m 8,0 km/h (2 Bft) O 90 1 min 0,000 mm 5,5 UV-I 700 W/m 14,7 C 26,3 C 12,9 km/h (3 Bft) 95,65 %
17.06.2019 15:26 24,6 C 26,6 C 16,1 C 21,7 C 63 % 49 % 1018,3 hPa 0,0 l/m 9,7 km/h (2 Bft) O-SO 112 1 min 0,000 mm 5,5 UV-I 712 W/m 15,0 C 26,0 C 17,7 km/h (3 Bft) 95,65 %
17.06.2019 15:25 24,6 C 26,5 C 16,1 C 21,7 C 63 % 48 % 1018,3 hPa 0,0 l/m 11,3 km/h (2 Bft) O-SO 112 1 min 0,000 mm 5,5 UV-I 701 W/m 14,6 C 25,6 C 20,9 km/h (4 Bft) 91,30 %
17.06.2019 15:24 24,6 C 26,4 C 16,1 C 21,7 C 63 % 50 % 1018,3 hPa 0,0 l/m 9,7 km/h (2 Bft) O-SO 112 1 min 0,000 mm 5,5 UV-I 721 W/m 15,1 C 25,8 C 17,7 km/h (3 Bft) 100,00 %
17.06.2019 15:23 24,6 C 26,4 C 16,1 C 21,7 C 63 % 49 % 1018,3 hPa 0,0 l/m 6,4 km/h (2 Bft) O-SO 112 1 min 0,000 mm 5,5 UV-I 689 W/m 14,8 C 26,4 C 12,9 km/h (3 Bft) 91,30 %
17.06.2019 15:22 24,6 C 26,3 C 16,1 C 21,7 C 63 % 49 % 1018,3 hPa 0,0 l/m 6,4 km/h (2 Bft) O-NO 67 1 min 0,000 mm 5,5 UV-I 677 W/m 14,7 C 26,3 C 12,9 km/h (3 Bft) 95,65 %
17.06.2019 15:21 24,6 C 26,3 C 15,6 C 21,7 C 63 % 49 % 1018,3 hPa 0,0 l/m 8,0 km/h (2 Bft) SO 135 1 min 0,000 mm 5,6 UV-I 717 W/m 14,7 C 26,0 C 14,5 km/h (3 Bft) 91,30 %
17.06.2019 15:20 24,6 C 26,3 C 16,1 C 21,7 C 63 % 47 % 1018,3 hPa 0,0 l/m 16,1 km/h (3 Bft) O 90 1 min 0,000 mm 5,6 UV-I 696 W/m 14,1 C 24,8 C 25,7 km/h (4 Bft) 91,30 %
17.06.2019 15:19 24,6 C 26,4 C 16,1 C 21,7 C 63 % 47 % 1018,3 hPa 0,0 l/m 12,9 km/h (3 Bft) SO 135 1 min 0,000 mm 5,6 UV-I 696 W/m 14,2 C 25,3 C 24,1 km/h (4 Bft) 91,30 %
17.06.2019 15:18 24,6 C 26,5 C 16,1 C 21,7 C 63 % 47 % 1018,3 hPa 0,0 l/m 20,9 km/h (4 Bft) O 90 1 min 0,000 mm 5,6 UV-I 691 W/m 14,3 C 24,5 C 27,4 km/h (4 Bft) 82,61 %
17.06.2019 15:17 24,6 C 26,6 C 16,1 C 21,7 C 63 % 47 % 1018,3 hPa 0,0 l/m 11,3 km/h (2 Bft) SO 135 1 min 0,000 mm 5,6 UV-I 617 W/m 14,3 C 25,7 C 22,5 km/h (4 Bft) 95,65 %
17.06.2019 15:16 24,6 C 26,6 C 16,1 C 21,7 C 63 % 47 % 1018,3 hPa 0,0 l/m 8,0 km/h (2 Bft) SO 135 1 min 0,000 mm 5,8 UV-I 691 W/m 14,3 C 26,3 C 11,3 km/h (2 Bft) 95,65 %
17.06.2019 15:15 24,6 C 26,6 C 16,7 C 21,7 C 63 % 47 % 1018,3 hPa 0,0 l/m 8,0 km/h (2 Bft) O-SO 112 1 min 0,000 mm 5,8 UV-I 726 W/m 14,3 C 26,3 C 11,3 km/h (2 Bft) 95,65 %
17.06.2019 15:14 24,6 C 26,6 C 16,7 C 21,7 C 63 % 49 % 1018,5 hPa 0,0 l/m 6,4 km/h (2 Bft) O-NO 67 1 min 0,000 mm 5,7 UV-I 731 W/m 15,0 C 26,6 C 16,1 km/h (3 Bft) 100,00 %
17.06.2019 15:13 24,6 C 26,6 C 16,7 C 21,7 C 63 % 49 % 1018,5 hPa 0,0 l/m 8,0 km/h (2 Bft) O-SO 112 1 min 0,000 mm 5,8 UV-I 765 W/m 15,0 C 26,3 C 12,9 km/h (3 Bft) 95,65 %
17.06.2019 15:12 24,6 C 26,6 C 16,7 C 21,7 C 64 % 48 % 1018,5 hPa 0,0 l/m 9,7 km/h (2 Bft) O-NO 67 1 min 0,000 mm 5,8 UV-I 759 W/m 14,7 C 26,0 C 14,5 km/h (3 Bft) 95,65 %
17.06.2019 15:11 24,6 C 26,7 C 16,1 C 21,7 C 63 % 47 % 1018,5 hPa 0,0 l/m 9,7 km/h (2 Bft) O-NO 67 1 min 0,000 mm 5,7 UV-I 708 W/m 14,4 C 26,1 C 12,9 km/h (3 Bft) 100,00 %
17.06.2019 15:10 24,6 C 26,7 C 16,1 C 21,7 C 63 % 48 % 1018,5 hPa 0,0 l/m 8,0 km/h (2 Bft) O-NO 67 1 min 0,000 mm 5,7 UV-I 656 W/m 14,8 C 26,4 C 14,5 km/h (3 Bft) 95,65 %
17.06.2019 15:09 24,6 C 26,7 C 16,1 C 21,7 C 63 % 48 % 1018,5 hPa 0,0 l/m 9,7 km/h (2 Bft) O 90 1 min 0,000 mm 5,6 UV-I 675 W/m 14,8 C 26,1 C 19,3 km/h (3 Bft) 91,30 %
17.06.2019 15:08 24,6 C 26,6 C 16,1 C 21,7 C 63 % 49 % 1018,5 hPa 0,0 l/m 4,8 km/h (1 Bft) O-NO 67 1 min 0,000 mm 5,6 UV-I 670 W/m 15,0 C 26,6 C 12,9 km/h (3 Bft) 100,00 %
17.06.2019 15:07 24,6 C 26,6 C 16,1 C 21,7 C 63 % 48 % 1018,5 hPa 0,0 l/m 4,8 km/h (1 Bft) O-NO 67 1 min 0,000 mm 5,6 UV-I 654 W/m 14,7 C 26,6 C 9,7 km/h (2 Bft) 91,30 %
17.06.2019 15:06 24,6 C 26,6 C 16,1 C 21,7 C 63 % 47 % 1018,5 hPa 0,0 l/m 4,8 km/h (1 Bft) S-SO 157 1 min 0,000 mm 5,6 UV-I 631 W/m 14,3 C 26,6 C 8,0 km/h (2 Bft) 95,65 %
17.06.2019 15:05 24,6 C 26,6 C 16,7 C 21,1 C 63 % 48 % 1018,5 hPa 0,0 l/m 12,9 km/h (3 Bft) O-SO 112 1 min 0,000 mm 5,7 UV-I 650 W/m 14,7 C 25,5 C 20,9 km/h (4 Bft) 100,00 %
17.06.2019 15:04 24,6 C 26,6 C 16,7 C 21,1 C 63 % 46 % 1018,5 hPa 0,0 l/m 8,0 km/h (2 Bft) SO 135 1 min 0,000 mm 5,7 UV-I 652 W/m 14,0 C 26,3 C 17,7 km/h (3 Bft) 91,30 %
17.06.2019 15:03 24,6 C 26,7 C 16,7 C 21,1 C 63 % 47 % 1018,5 hPa 0,0 l/m 11,3 km/h (2 Bft) O-NO 67 1 min 0,000 mm 5,7 UV-I 682 W/m 14,4 C 25,8 C 20,9 km/h (4 Bft) 86,96 %
17.06.2019 15:02 24,6 C 26,7 C 16,7 C 21,1 C 63 % 47 % 1018,5 hPa 0,0 l/m 9,7 km/h (2 Bft) O-NO 67 1 min 0,000 mm 5,8 UV-I 663 W/m 14,4 C 26,1 C 14,5 km/h (3 Bft) 95,65 %
17.06.2019 15:01 24,6 C 26,7 C 16,7 C 21,1 C 63 % 47 % 1018,5 hPa 0,0 l/m 11,3 km/h (2 Bft) SO 135 1 min 0,000 mm 5,8 UV-I 726 W/m 14,4 C 25,8 C 20,9 km/h (4 Bft) 95,65 %
17.06.2019 15:00 24,6 C 26,8 C 16,7 C 21,1 C 63 % 48 % 1018,5 hPa 0,0 l/m 11,3 km/h (2 Bft) O-SO 112 1 min 0,584 mm 5,8 UV-I 710 W/m 14,9 C 26,0 C 16,1 km/h (3 Bft) 95,65 %
17.06.2019 14:59 24,6 C 26,8 C 16,7 C 21,1 C 63 % 46 % 1018,6 hPa 0,0 l/m 6,4 km/h (2 Bft) O-NO 67 1 min 0,000 mm 5,8 UV-I 715 W/m 14,2 C 26,8 C 11,3 km/h (2 Bft) 100,00 %
17.06.2019 14:58 24,6 C 26,9 C 16,7 C 21,1 C 63 % 46 % 1018,6 hPa 0,0 l/m 11,3 km/h (2 Bft) SO 135 1 min 0,000 mm 5,8 UV-I 724 W/m 14,3 C 26,1 C 19,3 km/h (3 Bft) 95,65 %
17.06.2019 14:57 24,6 C 26,9 C 16,7 C 21,1 C 63 % 47 % 1018,6 hPa 0,0 l/m 12,9 km/h (3 Bft) O-NO 67 1 min 0,000 mm 5,7 UV-I 670 W/m 14,6 C 25,9 C 27,4 km/h (4 Bft) 95,65 %
17.06.2019 14:56 24,6 C 27,0 C 17,2 C 21,1 C 63 % 47 % 1018,6 hPa 0,0 l/m 14,5 km/h (3 Bft) O-NO 67 1 min 0,000 mm 5,8 UV-I 721 W/m 14,7 C 25,8 C 22,5 km/h (4 Bft) 95,65 %
17.06.2019 14:55 24,6 C 26,9 C 17,2 C 21,1 C 63 % 47 % 1018,6 hPa 0,0 l/m 11,3 km/h (2 Bft) O-SO 112 1 min 0,000 mm 6,0 UV-I 780 W/m 14,6 C 26,1 C 20,9 km/h (4 Bft) 95,65 %
17.06.2019 14:54 24,6 C 26,8 C 17,2 C 21,1 C 63 % 47 % 1018,6 hPa 0,0 l/m 9,7 km/h (2 Bft) O 90 1 min 0,000 mm 6,1 UV-I 807 W/m 14,5 C 26,2 C 14,5 km/h (3 Bft) 91,30 %
17.06.2019 14:53 24,6 C 26,8 C 17,2 C 21,1 C 63 % 47 % 1018,6 hPa 0,0 l/m 11,3 km/h (2 Bft) O-NO 67 1 min 0,000 mm 6,3 UV-I 861 W/m 14,5 C 26,0 C 25,7 km/h (4 Bft) 100,00 %
17.06.2019 14:52 24,6 C 26,9 C 17,2 C 21,1 C 63 % 46 % 1018,6 hPa 0,0 l/m 11,3 km/h (2 Bft) O-NO 67 1 min 0,000 mm 6,3 UV-I 865 W/m 14,3 C 26,1 C 19,3 km/h (3 Bft) 91,30 %
17.06.2019 14:51 24,6 C 27,1 C 17,2 C 21,1 C 63 % 46 % 1018,6 hPa 0,0 l/m 12,9 km/h (3 Bft) O-SO 112 1 min 0,000 mm 6,3 UV-I 837 W/m 14,5 C 26,1 C 20,9 km/h (4 Bft) 95,65 %
17.06.2019 14:50 24,6 C 27,2 C 17,2 C 21,1 C 63 % 45 % 1018,6 hPa 0,0 l/m 16,1 km/h (3 Bft) O-SO 112 1 min 0,000 mm 6,3 UV-I 823 W/m 14,2 C 25,9 C 27,4 km/h (4 Bft) 100,00 %
17.06.2019 14:49 24,6 C 27,2 C 17,2 C 21,1 C 63 % 45 % 1018,6 hPa 0,0 l/m 16,1 km/h (3 Bft) O-SO 112 1 min 0,000 mm 6,4 UV-I 870 W/m 14,2 C 25,9 C 29,0 km/h (5 Bft) 95,65 %
17.06.2019 14:48 24,6 C 27,1 C 17,2 C 21,1 C 63 % 47 % 1018,6 hPa 0,0 l/m 14,5 km/h (3 Bft) O-NO 67 1 min 0,000 mm 6,4 UV-I 865 W/m 14,8 C 25,9 C 29,0 km/h (5 Bft) 95,65 %
17.06.2019 14:47 24,6 C 26,9 C 17,2 C 21,1 C 63 % 49 % 1018,6 hPa 0,0 l/m 9,7 km/h (2 Bft) NO 45 1 min 0,000 mm 6,4 UV-I 865 W/m 15,3 C 26,3 C 16,1 km/h (3 Bft) 100,00 %
17.06.2019 14:46 24,6 C 26,8 C 17,2 C 21,1 C 63 % 49 % 1018,6 hPa 0,0 l/m 4,8 km/h (1 Bft) O 90 1 min 0,000 mm 6,4 UV-I 879 W/m 15,2 C 26,8 C 16,1 km/h (3 Bft) 91,30 %
17.06.2019 14:45 24,6 C 26,8 C 17,2 C 21,1 C 63 % 48 % 1018,6 hPa 0,0 l/m 8,0 km/h (2 Bft) O-NO 67 1 min 0,000 mm 6,4 UV-I 803 W/m 14,9 C 26,5 C 11,3 km/h (2 Bft) 95,65 %
17.06.2019 14:44 24,6 C 26,8 C 17,2 C 21,1 C 63 % 48 % 1018,7 hPa 0,0 l/m 11,3 km/h (2 Bft) O-NO 67 1 min 0,000 mm 6,1 UV-I 803 W/m 14,9 C 26,0 C 19,3 km/h (3 Bft) 100,00 %
17.06.2019 14:43 24,6 C 26,7 C 17,2 C 21,1 C 63 % 48 % 1018,7 hPa 0,0 l/m 12,9 km/h (3 Bft) O-NO 67 1 min 0,000 mm 6,5 UV-I 900 W/m 14,8 C 25,6 C 17,7 km/h (3 Bft) 95,65 %
17.06.2019 14:42 24,6 C 26,6 C 17,2 C 21,1 C 63 % 48 % 1018,7 hPa 0,0 l/m 9,7 km/h (2 Bft) O-NO 67 1 min 0,000 mm 6,5 UV-I 882 W/m 14,7 C 26,0 C 14,5 km/h (3 Bft) 95,65 %
17.06.2019 14:41 24,6 C 26,5 C 17,2 C 21,1 C 63 % 49 % 1018,7 hPa 0,0 l/m 12,9 km/h (3 Bft) O-SO 112 1 min 0,000 mm 6,5 UV-I 868 W/m 14,9 C 25,4 C 22,5 km/h (4 Bft) 100,00 %
17.06.2019 14:40 24,6 C 26,4 C 17,2 C 21,1 C 63 % 47 % 1018,7 hPa 0,0 l/m 4,8 km/h (1 Bft) O-SO 112 1 min 0,000 mm 6,4 UV-I 868 W/m 14,2 C 26,4 C 8,0 km/h (2 Bft) 91,30 %
17.06.2019 14:39 24,6 C 26,5 C 17,2 C 21,1 C 63 % 47 % 1018,7 hPa 0,0 l/m 3,2 km/h (1 Bft) O 90 1 min 0,000 mm 6,4 UV-I 826 W/m 14,3 C 26,5 C 6,4 km/h (2 Bft) 95,65 %
17.06.2019 14:38 24,6 C 26,6 C 17,2 C 21,1 C 63 % 46 % 1018,7 hPa 0,0 l/m 4,8 km/h (1 Bft) SO 135 1 min 0,000 mm 6,4 UV-I 842 W/m 14,0 C 26,6 C 8,0 km/h (2 Bft) 100,00 %
17.06.2019 14:37 24,6 C 26,6 C 17,2 C 21,1 C 63 % 46 % 1018,7 hPa 0,0 l/m 11,3 km/h (2 Bft) O-SO 112 1 min 0,000 mm 6,4 UV-I 863 W/m 14,0 C 25,7 C 14,5 km/h (3 Bft) 95,65 %
17.06.2019 14:36 24,6 C 26,5 C 17,2 C 21,1 C 63 % 46 % 1018,7 hPa 0,0 l/m 8,0 km/h (2 Bft) O-NO 67 1 min 0,000 mm 6,4 UV-I 867 W/m 13,9 C 26,2 C 16,1 km/h (3 Bft) 95,65 %
17.06.2019 14:35 24,6 C 26,6 C 17,2 C 21,1 C 63 % 48 % 1018,7 hPa 0,0 l/m 9,7 km/h (2 Bft) O-SO 112 1 min 0,000 mm 6,4 UV-I 889 W/m 14,7 C 26,0 C 17,7 km/h (3 Bft) 100,00 %
17.06.2019 14:34 24,6 C 26,5 C 17,2 C 21,1 C 63 % 48 % 1018,7 hPa 0,0 l/m 16,1 km/h (3 Bft) O 90 1 min 0,000 mm 6,2 UV-I 904 W/m 14,6 C 25,0 C 20,9 km/h (4 Bft) 86,96 %
17.06.2019 14:33 24,6 C 26,6 C 16,7 C 21,1 C 63 % 47 % 1018,7 hPa 0,0 l/m 14,5 km/h (3 Bft) O-SO 112 1 min 0,000 mm 6,2 UV-I 889 W/m 14,3 C 25,3 C 22,5 km/h (4 Bft) 91,30 %
17.06.2019 14:32 24,6 C 26,6 C 16,7 C 21,1 C 63 % 48 % 1018,7 hPa 0,0 l/m 11,3 km/h (2 Bft) O 90 1 min 0,000 mm 6,0 UV-I 849 W/m 14,7 C 25,7 C 19,3 km/h (3 Bft) 100,00 %
17.06.2019 14:31 24,6 C 26,7 C 16,7 C 21,1 C 63 % 48 % 1018,7 hPa 0,0 l/m 14,5 km/h (3 Bft) O-SO 112 1 min 0,000 mm 6,0 UV-I 854 W/m 14,8 C 25,4 C 19,3 km/h (3 Bft) 86,96 %
17.06.2019 14:30 24,6 C 26,7 C 16,7 C 21,1 C 63 % 48 % 1018,7 hPa 0,0 l/m 9,7 km/h (2 Bft) O-SO 112 1 min 0,000 mm 5,9 UV-I 846 W/m 14,8 C 26,1 C 16,1 km/h (3 Bft) 95,65 %
17.06.2019 14:29 24,6 C 26,6 C 16,1 C 21,1 C 63 % 48 % 1018,9 hPa 0,0 l/m 8,0 km/h (2 Bft) O-NO 67 1 min 0,000 mm 5,8 UV-I 831 W/m 14,7 C 26,3 C 17,7 km/h (3 Bft) 100,00 %
17.06.2019 14:28 24,6 C 26,6 C 16,1 C 21,1 C 63 % 47 % 1018,9 hPa 0,0 l/m 8,0 km/h (2 Bft) O-NO 67 1 min 0,000 mm 5,7 UV-I 791 W/m 14,3 C 26,3 C 12,9 km/h (3 Bft) 95,65 %
17.06.2019 14:27 24,6 C 26,6 C 16,1 C 21,1 C 63 % 48 % 1018,9 hPa 0,0 l/m 6,4 km/h (2 Bft) O-NO 67 1 min 0,000 mm 5,7 UV-I 714 W/m 14,7 C 26,6 C 12,9 km/h (3 Bft) 95,65 %
17.06.2019 14:26 24,6 C 26,5 C 16,1 C 21,1 C 63 % 48 % 1018,9 hPa 0,0 l/m 4,8 km/h (1 Bft) O-NO 67 1 min 0,000 mm 5,6 UV-I 615 W/m 14,6 C 26,5 C 12,9 km/h (3 Bft) 91,30 %
17.06.2019 14:25 24,6 C 26,4 C 16,1 C 21,1 C 63 % 49 % 1018,9 hPa 0,0 l/m 11,3 km/h (2 Bft) SO 135 1 min 0,000 mm 5,6 UV-I 656 W/m 14,8 C 25,5 C 20,9 km/h (4 Bft) 95,65 %
17.06.2019 14:24 24,6 C 26,3 C 16,1 C 21,1 C 63 % 49 % 1018,9 hPa 0,0 l/m 6,4 km/h (2 Bft) O-NO 67 1 min 0,000 mm 5,6 UV-I 700 W/m 14,7 C 26,3 C 14,5 km/h (3 Bft) 95,65 %
17.06.2019 14:23 24,6 C 26,2 C 16,7 C 21,1 C 63 % 49 % 1018,9 hPa 0,0 l/m 9,7 km/h (2 Bft) O-NO 67 1 min 0,000 mm 5,6 UV-I 684 W/m 14,6 C 25,5 C 17,7 km/h (3 Bft) 95,65 %
17.06.2019 14:22 24,6 C 26,1 C 16,7 C 21,1 C 63 % 50 % 1018,9 hPa 0,0 l/m 8,0 km/h (2 Bft) O-NO 67 1 min 0,000 mm 5,7 UV-I 747 W/m 14,8 C 25,8 C 14,5 km/h (3 Bft) 95,65 %
17.06.2019 14:21 24,6 C 26,0 C 16,7 C 21,1 C 63 % 51 % 1018,9 hPa 0,0 l/m 8,0 km/h (2 Bft) O 90 1 min 0,000 mm 5,6 UV-I 693 W/m 15,1 C 25,7 C 17,7 km/h (3 Bft) 95,65 %
17.06.2019 14:20 24,6 C 25,9 C 16,7 C 21,1 C 63 % 50 % 1018,9 hPa 0,0 l/m 4,8 km/h (1 Bft) O-SO 112 1 min 0,000 mm 5,7 UV-I 737 W/m 14,7 C 25,9 C 9,7 km/h (2 Bft) 95,65 %
17.06.2019 14:19 24,6 C 25,9 C 16,1 C 21,1 C 63 % 50 % 1018,9 hPa 0,0 l/m 6,4 km/h (2 Bft) O-NO 67 1 min 0,000 mm 5,8 UV-I 735 W/m 14,7 C 25,9 C 11,3 km/h (2 Bft) 100,00 %
17.06.2019 14:18 24,6 C 25,9 C 16,7 C 21,1 C 63 % 47 % 1018,9 hPa 0,0 l/m 9,7 km/h (2 Bft) O 90 1 min 0,000 mm 5,8 UV-I 733 W/m 13,7 C 25,2 C 16,1 km/h (3 Bft) 91,30 %
17.06.2019 14:17 24,6 C 26,0 C 16,1 C 21,1 C 63 % 47 % 1018,9 hPa 0,0 l/m 12,9 km/h (3 Bft) O-SO 112 1 min 0,000 mm 5,9 UV-I 722 W/m 13,8 C 24,8 C 20,9 km/h (4 Bft) 91,30 %
17.06.2019 14:16 24,6 C 26,0 C 16,7 C 21,1 C 63 % 47 % 1018,9 hPa 0,0 l/m 11,3 km/h (2 Bft) SO 135 1 min 0,000 mm 5,9 UV-I 751 W/m 13,8 C 25,0 C 14,5 km/h (3 Bft) 95,65 %
17.06.2019 14:15 24,6 C 26,0 C 17,2 C 21,1 C 63 % 48 % 1018,9 hPa 0,0 l/m 12,9 km/h (3 Bft) O 90 1 min 0,000 mm 6,0 UV-I 729 W/m 14,1 C 24,8 C 20,9 km/h (4 Bft) 95,65 %
17.06.2019 14:14 24,6 C 26,1 C 17,2 C 21,1 C 63 % 47 % 1019,0 hPa 0,0 l/m 8,0 km/h (2 Bft) O 90 1 min 0,000 mm 5,9 UV-I 754 W/m 13,9 C 25,8 C 16,1 km/h (3 Bft) 95,65 %
17.06.2019 14:13 24,6 C 26,1 C 16,7 C 21,1 C 63 % 47 % 1019,0 hPa 0,0 l/m 6,4 km/h (2 Bft) O-SO 112 1 min 0,000 mm 6,0 UV-I 752 W/m 13,9 C 26,1 C 12,9 km/h (3 Bft) 100,00 %
17.06.2019 14:12 24,6 C 26,1 C 16,7 C 21,1 C 63 % 48 % 1019,0 hPa 0,0 l/m 14,5 km/h (3 Bft) O-SO 112 1 min 0,000 mm 6,2 UV-I 735 W/m 14,2 C 24,7 C 19,3 km/h (3 Bft) 91,30 %
17.06.2019 14:11 24,6 C 26,1 C 16,7 C 21,1 C 63 % 48 % 1019,0 hPa 0,0 l/m 9,7 km/h (2 Bft) O-SO 112 1 min 0,000 mm 6,4 UV-I 779 W/m 14,2 C 25,4 C 16,1 km/h (3 Bft) 91,30 %
17.06.2019 14:10 24,6 C 26,0 C 16,7 C 21,1 C 63 % 50 % 1019,0 hPa 0,0 l/m 3,2 km/h (1 Bft) S 180 1 min 0,000 mm 6,4 UV-I 694 W/m 14,8 C 26,0 C 8,0 km/h (2 Bft) 100,00 %
17.06.2019 14:09 24,6 C 26,0 C 16,7 C 21,1 C 63 % 47 % 1019,0 hPa 0,0 l/m 9,7 km/h (2 Bft) SO 135 1 min 0,000 mm 5,9 UV-I 722 W/m 13,8 C 25,3 C 14,5 km/h (3 Bft) 91,30 %
17.06.2019 14:08 24,6 C 26,0 C 16,7 C 21,1 C 64 % 47 % 1019,0 hPa 0,0 l/m 4,8 km/h (1 Bft) SO 135 1 min 0,000 mm 6,3 UV-I 722 W/m 13,8 C 26,0 C 8,0 km/h (2 Bft) 91,30 %
17.06.2019 14:07 24,6 C 25,9 C 16,7 C 21,1 C 63 % 49 % 1019,0 hPa 0,0 l/m 9,7 km/h (2 Bft) O 90 1 min 0,000 mm 6,2 UV-I 756 W/m 14,4 C 25,2 C 16,1 km/h (3 Bft) 100,00 %
17.06.2019 14:06 24,6 C 25,8 C 16,1 C 21,1 C 63 % 47 % 1019,0 hPa 0,0 l/m 11,3 km/h (2 Bft) O-SO 112 1 min 0,000 mm 6,5 UV-I 756 W/m 13,6 C 24,8 C 19,3 km/h (3 Bft) 95,65 %
17.06.2019 14:05 24,6 C 25,7 C 16,1 C 21,1 C 63 % 47 % 1019,0 hPa 0,0 l/m 11,3 km/h (2 Bft) O-NO 67 1 min 0,000 mm 6,6 UV-I 782 W/m 13,5 C 24,7 C 19,3 km/h (3 Bft) 91,30 %
17.06.2019 14:04 24,6 C 25,6 C 16,1 C 21,1 C 63 % 48 % 1019,0 hPa 0,0 l/m 9,7 km/h (2 Bft) O-NO 67 1 min 0,000 mm 6,4 UV-I 722 W/m 13,8 C 24,9 C 17,7 km/h (3 Bft) 100,00 %
17.06.2019 14:03 24,6 C 25,5 C 16,1 C 21,1 C 63 % 49 % 1019,0 hPa 0,0 l/m 11,3 km/h (2 Bft) O-SO 112 1 min 0,000 mm 6,1 UV-I 689 W/m 14,0 C 24,5 C 22,5 km/h (4 Bft) 91,30 %
17.06.2019 14:02 24,6 C 25,4 C 16,1 C 21,1 C 63 % 49 % 1019,0 hPa 0,0 l/m 8,0 km/h (2 Bft) O 90 1 min 0,000 mm 6,2 UV-I 726 W/m 13,9 C 25,0 C 14,5 km/h (3 Bft) 91,30 %
17.06.2019 14:01 24,6 C 25,5 C 15,6 C 21,1 C 63 % 48 % 1019,0 hPa 0,0 l/m 8,0 km/h (2 Bft) O-SO 112 1 min 0,000 mm 6,1 UV-I 691 W/m 13,7 C 25,1 C 16,1 km/h (3 Bft) 91,30 %
17.06.2019 14:00 24,6 C 25,6 C 15,6 C 21,1 C 63 % 48 % 1019,0 hPa 0,0 l/m 8,0 km/h (2 Bft) S-SO 157 1 min 0,533 mm 6,1 UV-I 654 W/m 13,8 C 25,2 C 12,9 km/h (3 Bft) 91,30 %
17.06.2019 13:59 24,6 C 25,6 C 15,6 C 21,1 C 63 % 49 % 1019,0 hPa 0,0 l/m 9,7 km/h (2 Bft) O 90 1 min 0,000 mm 6,1 UV-I 700 W/m 14,1 C 24,9 C 14,5 km/h (3 Bft) 91,30 %
17.06.2019 13:58 24,6 C 25,6 C 15,0 C 21,1 C 63 % 48 % 1019,0 hPa 0,0 l/m 9,7 km/h (2 Bft) O 90 1 min 0,000 mm 5,9 UV-I 652 W/m 13,8 C 24,9 C 12,9 km/h (3 Bft) 91,30 %
17.06.2019 13:57 24,6 C 25,5 C 15,0 C 21,1 C 63 % 51 % 1019,0 hPa 0,0 l/m 6,4 km/h (2 Bft) O-NO 67 1 min 0,000 mm 5,8 UV-I 577 W/m 14,6 C 25,5 C 11,3 km/h (2 Bft) 95,65 %
17.06.2019 13:56 24,6 C 25,5 C 15,0 C 21,1 C 63 % 49 % 1019,0 hPa 0,0 l/m 11,3 km/h (2 Bft) O-NO 67 1 min 0,000 mm 5,6 UV-I 508 W/m 14,0 C 24,5 C 19,3 km/h (3 Bft) 86,96 %
17.06.2019 13:55 24,6 C 25,5 C 15,0 C 20,6 C 63 % 48 % 1019,0 hPa 0,0 l/m 9,7 km/h (2 Bft) O-NO 67 1 min 0,000 mm 5,5 UV-I 487 W/m 13,7 C 24,8 C 14,5 km/h (3 Bft) 100,00 %
17.06.2019 13:54 24,6 C 25,6 C 15,0 C 20,6 C 63 % 48 % 1019,0 hPa 0,0 l/m 9,7 km/h (2 Bft) O-SO 112 1 min 0,000 mm 5,6 UV-I 455 W/m 13,8 C 24,9 C 14,5 km/h (3 Bft) 86,96 %
17.06.2019 13:53 24,6 C 25,7 C 15,0 C 20,6 C 63 % 47 % 1019,0 hPa 0,0 l/m 12,9 km/h (3 Bft) O-SO 112 1 min 0,000 mm 5,9 UV-I 534 W/m 13,5 C 24,5 C 19,3 km/h (3 Bft) 95,65 %
17.06.2019 13:52 24,6 C 25,8 C 15,0 C 20,6 C 63 % 46 % 1019,0 hPa 0,0 l/m 9,7 km/h (2 Bft) SO 135 1 min 0,000 mm 5,6 UV-I 490 W/m 13,3 C 25,1 C 14,5 km/h (3 Bft) 91,30 %
17.06.2019 13:51 24,6 C 25,8 C 15,0 C 20,6 C 63 % 48 % 1019,0 hPa 0,0 l/m 11,3 km/h (2 Bft) O 90 1 min 0,000 mm 5,5 UV-I 490 W/m 13,9 C 24,8 C 17,7 km/h (3 Bft) 91,30 %
17.06.2019 13:50 24,6 C 25,9 C 15,6 C 20,6 C 63 % 47 % 1019,0 hPa 0,0 l/m 8,0 km/h (2 Bft) SO 135 1 min 0,000 mm 5,6 UV-I 490 W/m 13,7 C 25,5 C 19,3 km/h (3 Bft) 86,96 %
17.06.2019 13:49 24,6 C 26,1 C 15,6 C 20,6 C 63 % 47 % 1019,0 hPa 0,0 l/m 11,3 km/h (2 Bft) O-SO 112 1 min 0,000 mm 5,6 UV-I 406 W/m 13,9 C 25,2 C 16,1 km/h (3 Bft) 95,65 %
17.06.2019 13:48 24,6 C 26,3 C 16,1 C 20,6 C 63 % 45 % 1019,0 hPa 0,0 l/m 9,7 km/h (2 Bft) O-NO 67 1 min 0,000 mm 5,9 UV-I 461 W/m 13,4 C 25,7 C 25,7 km/h (4 Bft) 91,30 %
17.06.2019 13:47 24,6 C 26,4 C 16,1 C 20,6 C 63 % 45 % 1019,0 hPa 0,0 l/m 12,9 km/h (3 Bft) O-SO 112 1 min 0,000 mm 5,9 UV-I 529 W/m 13,5 C 25,3 C 22,5 km/h (4 Bft) 86,96 %
17.06.2019 13:46 24,6 C 26,6 C 16,7 C 20,6 C 63 % 45 % 1019,0 hPa 0,0 l/m 12,9 km/h (3 Bft) SO 135 1 min 0,000 mm 6,0 UV-I 508 W/m 13,7 C 25,5 C 25,7 km/h (4 Bft) 95,65 %
17.06.2019 13:45 24,6 C 26,8 C 17,8 C 20,6 C 63 % 45 % 1019,0 hPa 0,0 l/m 14,5 km/h (3 Bft) O-SO 112 1 min 0,000 mm 6,1 UV-I 543 W/m 13,9 C 25,5 C 22,5 km/h (4 Bft) 91,30 %
17.06.2019 13:44 24,6 C 26,8 C 18,3 C 20,6 C 63 % 45 % 1019,0 hPa 0,0 l/m 11,3 km/h (2 Bft) O-SO 112 1 min 0,000 mm 6,1 UV-I 687 W/m 13,9 C 26,0 C 17,7 km/h (3 Bft) 86,96 %
17.06.2019 13:43 24,6 C 26,9 C 18,3 C 20,6 C 63 % 46 % 1019,0 hPa 0,0 l/m 12,9 km/h (3 Bft) O-SO 112 1 min 0,000 mm 6,4 UV-I 687 W/m 14,3 C 25,9 C 20,9 km/h (4 Bft) 91,30 %
17.06.2019 13:42 24,6 C 26,9 C 18,3 C 20,6 C 63 % 46 % 1019,0 hPa 0,0 l/m 11,3 km/h (2 Bft) O-SO 112 1 min 0,000 mm 6,8 UV-I 758 W/m 14,3 C 26,1 C 16,1 km/h (3 Bft) 95,65 %
17.06.2019 13:41 24,6 C 26,9 C 18,3 C 20,6 C 63 % 46 % 1019,0 hPa 0,0 l/m 4,8 km/h (1 Bft) NO 45 1 min 0,000 mm 7,3 UV-I 951 W/m 14,3 C 26,9 C 8,0 km/h (2 Bft) 86,96 %
17.06.2019 13:40 24,6 C 26,9 C 18,3 C 20,6 C 63 % 47 % 1019,0 hPa 0,0 l/m 9,7 km/h (2 Bft) O-NO 67 1 min 0,000 mm 7,3 UV-I 853 W/m 14,6 C 26,3 C 17,7 km/h (3 Bft) 100,00 %
17.06.2019 13:39 24,6 C 26,9 C 18,3 C 20,6 C 63 % 47 % 1019,0 hPa 0,0 l/m 6,4 km/h (2 Bft) SO 135 1 min 0,000 mm 7,5 UV-I 893 W/m 14,6 C 26,9 C 9,7 km/h (2 Bft) 86,96 %
17.06.2019 13:38 24,6 C 26,9 C 18,3 C 20,6 C 63 % 46 % 1019,0 hPa 0,0 l/m 4,8 km/h (1 Bft) O 90 1 min 0,000 mm 7,7 UV-I 972 W/m 14,3 C 26,9 C 8,0 km/h (2 Bft) 91,30 %
17.06.2019 13:37 24,6 C 26,8 C 18,3 C 20,6 C 63 % 46 % 1019,0 hPa 0,0 l/m 8,0 km/h (2 Bft) O-NO 67 1 min 0,000 mm 7,9 UV-I 986 W/m 14,2 C 26,5 C 22,5 km/h (4 Bft) 91,30 %
17.06.2019 13:36 24,6 C 26,8 C 17,8 C 20,6 C 63 % 46 % 1019,0 hPa 0,0 l/m 11,3 km/h (2 Bft) O 90 1 min 0,000 mm 7,8 UV-I 995 W/m 14,2 C 26,0 C 19,3 km/h (3 Bft) 95,65 %
17.06.2019 13:35 24,4 C 26,8 C 17,8 C 20,6 C 63 % 47 % 1019,0 hPa 0,0 l/m 8,0 km/h (2 Bft) O-NO 67 1 min 0,000 mm 7,8 UV-I 988 W/m 14,5 C 26,5 C 20,9 km/h (4 Bft) 91,30 %
17.06.2019 13:34 24,4 C 26,8 C 17,8 C 20,6 C 63 % 47 % 1019,0 hPa 0,0 l/m 9,7 km/h (2 Bft) O-NO 67 1 min 0,000 mm 7,8 UV-I 919 W/m 14,5 C 26,2 C 22,5 km/h (4 Bft) 91,30 %
17.06.2019 13:33 24,4 C 26,8 C 17,2 C 20,6 C 63 % 47 % 1019,0 hPa 0,0 l/m 8,0 km/h (2 Bft) O 90 1 min 0,000 mm 7,4 UV-I 939 W/m 14,5 C 26,5 C 14,5 km/h (3 Bft) 95,65 %
17.06.2019 13:32 24,4 C 26,8 C 17,2 C 20,6 C 63 % 46 % 1019,0 hPa 0,0 l/m 6,4 km/h (2 Bft) O 90 1 min 0,000 mm 7,6 UV-I 933 W/m 14,2 C 26,8 C 11,3 km/h (2 Bft) 91,30 %
17.06.2019 13:31 24,4 C 26,8 C 17,2 C 20,6 C 63 % 47 % 1019,0 hPa 0,0 l/m 11,3 km/h (2 Bft) O-SO 112 1 min 0,000 mm 7,5 UV-I 925 W/m 14,5 C 26,0 C 17,7 km/h (3 Bft) 91,30 %
17.06.2019 13:30 24,4 C 26,8 C 17,2 C 20,6 C 63 % 46 % 1019,0 hPa 0,0 l/m 8,0 km/h (2 Bft) S-SO 157 1 min 0,000 mm 7,6 UV-I 891 W/m 14,2 C 26,5 C 17,7 km/h (3 Bft) 95,65 %
17.06.2019 13:29 24,4 C 26,8 C 17,2 C 20,6 C 63 % 46 % 1019,2 hPa 0,0 l/m 11,3 km/h (2 Bft) SO 135 1 min 0,000 mm 7,4 UV-I 875 W/m 14,2 C 26,0 C 12,9 km/h (3 Bft) 91,30 %
17.06.2019 13:28 24,4 C 26,7 C 17,2 C 20,6 C 63 % 49 % 1019,2 hPa 0,0 l/m 11,3 km/h (2 Bft) O 90 1 min 0,000 mm 7,6 UV-I 889 W/m 15,1 C 25,8 C 14,5 km/h (3 Bft) 91,30 %
17.06.2019 13:27 24,4 C 26,6 C 16,7 C 20,6 C 63 % 48 % 1019,2 hPa 0,0 l/m 8,0 km/h (2 Bft) SO 135 1 min 0,000 mm 7,9 UV-I 912 W/m 14,7 C 26,3 C 16,1 km/h (3 Bft) 91,30 %
17.06.2019 13:26 24,4 C 26,5 C 16,7 C 20,6 C 63 % 48 % 1019,2 hPa 0,0 l/m 8,0 km/h (2 Bft) O-NO 67 1 min 0,000 mm 8,0 UV-I 939 W/m 14,6 C 26,2 C 11,3 km/h (2 Bft) 91,30 %
17.06.2019 13:25 24,4 C 26,6 C 16,1 C 20,6 C 63 % 46 % 1019,2 hPa 0,0 l/m 6,4 km/h (2 Bft) O-NO 67 1 min 0,000 mm 8,0 UV-I 939 W/m 14,0 C 26,6 C 11,3 km/h (2 Bft) 91,30 %
17.06.2019 13:24 24,4 C 26,7 C 16,1 C 20,6 C 64 % 47 % 1019,2 hPa 0,0 l/m 6,4 km/h (2 Bft) O-NO 67 1 min 0,000 mm 7,7 UV-I 846 W/m 14,4 C 26,7 C 14,5 km/h (3 Bft) 95,65 %
17.06.2019 13:23 24,4 C 26,8 C 16,7 C 20,6 C 63 % 45 % 1019,2 hPa 0,0 l/m 12,9 km/h (3 Bft) O-NO 67 1 min 0,000 mm 5,9 UV-I 251 W/m 13,9 C 25,7 C 17,7 km/h (3 Bft) 95,65 %
17.06.2019 13:22 24,4 C 26,8 C 16,7 C 20,6 C 63 % 45 % 1019,2 hPa 0,0 l/m 11,3 km/h (2 Bft) O-SO 112 1 min 0,000 mm 5,9 UV-I 842 W/m 13,9 C 26,0 C 14,5 km/h (3 Bft) 91,30 %
17.06.2019 13:21 24,4 C 26,8 C 16,7 C 20,6 C 63 % 48 % 1019,2 hPa 0,0 l/m 11,3 km/h (2 Bft) O-NO 67 1 min 0,000 mm 7,6 UV-I 842 W/m 14,9 C 26,0 C 17,7 km/h (3 Bft) 100,00 %
17.06.2019 13:20 24,4 C 26,7 C 16,7 C 20,6 C 63 % 47 % 1019,2 hPa 0,0 l/m 8,0 km/h (2 Bft) O-NO 67 1 min 0,000 mm 7,8 UV-I 837 W/m 14,4 C 26,4 C 14,5 km/h (3 Bft) 86,96 %
17.06.2019 13:19 24,4 C 26,6 C 16,7 C 20,6 C 63 % 47 % 1019,2 hPa 0,0 l/m 3,2 km/h (1 Bft) O-NO 67 1 min 0,000 mm 7,9 UV-I 840 W/m 14,3 C 26,6 C 9,7 km/h (2 Bft) 91,30 %
17.06.2019 13:18 24,4 C 26,4 C 16,7 C 20,6 C 63 % 47 % 1019,2 hPa 0,0 l/m 8,0 km/h (2 Bft) O-NO 67 1 min 0,000 mm 7,7 UV-I 812 W/m 14,2 C 26,1 C 14,5 km/h (3 Bft) 95,65 %
17.06.2019 13:17 24,4 C 26,2 C 16,7 C 20,6 C 63 % 49 % 1019,2 hPa 0,0 l/m 4,8 km/h (1 Bft) O-SO 112 1 min 0,000 mm 7,8 UV-I 788 W/m 14,6 C 26,2 C 9,7 km/h (2 Bft) 95,65 %
17.06.2019 13:16 24,4 C 26,1 C 16,7 C 20,6 C 63 % 48 % 1019,2 hPa 0,0 l/m 8,0 km/h (2 Bft) O 90 1 min 0,000 mm 7,8 UV-I 777 W/m 14,2 C 25,8 C 12,9 km/h (3 Bft) 91,30 %
17.06.2019 13:15 24,4 C 26,1 C 16,1 C 20,6 C 63 % 47 % 1019,2 hPa 0,0 l/m 6,4 km/h (2 Bft) O-NO 67 1 min 0,000 mm 7,7 UV-I 779 W/m 13,9 C 26,1 C 12,9 km/h (3 Bft) 100,00 %
17.06.2019 13:14 24,4 C 26,0 C 16,1 C 20,6 C 63 % 50 % 1019,5 hPa 0,0 l/m 6,4 km/h (2 Bft) O-NO 67 1 min 0,000 mm 7,8 UV-I 664 W/m 14,8 C 26,0 C 14,5 km/h (3 Bft) 91,30 %
17.06.2019 13:13 24,4 C 25,8 C 16,1 C 20,6 C 63 % 49 % 1019,5 hPa 0,0 l/m 8,0 km/h (2 Bft) SO 135 1 min 0,000 mm 7,9 UV-I 664 W/m 14,3 C 25,4 C 14,5 km/h (3 Bft) 95,65 %
17.06.2019 13:12 24,4 C 25,8 C 16,1 C 20,6 C 63 % 49 % 1019,5 hPa 0,0 l/m 3,2 km/h (1 Bft) O-SO 112 1 min 0,000 mm 7,8 UV-I 243 W/m 14,3 C 25,8 C 9,7 km/h (2 Bft) 95,65 %
17.06.2019 13:11 24,4 C 25,9 C 16,1 C 20,6 C 63 % 47 % 1019,5 hPa 0,0 l/m 6,4 km/h (2 Bft) O-SO 112 1 min 0,000 mm 5,9 UV-I 243 W/m 13,7 C 25,9 C 12,9 km/h (3 Bft) 91,30 %
17.06.2019 13:10 24,4 C 25,9 C 16,7 C 20,6 C 63 % 47 % 1019,5 hPa 0,0 l/m 1,6 km/h (1 Bft) O-NO 67 1 min 0,000 mm 5,7 UV-I 772 W/m 13,7 C 25,9 C 6,4 km/h (2 Bft) 95,65 %
17.06.2019 13:09 24,4 C 25,9 C 17,2 C 20,6 C 63 % 48 % 1019,5 hPa 0,0 l/m 4,8 km/h (1 Bft) O-SO 112 1 min 0,000 mm 7,8 UV-I 772 W/m 14,0 C 25,9 C 12,9 km/h (3 Bft) 95,65 %
17.06.2019 13:08 24,4 C 25,9 C 17,2 C 20,6 C 63 % 48 % 1019,5 hPa 0,0 l/m 8,0 km/h (2 Bft) O-NO 67 1 min 0,000 mm 7,8 UV-I 768 W/m 14,0 C 25,5 C 11,3 km/h (2 Bft) 95,65 %
17.06.2019 13:07 24,4 C 25,9 C 17,2 C 20,6 C 63 % 49 % 1019,5 hPa 0,0 l/m 6,4 km/h (2 Bft) O 90 1 min 0,000 mm 7,8 UV-I 768 W/m 14,4 C 25,9 C 11,3 km/h (2 Bft) 91,30 %
17.06.2019 13:06 24,4 C 25,9 C 17,2 C 20,6 C 63 % 49 % 1019,5 hPa 0,0 l/m 8,0 km/h (2 Bft) SO 135 1 min 0,000 mm 7,9 UV-I 795 W/m 14,4 C 25,5 C 12,9 km/h (3 Bft) 100,00 %
17.06.2019 13:05 24,4 C 25,9 C 17,2 C 20,6 C 63 % 47 % 1019,5 hPa 0,0 l/m 8,0 km/h (2 Bft) O-SO 112 1 min 0,000 mm 7,9 UV-I 809 W/m 13,7 C 25,5 C 14,5 km/h (3 Bft) 86,96 %
17.06.2019 13:04 24,4 C 26,1 C 17,2 C 20,6 C 63 % 47 % 1019,5 hPa 0,0 l/m 4,8 km/h (1 Bft) O-SO 112 1 min 0,000 mm 7,8 UV-I 812 W/m 13,9 C 26,1 C 9,7 km/h (2 Bft) 95,65 %
17.06.2019 13:03 24,4 C 26,1 C 17,2 C 20,6 C 63 % 47 % 1019,5 hPa 0,0 l/m 9,7 km/h (2 Bft) O 90 1 min 0,000 mm 7,6 UV-I 779 W/m 13,9 C 25,4 C 14,5 km/h (3 Bft) 95,65 %
17.06.2019 13:02 24,4 C 26,1 C 16,7 C 20,6 C 63 % 48 % 1019,5 hPa 0,0 l/m 9,7 km/h (2 Bft) O-SO 112 1 min 0,000 mm 7,8 UV-I 847 W/m 14,2 C 25,4 C 12,9 km/h (3 Bft) 95,65 %
17.06.2019 13:01 24,4 C 26,1 C 16,7 C 20,6 C 63 % 47 % 1019,5 hPa 0,0 l/m 6,4 km/h (2 Bft) O-SO 112 1 min 0,000 mm 7,8 UV-I 842 W/m 13,9 C 26,1 C 12,9 km/h (3 Bft) 91,30 %
17.06.2019 13:00 24,4 C 26,1 C 17,2 C 20,6 C 63 % 47 % 1019,5 hPa 0,0 l/m 8,0 km/h (2 Bft) O-NO 67 1 min 0,610 mm 7,8 UV-I 853 W/m 13,9 C 25,8 C 14,5 km/h (3 Bft) 100,00 %
17.06.2019 12:59 24,4 C 26,0 C 17,2 C 20,6 C 63 % 47 % 1019,6 hPa 0,0 l/m 9,7 km/h (2 Bft) S-SO 157 1 min 0,000 mm 7,8 UV-I 872 W/m 13,8 C 25,3 C 12,9 km/h (3 Bft) 91,30 %
17.06.2019 12:58 24,4 C 25,9 C 16,7 C 20,6 C 63 % 49 % 1019,6 hPa 0,0 l/m 8,0 km/h (2 Bft) O-NO 67 1 min 0,000 mm 7,7 UV-I 875 W/m 14,4 C 25,5 C 14,5 km/h (3 Bft) 95,65 %
17.06.2019 12:57 24,4 C 25,8 C 16,7 C 20,6 C 63 % 48 % 1019,6 hPa 0,0 l/m 6,4 km/h (2 Bft) O-SO 112 1 min 0,000 mm 7,7 UV-I 881 W/m 13,9 C 25,8 C 11,3 km/h (2 Bft) 95,65 %
17.06.2019 12:56 24,4 C 25,8 C 16,7 C 20,6 C 63 % 48 % 1019,6 hPa 0,0 l/m 4,8 km/h (1 Bft) NO 45 1 min 0,000 mm 7,8 UV-I 889 W/m 13,9 C 25,8 C 8,0 km/h (2 Bft) 95,65 %
17.06.2019 12:55 24,4 C 25,8 C 16,7 C 20,6 C 63 % 48 % 1019,6 hPa 0,0 l/m 8,0 km/h (2 Bft) O-NO 67 1 min 0,000 mm 5,7 UV-I 889 W/m 13,9 C 25,4 C 14,5 km/h (3 Bft) 91,30 %
17.06.2019 12:54 24,4 C 25,7 C 17,2 C 20,6 C 63 % 49 % 1019,6 hPa 0,0 l/m 3,2 km/h (1 Bft) O-NO 67 1 min 0,000 mm 7,4 UV-I 889 W/m 14,2 C 25,7 C 9,7 km/h (2 Bft) 91,30 %
17.06.2019 12:53 24,4 C 25,7 C 17,2 C 20,6 C 63 % 48 % 1019,6 hPa 0,0 l/m 4,8 km/h (1 Bft) S-SO 157 1 min 0,000 mm 7,5 UV-I 886 W/m 13,9 C 25,7 C 8,0 km/h (2 Bft) 95,65 %
17.06.2019 12:52 24,4 C 25,8 C 16,7 C 20,6 C 63 % 48 % 1019,6 hPa 0,0 l/m 8,0 km/h (2 Bft) S-SO 157 1 min 0,000 mm 7,5 UV-I 904 W/m 13,9 C 25,4 C 11,3 km/h (2 Bft) 86,96 %
17.06.2019 12:51 24,4 C 25,8 C 17,2 C 20,6 C 63 % 48 % 1019,6 hPa 0,0 l/m 9,7 km/h (2 Bft) SO 135 1 min 0,000 mm 7,5 UV-I 891 W/m 13,9 C 25,1 C 14,5 km/h (3 Bft) 100,00 %
17.06.2019 12:50 24,4 C 25,9 C 17,2 C 20,6 C 63 % 48 % 1019,6 hPa 0,0 l/m 14,5 km/h (3 Bft) SO 135 1 min 0,000 mm 7,6 UV-I 882 W/m 14,0 C 24,5 C 20,9 km/h (4 Bft) 91,30 %
17.06.2019 12:49 24,4 C 25,9 C 17,2 C 20,0 C 63 % 48 % 1019,6 hPa 0,0 l/m 11,3 km/h (2 Bft) S-SO 157 1 min 0,000 mm 7,6 UV-I 891 W/m 14,0 C 24,9 C 17,7 km/h (3 Bft) 91,30 %
17.06.2019 12:48 24,4 C 25,9 C 17,2 C 20,0 C 63 % 47 % 1019,6 hPa 0,0 l/m 12,9 km/h (3 Bft) S-SO 157 1 min 0,000 mm 7,7 UV-I 918 W/m 13,7 C 24,7 C 20,9 km/h (4 Bft) 91,30 %
17.06.2019 12:47 24,4 C 25,9 C 17,2 C 20,0 C 63 % 47 % 1019,6 hPa 0,0 l/m 9,7 km/h (2 Bft) O 90 1 min 0,000 mm 7,7 UV-I 912 W/m 13,7 C 25,2 C 14,5 km/h (3 Bft) 100,00 %
17.06.2019 12:46 24,4 C 25,9 C 17,2 C 20,0 C 63 % 47 % 1019,6 hPa 0,0 l/m 12,9 km/h (3 Bft) SO 135 1 min 0,000 mm 7,7 UV-I 907 W/m 13,7 C 24,7 C 19,3 km/h (3 Bft) 86,96 %
17.06.2019 12:45 24,4 C 25,9 C 17,2 C 20,0 C 63 % 47 % 1019,6 hPa 0,0 l/m 11,3 km/h (2 Bft) O 90 1 min 0,000 mm 7,9 UV-I 928 W/m 13,7 C 24,9 C 16,1 km/h (3 Bft) 95,65 %
17.06.2019 12:44 24,4 C 26,0 C 17,2 C 20,0 C 63 % 47 % 1019,6 hPa 0,0 l/m 14,5 km/h (3 Bft) O-SO 112 1 min 0,000 mm 7,9 UV-I 919 W/m 13,8 C 24,6 C 20,9 km/h (4 Bft) 91,30 %
17.06.2019 12:43 24,4 C 26,1 C 17,2 C 20,0 C 63 % 47 % 1019,6 hPa 0,0 l/m 11,3 km/h (2 Bft) S 180 1 min 0,000 mm 7,9 UV-I 926 W/m 13,9 C 25,2 C 20,9 km/h (4 Bft) 95,65 %
17.06.2019 12:42 24,4 C 26,2 C 17,2 C 20,0 C 63 % 47 % 1019,6 hPa 0,0 l/m 12,9 km/h (3 Bft) O-SO 112 1 min 0,000 mm 7,8 UV-I 919 W/m 14,0 C 25,0 C 19,3 km/h (3 Bft) 86,96 %
17.06.2019 12:41 24,4 C 26,3 C 17,2 C 20,0 C 63 % 48 % 1019,6 hPa 0,0 l/m 11,3 km/h (2 Bft) O-SO 112 1 min 0,000 mm 7,8 UV-I 928 W/m 14,4 C 25,4 C 17,7 km/h (3 Bft) 100,00 %
17.06.2019 12:40 24,4 C 26,4 C 17,2 C 20,0 C 63 % 47 % 1019,6 hPa 0,0 l/m 9,7 km/h (2 Bft) SO 135 1 min 0,000 mm 7,9 UV-I 925 W/m 14,2 C 25,8 C 14,5 km/h (3 Bft) 91,30 %
17.06.2019 12:39 24,4 C 26,4 C 17,2 C 20,0 C 63 % 47 % 1019,6 hPa 0,0 l/m 3,2 km/h (1 Bft) S 180 1 min 0,000 mm 7,7 UV-I 925 W/m 14,2 C 26,4 C 9,7 km/h (2 Bft) 86,96 %
17.06.2019 12:38 24,4 C 26,3 C 17,2 C 20,0 C 63 % 49 % 1019,6 hPa 0,0 l/m 3,2 km/h (1 Bft) O-NO 67 1 min 0,000 mm 7,8 UV-I 926 W/m 14,7 C 26,3 C 8,0 km/h (2 Bft) 100,00 %
17.06.2019 12:37 24,4 C 26,2 C 17,2 C 20,0 C 63 % 47 % 1019,6 hPa 0,0 l/m 3,2 km/h (1 Bft) O-NO 67 1 min 0,000 mm 7,8 UV-I 947 W/m 14,0 C 26,2 C 6,4 km/h (2 Bft) 86,96 %
17.06.2019 12:36 24,4 C 26,1 C 17,2 C 20,0 C 63 % 48 % 1019,6 hPa 0,0 l/m 4,8 km/h (1 Bft) O-NO 67 1 min 0,000 mm 7,9 UV-I 919 W/m 14,2 C 26,1 C 9,7 km/h (2 Bft) 91,30 %
17.06.2019 12:35 24,4 C 26,0 C 17,2 C 20,0 C 63 % 48 % 1019,6 hPa 0,0 l/m 6,4 km/h (2 Bft) O 90 1 min 0,000 mm 7,9 UV-I 919 W/m 14,1 C 26,0 C 17,7 km/h (3 Bft) 91,30 %
17.06.2019 12:34 24,4 C 26,0 C 17,8 C 20,0 C 63 % 49 % 1019,6 hPa 0,0 l/m 4,8 km/h (1 Bft) O-NO 67 1 min 0,000 mm 6,9 UV-I 919 W/m 14,4 C 26,0 C 11,3 km/h (2 Bft) 95,65 %
17.06.2019 12:33 24,4 C 26,0 C 17,8 C 20,0 C 63 % 48 % 1019,6 hPa 0,0 l/m 8,0 km/h (2 Bft) O-NO 67 1 min 0,000 mm 7,2 UV-I 919 W/m 14,1 C 25,7 C 14,5 km/h (3 Bft) 95,65 %
17.06.2019 12:32 24,4 C 25,9 C 17,8 C 20,0 C 63 % 47 % 1019,6 hPa 0,0 l/m 3,2 km/h (1 Bft) O-NO 67 1 min 0,000 mm 7,9 UV-I 919 W/m 13,7 C 25,9 C 11,3 km/h (2 Bft) 95,65 %
17.06.2019 12:31 24,4 C 25,9 C 17,2 C 20,0 C 63 % 46 % 1019,6 hPa 0,0 l/m 9,7 km/h (2 Bft) NO 45 1 min 0,000 mm 7,7 UV-I 969 W/m 13,4 C 25,2 C 14,5 km/h (3 Bft) 95,65 %
17.06.2019 12:30 24,4 C 25,8 C 17,2 C 20,0 C 63 % 48 % 1019,6 hPa 0,0 l/m 4,8 km/h (1 Bft) O-NO 67 1 min 0,000 mm 7,6 UV-I 891 W/m 13,9 C 25,8 C 12,9 km/h (3 Bft) 91,30 %
17.06.2019 12:29 24,4 C 25,6 C 17,2 C 20,0 C 63 % 49 % 1019,6 hPa 0,0 l/m 4,8 km/h (1 Bft) O-NO 67 1 min 0,000 mm 7,8 UV-I 939 W/m 14,1 C 25,6 C 11,3 km/h (2 Bft) 100,00 %
17.06.2019 12:28 24,4 C 25,6 C 17,2 C 20,0 C 63 % 49 % 1019,6 hPa 0,0 l/m 9,7 km/h (2 Bft) O-NO 67 1 min 0,000 mm 7,8 UV-I 933 W/m 14,1 C 24,9 C 14,5 km/h (3 Bft) 95,65 %
17.06.2019 12:27 24,4 C 25,6 C 17,2 C 20,0 C 63 % 49 % 1019,6 hPa 0,0 l/m 11,3 km/h (2 Bft) O-SO 112 1 min 0,000 mm 7,7 UV-I 926 W/m 14,1 C 24,6 C 20,9 km/h (4 Bft) 95,65 %
17.06.2019 12:26 24,4 C 25,6 C 17,2 C 20,0 C 63 % 48 % 1019,6 hPa 0,0 l/m 6,4 km/h (2 Bft) O-SO 112 1 min 0,000 mm 7,8 UV-I 940 W/m 13,8 C 25,6 C 11,3 km/h (2 Bft) 100,00 %
17.06.2019 12:25 24,4 C 25,7 C 17,2 C 20,0 C 63 % 48 % 1019,6 hPa 0,0 l/m 9,7 km/h (2 Bft) S-SO 157 1 min 0,000 mm 7,6 UV-I 921 W/m 13,9 C 25,0 C 12,9 km/h (3 Bft) 95,65 %
17.06.2019 12:24 24,4 C 25,6 C 17,8 C 20,0 C 63 % 49 % 1019,6 hPa 0,0 l/m 9,7 km/h (2 Bft) SO 135 1 min 0,000 mm 7,6 UV-I 863 W/m 14,1 C 24,9 C 14,5 km/h (3 Bft) 95,65 %
17.06.2019 12:23 24,4 C 25,5 C 17,8 C 20,0 C 63 % 49 % 1019,6 hPa 0,0 l/m 9,7 km/h (2 Bft) O-SO 112 1 min 0,000 mm 7,6 UV-I 888 W/m 14,0 C 24,8 C 14,5 km/h (3 Bft) 100,00 %
17.06.2019 12:22 24,4 C 25,3 C 17,8 C 20,0 C 63 % 49 % 1019,6 hPa 0,0 l/m 4,8 km/h (1 Bft) O 90 1 min 0,000 mm 7,5 UV-I 893 W/m 13,8 C 25,3 C 9,7 km/h (2 Bft) 95,65 %
17.06.2019 12:21 24,4 C 25,4 C 17,8 C 20,0 C 63 % 49 % 1019,6 hPa 0,0 l/m 1,6 km/h (1 Bft) O-NO 67 1 min 0,000 mm 7,6 UV-I 921 W/m 13,9 C 25,4 C 6,4 km/h (2 Bft) 95,65 %
17.06.2019 12:20 24,4 C 25,4 C 17,2 C 20,0 C 63 % 48 % 1019,6 hPa 0,0 l/m 1,6 km/h (1 Bft) SO 135 1 min 0,000 mm 7,7 UV-I 932 W/m 13,6 C 25,4 C 6,4 km/h (2 Bft) 100,00 %
17.06.2019 12:19 24,4 C 25,4 C 17,8 C 20,0 C 63 % 48 % 1019,6 hPa 0,0 l/m 8,0 km/h (2 Bft) SO 135 1 min 0,000 mm 7,7 UV-I 928 W/m 13,6 C 25,0 C 12,9 km/h (3 Bft) 95,65 %
17.06.2019 12:18 24,4 C 25,3 C 17,8 C 20,0 C 63 % 49 % 1019,6 hPa 0,0 l/m 9,7 km/h (2 Bft) O 90 1 min 0,000 mm 7,6 UV-I 912 W/m 13,8 C 24,6 C 12,9 km/h (3 Bft) 95,65 %
17.06.2019 12:17 24,4 C 25,2 C 17,2 C 20,0 C 63 % 50 % 1019,6 hPa 0,0 l/m 9,7 km/h (2 Bft) O-SO 112 1 min 0,000 mm 7,6 UV-I 916 W/m 14,0 C 24,4 C 14,5 km/h (3 Bft) 100,00 %
17.06.2019 12:16 24,4 C 25,1 C 17,2 C 20,0 C 63 % 50 % 1019,6 hPa 0,0 l/m 14,5 km/h (3 Bft) SO 135 1 min 0,000 mm 7,7 UV-I 928 W/m 13,9 C 23,5 C 19,3 km/h (3 Bft) 95,65 %
17.06.2019 12:15 24,4 C 25,1 C 17,2 C 20,0 C 63 % 50 % 1019,6 hPa 0,0 l/m 8,0 km/h (2 Bft) SO 135 1 min 0,000 mm 7,6 UV-I 930 W/m 13,9 C 24,7 C 14,5 km/h (3 Bft) 95,65 %
17.06.2019 12:14 24,4 C 25,2 C 17,2 C 20,0 C 63 % 50 % 1019,7 hPa 0,0 l/m 3,2 km/h (1 Bft) O-SO 112 1 min 0,000 mm 7,6 UV-I 939 W/m 14,0 C 25,2 C 8,0 km/h (2 Bft) 100,00 %
17.06.2019 12:13 24,4 C 25,3 C 17,2 C 20,0 C 63 % 47 % 1019,7 hPa 0,0 l/m 1,6 km/h (1 Bft) O-NO 67 1 min 0,000 mm 5,9 UV-I 937 W/m 13,2 C 25,3 C 4,8 km/h (1 Bft) 86,96 %
17.06.2019 12:12 24,4 C 25,3 C 17,2 C 20,0 C 63 % 49 % 1019,7 hPa 0,0 l/m 4,8 km/h (1 Bft) O 90 1 min 0,000 mm 7,6 UV-I 937 W/m 13,8 C 25,3 C 9,7 km/h (2 Bft) 95,65 %
17.06.2019 12:11 24,4 C 25,4 C 17,2 C 20,0 C 63 % 50 % 1019,7 hPa 0,0 l/m 9,7 km/h (2 Bft) O-SO 112 1 min 0,000 mm 7,5 UV-I 937 W/m 14,2 C 24,7 C 14,5 km/h (3 Bft) 100,00 %
17.06.2019 12:10 24,4 C 25,5 C 17,2 C 20,0 C 63 % 49 % 1019,7 hPa 0,0 l/m 14,5 km/h (3 Bft) O-SO 112 1 min 0,000 mm 7,6 UV-I 935 W/m 14,0 C 24,0 C 19,3 km/h (3 Bft) 95,65 %
17.06.2019 12:09 24,4 C 25,6 C 17,2 C 20,0 C 63 % 49 % 1019,7 hPa 0,0 l/m 8,0 km/h (2 Bft) O-NO 67 1 min 0,000 mm 7,5 UV-I 932 W/m 14,1 C 25,2 C 19,3 km/h (3 Bft) 95,65 %
17.06.2019 12:08 24,4 C 25,6 C 17,2 C 20,0 C 63 % 48 % 1019,7 hPa 0,0 l/m 4,8 km/h (1 Bft) O-NO 67 1 min 0,000 mm 6,1 UV-I 932 W/m 13,8 C 25,6 C 9,7 km/h (2 Bft) 100,00 %
17.06.2019 12:07 24,4 C 25,6 C 17,8 C 20,0 C 63 % 51 % 1019,7 hPa 0,0 l/m 11,3 km/h (2 Bft) O 90 1 min 0,000 mm 7,2 UV-I 932 W/m 14,7 C 24,6 C 17,7 km/h (3 Bft) 95,65 %
17.06.2019 12:06 24,4 C 25,5 C 17,8 C 20,0 C 63 % 48 % 1019,7 hPa 0,0 l/m 4,8 km/h (1 Bft) O-NO 67 1 min 0,000 mm 7,3 UV-I 932 W/m 13,7 C 25,5 C 19,3 km/h (3 Bft) 91,30 %
17.06.2019 12:05 24,4 C 25,5 C 17,2 C 20,0 C 63 % 48 % 1019,7 hPa 0,0 l/m 8,0 km/h (2 Bft) O 90 1 min 0,000 mm 7,4 UV-I 935 W/m 13,7 C 25,1 C 14,5 km/h (3 Bft) 95,65 %
17.06.2019 12:04 24,4 C 25,4 C 17,2 C 20,0 C 63 % 48 % 1019,7 hPa 0,0 l/m 11,3 km/h (2 Bft) O-SO 112 1 min 0,000 mm 7,5 UV-I 935 W/m 13,6 C 24,4 C 16,1 km/h (3 Bft) 95,65 %
17.06.2019 12:03 24,4 C 25,3 C 17,2 C 20,0 C 63 % 47 % 1019,7 hPa 0,0 l/m 4,8 km/h (1 Bft) O 90 1 min 0,000 mm 7,5 UV-I 937 W/m 13,2 C 25,3 C 9,7 km/h (2 Bft) 91,30 %
17.06.2019 12:02 24,4 C 25,2 C 17,2 C 20,0 C 64 % 48 % 1019,7 hPa 0,0 l/m 9,7 km/h (2 Bft) O-SO 112 1 min 0,000 mm 7,5 UV-I 933 W/m 13,4 C 24,4 C 20,9 km/h (4 Bft) 100,00 %
17.06.2019 12:01 24,4 C 25,3 C 17,2 C 20,0 C 63 % 47 % 1019,7 hPa 0,0 l/m 8,0 km/h (2 Bft) SO 135 1 min 0,000 mm 7,5 UV-I 923 W/m 13,2 C 24,9 C 12,9 km/h (3 Bft) 91,30 %
17.06.2019 12:00 24,4 C 25,3 C 17,2 C 20,0 C 63 % 46 % 1019,7 hPa 0,0 l/m 6,4 km/h (2 Bft) S-SO 157 1 min 0,584 mm 7,5 UV-I 918 W/m 12,8 C 25,3 C 9,7 km/h (2 Bft) 95,65 %
17.06.2019 11:59 24,4 C 25,3 C 17,2 C 20,0 C 64 % 47 % 1019,7 hPa 0,0 l/m 6,4 km/h (2 Bft) O-NO 67 1 min 0,000 mm 7,4 UV-I 900 W/m 13,2 C 25,3 C 12,9 km/h (3 Bft) 95,65 %
17.06.2019 11:58 24,4 C 25,3 C 17,2 C 20,0 C 63 % 49 % 1019,7 hPa 0,0 l/m 11,3 km/h (2 Bft) O 90 1 min 0,000 mm 7,4 UV-I 912 W/m 13,8 C 24,3 C 17,7 km/h (3 Bft) 95,65 %
17.06.2019 11:57 24,4 C 25,2 C 17,2 C 20,0 C 63 % 49 % 1019,7 hPa 0,0 l/m 6,4 km/h (2 Bft) O 90 1 min 0,000 mm 7,4 UV-I 916 W/m 13,7 C 25,2 C 19,3 km/h (3 Bft) 91,30 %
17.06.2019 11:56 24,4 C 25,2 C 17,2 C 20,0 C 63 % 49 % 1019,7 hPa 0,0 l/m 3,2 km/h (1 Bft) O 90 1 min 0,000 mm 7,3 UV-I 918 W/m 13,7 C 25,2 C 11,3 km/h (2 Bft) 91,30 %
17.06.2019 11:55 24,4 C 25,1 C 17,2 C 20,0 C 63 % 50 % 1019,7 hPa 0,0 l/m 8,0 km/h (2 Bft) O-NO 67 1 min 0,000 mm 7,3 UV-I 912 W/m 13,9 C 24,7 C 12,9 km/h (3 Bft) 100,00 %
17.06.2019 11:54 24,4 C 25,0 C 17,2 C 20,0 C 63 % 49 % 1019,7 hPa 0,0 l/m 3,2 km/h (1 Bft) O-NO 67 1 min 0,000 mm 7,3 UV-I 916 W/m 13,5 C 25,0 C 9,7 km/h (2 Bft) 91,30 %
17.06.2019 11:53 24,4 C 24,9 C 17,2 C 20,0 C 63 % 49 % 1019,7 hPa 0,0 l/m 4,8 km/h (1 Bft) N-NO 22 1 min 0,000 mm 7,3 UV-I 912 W/m 13,4 C 24,9 C 11,3 km/h (2 Bft) 95,65 %
17.06.2019 11:52 24,4 C 24,9 C 17,2 C 20,0 C 63 % 49 % 1019,7 hPa 0,0 l/m 9,7 km/h (2 Bft) O-SO 112 1 min 0,000 mm 7,3 UV-I 904 W/m 13,4 C 24,1 C 19,3 km/h (3 Bft) 95,65 %
17.06.2019 11:51 24,4 C 24,9 C 17,2 C 20,0 C 63 % 49 % 1019,7 hPa 0,0 l/m 6,4 km/h (2 Bft) S-SO 157 1 min 0,000 mm 7,2 UV-I 895 W/m 13,4 C 24,9 C 11,3 km/h (2 Bft) 91,30 %
17.06.2019 11:50 24,4 C 24,9 C 17,2 C 20,0 C 63 % 49 % 1019,7 hPa 0,0 l/m 4,8 km/h (1 Bft) O-SO 112 1 min 0,000 mm 7,3 UV-I 905 W/m 13,4 C 24,9 C 9,7 km/h (2 Bft) 91,30 %
17.06.2019 11:49 24,4 C 24,9 C 17,2 C 20,0 C 63 % 48 % 1019,7 hPa 0,0 l/m 9,7 km/h (2 Bft) SO 135 1 min 0,000 mm 7,3 UV-I 905 W/m 13,1 C 24,1 C 12,9 km/h (3 Bft) 100,00 %
17.06.2019 11:48 24,4 C 25,0 C 17,8 C 20,0 C 63 % 49 % 1019,7 hPa 0,0 l/m 6,4 km/h (2 Bft) O-SO 112 1 min 0,000 mm 7,3 UV-I 886 W/m 13,5 C 25,0 C 12,9 km/h (3 Bft) 91,30 %
17.06.2019 11:47 24,4 C 25,0 C 17,2 C 20,0 C 63 % 48 % 1019,7 hPa 0,0 l/m 6,4 km/h (2 Bft) O 90 1 min 0,000 mm 7,1 UV-I 830 W/m 13,2 C 25,0 C 14,5 km/h (3 Bft) 95,65 %
17.06.2019 11:46 24,4 C 25,0 C 17,8 C 20,0 C 63 % 48 % 1019,7 hPa 0,0 l/m 9,7 km/h (2 Bft) SO 135 1 min 0,000 mm 7,1 UV-I 853 W/m 13,2 C 24,2 C 14,5 km/h (3 Bft) 95,65 %
17.06.2019 11:45 24,4 C 25,0 C 17,2 C 20,0 C 63 % 49 % 1019,7 hPa 0,0 l/m 11,3 km/h (2 Bft) O-SO 112 1 min 0,000 mm 7,0 UV-I 904 W/m 13,5 C 23,9 C 16,1 km/h (3 Bft) 91,30 %
17.06.2019 11:44 24,4 C 25,1 C 17,2 C 20,0 C 63 % 50 % 1020,0 hPa 0,0 l/m 3,2 km/h (1 Bft) O-SO 112 1 min 0,000 mm 7,2 UV-I 905 W/m 13,9 C 25,1 C 9,7 km/h (2 Bft) 91,30 %
17.06.2019 11:43 24,4 C 25,1 C 17,2 C 20,0 C 63 % 49 % 1020,0 hPa 0,0 l/m 1,6 km/h (1 Bft) O-SO 112 1 min 0,000 mm 7,2 UV-I 893 W/m 13,6 C 25,1 C 6,4 km/h (2 Bft) 95,65 %
17.06.2019 11:42 24,4 C 25,2 C 17,2 C 20,0 C 63 % 49 % 1020,0 hPa 0,0 l/m 11,3 km/h (2 Bft) O-SO 112 1 min 0,000 mm 7,1 UV-I 872 W/m 13,7 C 24,1 C 17,7 km/h (3 Bft) 95,65 %
17.06.2019 11:41 24,4 C 25,1 C 17,2 C 20,0 C 63 % 49 % 1020,0 hPa 0,0 l/m 9,7 km/h (2 Bft) SO 135 1 min 0,000 mm 7,0 UV-I 853 W/m 13,6 C 24,3 C 16,1 km/h (3 Bft) 91,30 %
17.06.2019 11:40 24,4 C 25,0 C 17,2 C 20,0 C 64 % 48 % 1020,0 hPa 0,0 l/m 6,4 km/h (2 Bft) O 90 1 min 0,000 mm 6,9 UV-I 844 W/m 13,2 C 25,0 C 11,3 km/h (2 Bft) 100,00 %
17.06.2019 11:39 24,4 C 25,0 C 17,2 C 20,0 C 63 % 48 % 1020,0 hPa 0,0 l/m 9,7 km/h (2 Bft) O-SO 112 1 min 0,000 mm 6,9 UV-I 828 W/m 13,2 C 24,2 C 14,5 km/h (3 Bft) 91,30 %
17.06.2019 11:38 24,4 C 24,9 C 17,2 C 20,0 C 63 % 51 % 1020,0 hPa 0,0 l/m 6,4 km/h (2 Bft) O-NO 67 1 min 0,000 mm 6,9 UV-I 877 W/m 14,1 C 24,9 C 16,1 km/h (3 Bft) 95,65 %
17.06.2019 11:37 24,4 C 24,9 C 16,7 C 20,0 C 63 % 49 % 1020,0 hPa 0,0 l/m 6,4 km/h (2 Bft) O-SO 112 1 min 0,000 mm 6,9 UV-I 877 W/m 13,4 C 24,9 C 12,9 km/h (3 Bft) 95,65 %
17.06.2019 11:36 24,4 C 24,8 C 16,7 C 20,0 C 63 % 50 % 1020,0 hPa 0,0 l/m 9,7 km/h (2 Bft) SO 135 1 min 0,000 mm 7,0 UV-I 886 W/m 13,7 C 24,0 C 14,5 km/h (3 Bft) 95,65 %
17.06.2019 11:35 24,4 C 24,6 C 16,7 C 20,0 C 63 % 50 % 1020,0 hPa 0,0 l/m 4,8 km/h (1 Bft) S-SO 157 1 min 0,000 mm 7,0 UV-I 881 W/m 13,5 C 24,6 C 8,0 km/h (2 Bft) 86,96 %
17.06.2019 11:34 24,4 C 24,6 C 16,7 C 20,0 C 63 % 49 % 1020,0 hPa 0,0 l/m 3,2 km/h (1 Bft) SO 135 1 min 0,000 mm 7,0 UV-I 875 W/m 13,2 C 24,6 C 9,7 km/h (2 Bft) 95,65 %
17.06.2019 11:33 24,4 C 24,5 C 16,7 C 20,0 C 63 % 50 % 1020,0 hPa 0,0 l/m 8,0 km/h (2 Bft) O-SO 112 1 min 0,000 mm 7,0 UV-I 888 W/m 13,4 C 24,1 C 14,5 km/h (3 Bft) 95,65 %
17.06.2019 11:32 24,4 C 24,5 C 16,7 C 20,0 C 63 % 50 % 1020,0 hPa 0,0 l/m 8,0 km/h (2 Bft) SO 135 1 min 0,000 mm 7,0 UV-I 886 W/m 13,4 C 24,1 C 14,5 km/h (3 Bft) 95,65 %
17.06.2019 11:31 24,4 C 24,4 C 16,7 C 20,0 C 63 % 50 % 1020,0 hPa 0,0 l/m 8,0 km/h (2 Bft) SO 135 1 min 0,000 mm 6,7 UV-I 840 W/m 13,3 C 24,0 C 12,9 km/h (3 Bft) 100,00 %
17.06.2019 11:30 24,4 C 24,4 C 16,7 C 20,0 C 63 % 49 % 1020,0 hPa 0,0 l/m 8,0 km/h (2 Bft) SO 135 1 min 0,000 mm 6,9 UV-I 868 W/m 13,0 C 24,0 C 12,9 km/h (3 Bft) 95,65 %
17.06.2019 11:29 24,4 C 24,4 C 16,7 C 20,0 C 63 % 51 % 1020,1 hPa 0,0 l/m 4,8 km/h (1 Bft) SO 135 1 min 0,000 mm 6,9 UV-I 868 W/m 13,6 C 24,4 C 14,5 km/h (3 Bft) 95,65 %
17.06.2019 11:28 24,4 C 24,4 C 16,7 C 20,0 C 63 % 49 % 1020,1 hPa 0,0 l/m 3,2 km/h (1 Bft) O-NO 67 1 min 0,000 mm 7,0 UV-I 875 W/m 13,0 C 24,4 C 8,0 km/h (2 Bft) 100,00 %
17.06.2019 11:27 24,4 C 24,6 C 16,7 C 20,0 C 63 % 48 % 1020,1 hPa 0,0 l/m 11,3 km/h (2 Bft) O-SO 112 1 min 0,000 mm 7,0 UV-I 877 W/m 12,8 C 23,5 C 14,5 km/h (3 Bft) 95,65 %
17.06.2019 11:26 24,4 C 24,7 C 16,7 C 20,0 C 63 % 48 % 1020,1 hPa 0,0 l/m 4,8 km/h (1 Bft) S-SO 157 1 min 0,000 mm 6,9 UV-I 872 W/m 12,9 C 24,7 C 9,7 km/h (2 Bft) 95,65 %
17.06.2019 11:25 24,4 C 24,7 C 16,7 C 20,0 C 63 % 48 % 1020,1 hPa 0,0 l/m 9,7 km/h (2 Bft) S-SO 157 1 min 0,000 mm 7,0 UV-I 881 W/m 12,9 C 23,9 C 20,9 km/h (4 Bft) 100,00 %
17.06.2019 11:24 24,4 C 24,6 C 16,7 C 20,0 C 63 % 50 % 1020,1 hPa 0,0 l/m 14,5 km/h (3 Bft) O-SO 112 1 min 0,000 mm 6,9 UV-I 835 W/m 13,5 C 22,9 C 20,9 km/h (4 Bft) 95,65 %
17.06.2019 11:23 24,4 C 24,5 C 17,2 C 20,0 C 63 % 51 % 1020,1 hPa 0,0 l/m 6,4 km/h (2 Bft) O-NO 67 1 min 0,000 mm 6,9 UV-I 868 W/m 13,7 C 24,5 C 17,7 km/h (3 Bft) 95,65 %
17.06.2019 11:22 24,4 C 24,4 C 17,2 C 20,0 C 63 % 51 % 1020,1 hPa 0,0 l/m 3,2 km/h (1 Bft) O-NO 67 1 min 0,000 mm 6,9 UV-I 865 W/m 13,6 C 24,4 C 9,7 km/h (2 Bft) 100,00 %
17.06.2019 11:21 24,4 C 24,3 C 16,7 C 20,0 C 63 % 52 % 1020,1 hPa 0,0 l/m 11,3 km/h (2 Bft) O-NO 67 1 min 0,000 mm 6,9 UV-I 870 W/m 13,8 C 23,1 C 17,7 km/h (3 Bft) 95,65 %
17.06.2019 11:20 24,4 C 24,3 C 17,2 C 20,0 C 63 % 51 % 1020,1 hPa 0,0 l/m 3,2 km/h (1 Bft) O 90 1 min 0,000 mm 6,8 UV-I 868 W/m 13,5 C 24,3 C 11,3 km/h (2 Bft) 95,65 %
17.06.2019 11:19 24,4 C 24,2 C 16,7 C 20,0 C 63 % 53 % 1020,1 hPa 0,0 l/m 1,6 km/h (1 Bft) O 90 1 min 0,000 mm 6,9 UV-I 867 W/m 14,0 C 24,2 C 9,7 km/h (2 Bft) 100,00 %
17.06.2019 11:18 24,4 C 24,3 C 16,7 C 20,0 C 63 % 51 % 1020,1 hPa 0,0 l/m 3,2 km/h (1 Bft) S-SO 157 1 min 0,000 mm 6,8 UV-I 858 W/m 13,5 C 24,3 C 8,0 km/h (2 Bft) 95,65 %
17.06.2019 11:17 24,4 C 24,3 C 16,7 C 20,0 C 63 % 54 % 1020,1 hPa 0,0 l/m 6,4 km/h (2 Bft) SO 135 1 min 0,000 mm 6,8 UV-I 849 W/m 14,4 C 24,3 C 9,7 km/h (2 Bft) 95,65 %
17.06.2019 11:16 24,4 C 24,3 C 16,7 C 20,0 C 63 % 51 % 1020,1 hPa 0,0 l/m 3,2 km/h (1 Bft) SO 135 1 min 0,000 mm 6,7 UV-I 838 W/m 13,5 C 24,3 C 9,7 km/h (2 Bft) 100,00 %
17.06.2019 11:15 24,4 C 24,4 C 16,7 C 20,0 C 63 % 50 % 1020,1 hPa 0,0 l/m 1,6 km/h (1 Bft) SO 135 1 min 0,000 mm 6,7 UV-I 835 W/m 13,3 C 24,4 C 6,4 km/h (2 Bft) 95,65 %
17.06.2019 11:14 24,4 C 24,5 C 16,1 C 20,0 C 63 % 52 % 1020,1 hPa 0,0 l/m 6,4 km/h (2 Bft) O-SO 112 1 min 0,000 mm 6,7 UV-I 831 W/m 14,0 C 24,5 C 9,7 km/h (2 Bft) 95,65 %
17.06.2019 11:13 24,4 C 24,5 C 16,1 C 20,0 C 63 % 52 % 1020,1 hPa 0,0 l/m 6,4 km/h (2 Bft) NO 45 1 min 0,000 mm 6,6 UV-I 817 W/m 14,0 C 24,5 C 8,0 km/h (2 Bft) 95,65 %
17.06.2019 11:12 24,4 C 24,5 C 16,1 C 20,0 C 63 % 52 % 1020,1 hPa 0,0 l/m 6,4 km/h (2 Bft) O-NO 67 1 min 0,000 mm 6,6 UV-I 803 W/m 14,0 C 24,5 C 19,3 km/h (3 Bft) 95,65 %
17.06.2019 11:11 24,4 C 24,6 C 16,1 C 20,0 C 63 % 50 % 1020,1 hPa 0,0 l/m 6,4 km/h (2 Bft) O-NO 67 1 min 0,000 mm 6,6 UV-I 793 W/m 13,5 C 24,6 C 11,3 km/h (2 Bft) 95,65 %
17.06.2019 11:10 24,4 C 24,7 C 16,1 C 20,0 C 63 % 50 % 1020,1 hPa 0,0 l/m 12,9 km/h (3 Bft) O-NO 67 1 min 0,000 mm 6,6 UV-I 788 W/m 13,6 C 23,3 C 19,3 km/h (3 Bft) 91,30 %
17.06.2019 11:09 24,4 C 24,7 C 15,6 C 20,0 C 63 % 52 % 1020,1 hPa 0,0 l/m 6,4 km/h (2 Bft) SO 135 1 min 0,000 mm 6,4 UV-I 751 W/m 14,2 C 24,7 C 11,3 km/h (2 Bft) 95,65 %
17.06.2019 11:08 24,4 C 24,8 C 15,6 C 20,0 C 63 % 50 % 1020,1 hPa 0,0 l/m 0,0 km/h (0 Bft) O-NO 67 1 min 0,000 mm 6,4 UV-I 735 W/m 13,7 C 24,8 C 3,2 km/h (1 Bft) 95,65 %
17.06.2019 11:07 24,4 C 24,7 C 15,6 C 20,0 C 63 % 53 % 1020,1 hPa 0,0 l/m 4,8 km/h (1 Bft) O-NO 67 1 min 0,000 mm 6,4 UV-I 749 W/m 14,5 C 24,7 C 8,0 km/h (2 Bft) 95,65 %
17.06.2019 11:06 24,4 C 24,6 C 15,6 C 20,0 C 63 % 51 % 1020,1 hPa 0,0 l/m 4,8 km/h (1 Bft) O 90 1 min 0,000 mm 6,4 UV-I 738 W/m 13,8 C 24,6 C 9,7 km/h (2 Bft) 100,00 %
17.06.2019 11:05 24,4 C 24,5 C 15,0 C 20,0 C 63 % 52 % 1020,1 hPa 0,0 l/m 3,2 km/h (1 Bft) O-SO 112 1 min 0,000 mm 6,4 UV-I 726 W/m 14,0 C 24,5 C 9,7 km/h (2 Bft) 95,65 %
17.06.2019 11:04 24,4 C 24,4 C 15,0 C 20,0 C 63 % 50 % 1020,1 hPa 0,0 l/m 4,8 km/h (1 Bft) O-NO 67 1 min 0,000 mm 6,4 UV-I 724 W/m 13,3 C 24,4 C 11,3 km/h (2 Bft) 91,30 %
17.06.2019 11:03 24,4 C 24,4 C 15,0 C 20,0 C 64 % 51 % 1020,1 hPa 0,0 l/m 3,2 km/h (1 Bft) O-NO 67 1 min 0,000 mm 6,2 UV-I 714 W/m 13,6 C 24,4 C 9,7 km/h (2 Bft) 100,00 %
17.06.2019 11:02 24,4 C 24,4 C 14,4 C 20,0 C 63 % 51 % 1020,1 hPa 0,0 l/m 8,0 km/h (2 Bft) O-NO 67 1 min 0,000 mm 6,0 UV-I 610 W/m 13,6 C 24,0 C 12,9 km/h (3 Bft) 95,65 %
17.06.2019 11:01 24,4 C 24,5 C 13,9 C 20,0 C 63 % 52 % 1020,1 hPa 0,0 l/m 1,6 km/h (1 Bft) O-NO 67 1 min 0,000 mm 6,1 UV-I 682 W/m 14,0 C 24,5 C 8,0 km/h (2 Bft) 95,65 %
17.06.2019 11:00 24,3 C 24,5 C 13,9 C 20,0 C 63 % 50 % 1020,1 hPa 0,0 l/m 0,0 km/h (0 Bft) O-NO 67 1 min 0,432 mm 6,0 UV-I 169 W/m 13,4 C 24,5 C 3,2 km/h (1 Bft) 100,00 %
17.06.2019 10:59 24,3 C 24,6 C 13,9 C 20,0 C 63 % 49 % 1020,1 hPa 0,0 l/m 3,2 km/h (1 Bft) O-NO 67 1 min 0,000 mm 5,8 UV-I 169 W/m 13,2 C 24,6 C 6,4 km/h (2 Bft) 91,30 %
17.06.2019 10:58 24,3 C 24,6 C 15,0 C 20,0 C 63 % 49 % 1020,1 hPa 0,0 l/m 4,8 km/h (1 Bft) O 90 1 min 0,000 mm 5,3 UV-I 169 W/m 13,2 C 24,6 C 9,7 km/h (2 Bft) 95,65 %
17.06.2019 10:57 24,3 C 24,6 C 15,0 C 20,0 C 63 % 49 % 1020,1 hPa 0,0 l/m 8,0 km/h (2 Bft) O-NO 67 1 min 0,000 mm 5,9 UV-I 580 W/m 13,2 C 24,2 C 12,9 km/h (3 Bft) 100,00 %
17.06.2019 10:56 24,3 C 24,6 C 15,0 C 20,0 C 63 % 49 % 1020,1 hPa 0,0 l/m 8,0 km/h (2 Bft) O 90 1 min 0,000 mm 5,9 UV-I 548 W/m 13,2 C 24,2 C 16,1 km/h (3 Bft) 91,30 %
17.06.2019 10:55 24,3 C 24,6 C 15,0 C 20,0 C 63 % 49 % 1020,1 hPa 0,0 l/m 3,2 km/h (1 Bft) O 90 1 min 0,000 mm 5,9 UV-I 563 W/m 13,2 C 24,6 C 8,0 km/h (2 Bft) 95,65 %
17.06.2019 10:54 24,3 C 24,6 C 15,0 C 20,0 C 63 % 49 % 1020,1 hPa 0,0 l/m 8,0 km/h (2 Bft) O-SO 112 1 min 0,000 mm 5,9 UV-I 564 W/m 13,2 C 24,2 C 14,5 km/h (3 Bft) 100,00 %
17.06.2019 10:53 24,3 C 24,7 C 15,6 C 20,0 C 63 % 50 % 1020,1 hPa 0,0 l/m 8,0 km/h (2 Bft) S-SO 157 1 min 0,000 mm 5,9 UV-I 552 W/m 13,6 C 24,3 C 11,3 km/h (2 Bft) 91,30 %
17.06.2019 10:52 24,3 C 24,7 C 15,6 C 20,0 C 63 % 50 % 1020,1 hPa 0,0 l/m 4,8 km/h (1 Bft) S-SO 157 1 min 0,000 mm 5,9 UV-I 568 W/m 13,6 C 24,7 C 8,0 km/h (2 Bft) 95,65 %
17.06.2019 10:51 24,3 C 24,7 C 15,6 C 20,0 C 63 % 50 % 1020,1 hPa 0,0 l/m 6,4 km/h (2 Bft) S-SO 157 1 min 0,000 mm 5,9 UV-I 559 W/m 13,6 C 24,7 C 9,7 km/h (2 Bft) 100,00 %
17.06.2019 10:50 24,3 C 24,7 C 15,6 C 20,0 C 63 % 51 % 1020,1 hPa 0,0 l/m 1,6 km/h (1 Bft) O-NO 67 1 min 0,000 mm 5,8 UV-I 557 W/m 13,9 C 24,7 C 12,9 km/h (3 Bft) 95,65 %
17.06.2019 10:49 24,3 C 24,6 C 15,6 C 20,0 C 63 % 52 % 1020,1 hPa 0,0 l/m 1,6 km/h (1 Bft) O-NO 67 1 min 0,000 mm 5,9 UV-I 580 W/m 14,1 C 24,6 C 4,8 km/h (1 Bft) 95,65 %
17.06.2019 10:48 24,3 C 24,6 C 15,6 C 20,0 C 63 % 49 % 1020,1 hPa 0,0 l/m 3,2 km/h (1 Bft) O-NO 67 1 min 0,000 mm 5,9 UV-I 571 W/m 13,2 C 24,6 C 8,0 km/h (2 Bft) 100,00 %
17.06.2019 10:47 24,3 C 24,6 C 15,6 C 20,0 C 63 % 48 % 1020,1 hPa 0,0 l/m 1,6 km/h (1 Bft) NO 45 1 min 0,000 mm 5,9 UV-I 578 W/m 12,8 C 24,6 C 6,4 km/h (2 Bft) 95,65 %
17.06.2019 10:46 24,3 C 24,6 C 15,6 C 20,0 C 63 % 49 % 1020,1 hPa 0,0 l/m 3,2 km/h (1 Bft) NO 45 1 min 0,000 mm 5,9 UV-I 603 W/m 13,2 C 24,6 C 8,0 km/h (2 Bft) 95,65 %
17.06.2019 10:45 24,3 C 24,5 C 15,6 C 20,0 C 63 % 51 % 1020,1 hPa 0,0 l/m 4,8 km/h (1 Bft) O-NO 67 1 min 0,000 mm 5,9 UV-I 610 W/m 13,7 C 24,5 C 9,7 km/h (2 Bft) 95,65 %
17.06.2019 10:44 24,3 C 24,4 C 15,6 C 20,0 C 63 % 51 % 1020,2 hPa 0,0 l/m 6,4 km/h (2 Bft) O 90 1 min 0,000 mm 5,9 UV-I 615 W/m 13,6 C 24,4 C 12,9 km/h (3 Bft) 91,30 %
17.06.2019 10:43 24,3 C 24,4 C 15,0 C 20,0 C 63 % 51 % 1020,2 hPa 0,0 l/m 6,4 km/h (2 Bft) O 90 1 min 0,000 mm 5,9 UV-I 624 W/m 13,6 C 24,4 C 11,3 km/h (2 Bft) 91,30 %
17.06.2019 10:42 24,3 C 24,3 C 15,0 C 20,0 C 63 % 51 % 1020,2 hPa 0,0 l/m 6,4 km/h (2 Bft) O-NO 67 1 min 0,000 mm 5,9 UV-I 640 W/m 13,5 C 24,3 C 14,5 km/h (3 Bft) 100,00 %
17.06.2019 10:41 24,3 C 24,3 C 15,0 C 20,0 C 63 % 51 % 1020,2 hPa 0,0 l/m 9,7 km/h (2 Bft) O-SO 112 1 min 0,000 mm 5,9 UV-I 640 W/m 13,5 C 23,5 C 14,5 km/h (3 Bft) 91,30 %
17.06.2019 10:40 24,3 C 24,2 C 14,4 C 20,0 C 63 % 50 % 1020,2 hPa 0,0 l/m 9,7 km/h (2 Bft) O 90 1 min 0,000 mm 5,8 UV-I 666 W/m 13,1 C 23,3 C 16,1 km/h (3 Bft) 95,65 %
17.06.2019 10:39 24,3 C 24,2 C 14,4 C 20,0 C 63 % 50 % 1020,2 hPa 0,0 l/m 11,3 km/h (2 Bft) O-SO 112 1 min 0,000 mm 5,8 UV-I 691 W/m 13,1 C 23,0 C 14,5 km/h (3 Bft) 100,00 %
17.06.2019 10:38 24,3 C 24,2 C 14,4 C 20,0 C 63 % 51 % 1020,2 hPa 0,0 l/m 3,2 km/h (1 Bft) SO 135 1 min 0,000 mm 5,8 UV-I 689 W/m 13,4 C 24,2 C 16,1 km/h (3 Bft) 95,65 %
17.06.2019 10:37 24,3 C 24,2 C 14,4 C 20,0 C 63 % 51 % 1020,2 hPa 0,0 l/m 3,2 km/h (1 Bft) SO 135 1 min 0,000 mm 5,8 UV-I 684 W/m 13,4 C 24,2 C 8,0 km/h (2 Bft) 95,65 %
17.06.2019 10:36 24,3 C 24,1 C 13,9 C 20,0 C 63 % 51 % 1020,2 hPa 0,0 l/m 3,2 km/h (1 Bft) S-SO 157 1 min 0,000 mm 5,7 UV-I 698 W/m 13,3 C 24,1 C 8,0 km/h (2 Bft) 100,00 %
17.06.2019 10:35 24,3 C 24,1 C 13,9 C 20,0 C 63 % 51 % 1020,2 hPa 0,0 l/m 8,0 km/h (2 Bft) SO 135 1 min 0,000 mm 5,7 UV-I 707 W/m 13,3 C 23,7 C 12,9 km/h (3 Bft) 95,65 %
17.06.2019 10:34 24,3 C 24,0 C 13,3 C 20,0 C 63 % 51 % 1020,2 hPa 0,0 l/m 6,4 km/h (2 Bft) SO 135 1 min 0,000 mm 5,6 UV-I 726 W/m 13,2 C 24,0 C 11,3 km/h (2 Bft) 95,65 %
17.06.2019 10:33 24,3 C 24,0 C 12,8 C 20,0 C 63 % 51 % 1020,2 hPa 0,0 l/m 1,6 km/h (1 Bft) O-SO 112 1 min 0,000 mm 5,6 UV-I 714 W/m 13,2 C 24,0 C 4,8 km/h (1 Bft) 100,00 %
17.06.2019 10:32 24,3 C 24,0 C 12,8 C 20,0 C 63 % 51 % 1020,2 hPa 0,0 l/m 4,8 km/h (1 Bft) O-SO 112 1 min 0,000 mm 5,4 UV-I 707 W/m 13,2 C 24,0 C 11,3 km/h (2 Bft) 95,65 %
17.06.2019 10:31 24,3 C 24,0 C 12,2 C 20,0 C 63 % 51 % 1020,2 hPa 0,0 l/m 6,4 km/h (2 Bft) S-SO 157 1 min 0,000 mm 5,4 UV-I 677 W/m 13,2 C 24,0 C 11,3 km/h (2 Bft) 95,65 %
17.06.2019 10:30 24,3 C 23,9 C 11,7 C 20,0 C 63 % 52 % 1020,2 hPa 0,0 l/m 4,8 km/h (1 Bft) O-SO 112 1 min 0,000 mm 5,4 UV-I 666 W/m 13,4 C 23,9 C 12,9 km/h (3 Bft) 100,00 %
17.06.2019 10:29 24,3 C 23,9 C 11,7 C 20,0 C 63 % 51 % 1020,2 hPa 0,0 l/m 8,0 km/h (2 Bft) O-SO 112 1 min 0,000 mm 5,3 UV-I 610 W/m 13,1 C 23,4 C 12,9 km/h (3 Bft) 95,65 %
17.06.2019 10:28 24,3 C 23,9 C 11,7 C 20,0 C 63 % 52 % 1020,2 hPa 0,0 l/m 3,2 km/h (1 Bft) O-SO 112 1 min 0,000 mm 5,3 UV-I 647 W/m 13,4 C 23,9 C 8,0 km/h (2 Bft) 95,65 %
17.06.2019 10:27 24,3 C 23,8 C 11,1 C 20,0 C 63 % 52 % 1020,2 hPa 0,0 l/m 3,2 km/h (1 Bft) O-SO 112 1 min 0,000 mm 5,3 UV-I 677 W/m 13,3 C 23,8 C 8,0 km/h (2 Bft) 95,65 %
17.06.2019 10:26 24,3 C 23,8 C 10,6 C 20,0 C 63 % 51 % 1020,2 hPa 0,0 l/m 3,2 km/h (1 Bft) O-NO 67 1 min 0,000 mm 5,2 UV-I 677 W/m 13,0 C 23,8 C 8,0 km/h (2 Bft) 95,65 %
17.06.2019 10:25 24,3 C 23,8 C 10,0 C 20,0 C 63 % 51 % 1020,2 hPa 0,0 l/m 3,2 km/h (1 Bft) O-SO 112 1 min 0,000 mm 5,3 UV-I 677 W/m 13,0 C 23,8 C 8,0 km/h (2 Bft) 95,65 %
17.06.2019 10:24 24,3 C 23,7 C 10,0 C 20,0 C 63 % 51 % 1020,2 hPa 0,0 l/m 4,8 km/h (1 Bft) O-NO 67 1 min 0,000 mm 5,3 UV-I 636 W/m 13,0 C 23,7 C 9,7 km/h (2 Bft) 100,00 %
17.06.2019 10:23 24,3 C 23,7 C 10,0 C 20,0 C 63 % 52 % 1020,2 hPa 0,0 l/m 9,7 km/h (2 Bft) O 90 1 min 0,000 mm 5,4 UV-I 700 W/m 13,2 C 22,8 C 17,7 km/h (3 Bft) 95,65 %
17.06.2019 10:22 24,3 C 23,7 C 10,0 C 20,0 C 63 % 53 % 1020,2 hPa 0,0 l/m 4,8 km/h (1 Bft) S-SO 157 1 min 0,000 mm 5,4 UV-I 758 W/m 13,5 C 23,7 C 8,0 km/h (2 Bft) 95,65 %
17.06.2019 10:21 24,3 C 23,7 C 10,0 C 20,0 C 63 % 52 % 1020,2 hPa 0,0 l/m 3,2 km/h (1 Bft) S-SO 157 1 min 0,000 mm 5,5 UV-I 758 W/m 13,2 C 23,7 C 6,4 km/h (2 Bft) 91,30 %
17.06.2019 10:20 24,3 C 23,6 C 10,0 C 20,0 C 63 % 53 % 1020,2 hPa 0,0 l/m 3,2 km/h (1 Bft) S-SO 157 1 min 0,000 mm 5,4 UV-I 745 W/m 13,4 C 23,6 C 8,0 km/h (2 Bft) 95,65 %
17.06.2019 10:19 24,3 C 23,6 C 9,4 C 20,0 C 63 % 54 % 1020,2 hPa 0,0 l/m 3,2 km/h (1 Bft) SO 135 1 min 0,000 mm 5,4 UV-I 751 W/m 13,7 C 23,6 C 9,7 km/h (2 Bft) 91,30 %
17.06.2019 10:18 24,3 C 23,6 C 8,9 C 20,0 C 63 % 56 % 1020,2 hPa 0,0 l/m 1,6 km/h (1 Bft) SO 135 1 min 0,000 mm 5,4 UV-I 747 W/m 14,3 C 23,6 C 6,4 km/h (2 Bft) 95,65 %
17.06.2019 10:17 24,3 C 23,5 C 8,3 C 20,0 C 63 % 55 % 1020,2 hPa 0,0 l/m 3,2 km/h (1 Bft) O-SO 112 1 min 0,000 mm 5,4 UV-I 726 W/m 13,9 C 23,5 C 17,7 km/h (3 Bft) 91,30 %
17.06.2019 10:16 24,3 C 23,4 C 8,3 C 20,0 C 63 % 56 % 1020,2 hPa 0,0 l/m 8,0 km/h (2 Bft) O-SO 112 1 min 0,000 mm 5,2 UV-I 708 W/m 14,1 C 22,9 C 17,7 km/h (3 Bft) 91,30 %
17.06.2019 10:15 24,3 C 23,4 C 8,3 C 20,0 C 63 % 56 % 1020,2 hPa 0,0 l/m 3,2 km/h (1 Bft) SO 135 1 min 0,000 mm 5,3 UV-I 738 W/m 14,1 C 23,4 C 6,4 km/h (2 Bft) 95,65 %
17.06.2019 10:14 24,3 C 23,3 C 8,3 C 20,0 C 63 % 56 % 1020,2 hPa 0,0 l/m 1,6 km/h (1 Bft) O-SO 112 1 min 0,000 mm 5,3 UV-I 740 W/m 14,0 C 23,3 C 6,4 km/h (2 Bft) 95,65 %
17.06.2019 10:13 24,3 C 23,3 C 7,8 C 20,0 C 63 % 56 % 1020,2 hPa 0,0 l/m 3,2 km/h (1 Bft) O-SO 112 1 min 0,000 mm 5,2 UV-I 740 W/m 14,0 C 23,3 C 8,0 km/h (2 Bft) 91,30 %
17.06.2019 10:12 24,3 C 23,3 C 7,8 C 20,0 C 64 % 56 % 1020,2 hPa 0,0 l/m 8,0 km/h (2 Bft) O 90 1 min 0,000 mm 5,2 UV-I 737 W/m 14,0 C 22,8 C 11,3 km/h (2 Bft) 86,96 %
17.06.2019 10:11 24,3 C 23,2 C 7,8 C 20,0 C 63 % 56 % 1020,2 hPa 0,0 l/m 4,8 km/h (1 Bft) SO 135 1 min 0,000 mm 5,1 UV-I 722 W/m 13,9 C 23,2 C 8,0 km/h (2 Bft) 100,00 %
17.06.2019 10:10 24,3 C 23,2 C 7,8 C 20,0 C 63 % 55 % 1020,2 hPa 0,0 l/m 6,4 km/h (2 Bft) SO 135 1 min 0,000 mm 5,1 UV-I 717 W/m 13,6 C 23,2 C 11,3 km/h (2 Bft) 91,30 %
17.06.2019 10:09 24,3 C 23,2 C 7,8 C 20,0 C 63 % 56 % 1020,2 hPa 0,0 l/m 9,7 km/h (2 Bft) O-SO 112 1 min 0,000 mm 5,1 UV-I 679 W/m 13,9 C 22,3 C 12,9 km/h (3 Bft) 95,65 %
17.06.2019 10:08 24,3 C 23,1 C 7,8 C 20,0 C 63 % 56 % 1020,2 hPa 0,0 l/m 9,7 km/h (2 Bft) O-SO 112 1 min 0,000 mm 5,1 UV-I 703 W/m 13,8 C 22,1 C 12,9 km/h (3 Bft) 95,65 %
17.06.2019 10:07 24,3 C 23,1 C 7,8 C 20,0 C 63 % 56 % 1020,2 hPa 0,0 l/m 8,0 km/h (2 Bft) SO 135 1 min 0,000 mm 5,1 UV-I 680 W/m 13,8 C 22,6 C 12,9 km/h (3 Bft) 95,65 %
17.06.2019 10:06 24,3 C 23,1 C 7,8 C 20,0 C 63 % 57 % 1020,2 hPa 0,0 l/m 6,4 km/h (2 Bft) S-SO 157 1 min 0,000 mm 5,1 UV-I 664 W/m 14,1 C 23,1 C 12,9 km/h (3 Bft) 91,30 %
17.06.2019 10:05 24,3 C 23,0 C 7,8 C 20,0 C 63 % 59 % 1020,2 hPa 0,0 l/m 8,0 km/h (2 Bft) O-SO 112 1 min 0,000 mm 5,0 UV-I 670 W/m 14,5 C 22,5 C 16,1 km/h (3 Bft) 95,65 %
17.06.2019 10:04 24,3 C 22,9 C 7,8 C 20,0 C 63 % 58 % 1020,2 hPa 0,0 l/m 3,2 km/h (1 Bft) S-SO 157 1 min 0,000 mm 5,0 UV-I 668 W/m 14,2 C 22,9 C 8,0 km/h (2 Bft) 95,65 %
17.06.2019 10:03 24,3 C 22,8 C 7,8 C 20,0 C 63 % 58 % 1020,2 hPa 0,0 l/m 4,8 km/h (1 Bft) SO 135 1 min 0,000 mm 5,0 UV-I 664 W/m 14,1 C 22,8 C 8,0 km/h (2 Bft) 91,30 %
17.06.2019 10:02 24,3 C 22,7 C 7,2 C 20,0 C 63 % 59 % 1020,2 hPa 0,0 l/m 4,8 km/h (1 Bft) O 90 1 min 0,000 mm 5,0 UV-I 694 W/m 14,3 C 22,7 C 11,3 km/h (2 Bft) 95,65 %
17.06.2019 10:01 24,3 C 22,7 C 7,2 C 20,0 C 63 % 59 % 1020,2 hPa 0,0 l/m 3,2 km/h (1 Bft) O 90 1 min 0,000 mm 4,9 UV-I 693 W/m 14,3 C 22,7 C 8,0 km/h (2 Bft) 86,96 %
17.06.2019 10:00 24,3 C 22,6 C 7,2 C 20,0 C 63 % 58 % 1020,2 hPa 0,0 l/m 6,4 km/h (2 Bft) SO 135 1 min 0,254 mm 4,9 UV-I 703 W/m 13,9 C 22,6 C 12,9 km/h (3 Bft) 95,65 %
17.06.2019 09:59 24,3 C 22,6 C 7,2 C 20,0 C 63 % 58 % 1020,4 hPa 0,0 l/m 8,0 km/h (2 Bft) O-SO 112 1 min 0,000 mm 4,9 UV-I 705 W/m 13,9 C 22,1 C 12,9 km/h (3 Bft) 95,65 %
17.06.2019 09:58 24,3 C 22,5 C 7,2 C 20,0 C 63 % 57 % 1020,4 hPa 0,0 l/m 1,6 km/h (1 Bft) O-NO 67 1 min 0,000 mm 4,9 UV-I 694 W/m 13,5 C 22,5 C 4,8 km/h (1 Bft) 95,65 %
17.06.2019 09:57 24,3 C 22,4 C 7,2 C 20,0 C 63 % 58 % 1020,4 hPa 0,0 l/m 9,7 km/h (2 Bft) O-NO 67 1 min 0,000 mm 4,8 UV-I 636 W/m 13,7 C 21,4 C 14,5 km/h (3 Bft) 91,30 %
17.06.2019 09:56 24,3 C 22,4 C 7,2 C 20,0 C 63 % 58 % 1020,4 hPa 0,0 l/m 8,0 km/h (2 Bft) SO 135 1 min 0,000 mm 4,8 UV-I 619 W/m 13,7 C 21,9 C 11,3 km/h (2 Bft) 100,00 %
17.06.2019 09:55 24,3 C 22,3 C 7,2 C 20,0 C 63 % 60 % 1020,4 hPa 0,0 l/m 4,8 km/h (1 Bft) S-SO 157 1 min 0,000 mm 4,8 UV-I 591 W/m 14,2 C 22,3 C 9,7 km/h (2 Bft) 86,96 %
17.06.2019 09:54 24,3 C 22,3 C 7,2 C 20,0 C 64 % 61 % 1020,4 hPa 0,0 l/m 3,2 km/h (1 Bft) O-NO 67 1 min 0,000 mm 4,8 UV-I 622 W/m 14,4 C 22,3 C 8,0 km/h (2 Bft) 91,30 %
17.06.2019 09:53 24,3 C 22,2 C 7,2 C 20,0 C 63 % 60 % 1020,4 hPa 0,0 l/m 4,8 km/h (1 Bft) O 90 1 min 0,000 mm 4,7 UV-I 552 W/m 14,1 C 22,2 C 9,7 km/h (2 Bft) 100,00 %
17.06.2019 09:52 24,3 C 22,2 C 7,2 C 20,0 C 63 % 60 % 1020,4 hPa 0,0 l/m 1,6 km/h (1 Bft) O 90 1 min 0,000 mm 4,7 UV-I 559 W/m 14,1 C 22,2 C 6,4 km/h (2 Bft) 91,30 %
17.06.2019 09:51 24,3 C 22,1 C 7,2 C 20,0 C 63 % 61 % 1020,4 hPa 0,0 l/m 3,2 km/h (1 Bft) O-SO 112 1 min 0,000 mm 4,7 UV-I 601 W/m 14,2 C 22,1 C 8,0 km/h (2 Bft) 91,30 %
17.06.2019 09:50 24,3 C 22,1 C 7,2 C 20,0 C 63 % 62 % 1020,4 hPa 0,0 l/m 4,8 km/h (1 Bft) O-NO 67 1 min 0,000 mm 4,7 UV-I 568 W/m 14,5 C 22,1 C 9,7 km/h (2 Bft) 100,00 %
17.06.2019 09:49 24,3 C 22,0 C 7,2 C 20,0 C 63 % 61 % 1020,4 hPa 0,0 l/m 1,6 km/h (1 Bft) O-NO 67 1 min 0,000 mm 4,7 UV-I 629 W/m 14,1 C 22,0 C 6,4 km/h (2 Bft) 95,65 %
17.06.2019 09:48 24,3 C 21,9 C 7,2 C 20,0 C 63 % 60 % 1020,4 hPa 0,0 l/m 1,6 km/h (1 Bft) SO 135 1 min 0,000 mm 4,7 UV-I 617 W/m 13,8 C 21,9 C 4,8 km/h (1 Bft) 95,65 %
17.06.2019 09:47 24,3 C 21,9 C 7,2 C 20,0 C 63 % 60 % 1020,4 hPa 0,0 l/m 6,4 km/h (2 Bft) SO 135 1 min 0,000 mm 4,7 UV-I 638 W/m 13,8 C 21,9 C 16,1 km/h (3 Bft) 100,00 %
17.06.2019 09:46 24,3 C 21,8 C 7,2 C 20,0 C 63 % 62 % 1020,4 hPa 0,0 l/m 8,0 km/h (2 Bft) S-SO 157 1 min 0,000 mm 4,7 UV-I 635 W/m 14,2 C 21,2 C 12,9 km/h (3 Bft) 95,65 %
17.06.2019 09:45 24,3 C 21,7 C 7,2 C 20,0 C 63 % 62 % 1020,4 hPa 0,0 l/m 3,2 km/h (1 Bft) SO 135 1 min 0,000 mm 4,6 UV-I 603 W/m 14,1 C 21,7 C 6,4 km/h (2 Bft) 95,65 %
17.06.2019 09:44 24,3 C 21,7 C 7,2 C 20,0 C 63 % 63 % 1020,6 hPa 0,0 l/m 4,8 km/h (1 Bft) SO 135 1 min 0,000 mm 4,6 UV-I 621 W/m 14,3 C 21,7 C 9,7 km/h (2 Bft) 100,00 %
17.06.2019 09:43 24,3 C 21,6 C 7,2 C 20,0 C 63 % 63 % 1020,6 hPa 0,0 l/m 6,4 km/h (2 Bft) SO 135 1 min 0,000 mm 4,6 UV-I 622 W/m 14,2 C 21,6 C 9,7 km/h (2 Bft) 95,65 %
17.06.2019 09:42 24,3 C 21,6 C 7,2 C 20,0 C 63 % 62 % 1020,6 hPa 0,0 l/m 8,0 km/h (2 Bft) S-SO 157 1 min 0,000 mm 4,7 UV-I 629 W/m 14,0 C 21,0 C 11,3 km/h (2 Bft) 95,65 %
17.06.2019 09:41 24,3 C 21,5 C 7,2 C 20,0 C 63 % 62 % 1020,6 hPa 0,0 l/m 4,8 km/h (1 Bft) S-SO 157 1 min 0,000 mm 4,6 UV-I 621 W/m 13,9 C 21,5 C 11,3 km/h (2 Bft) 100,00 %
17.06.2019 09:40 24,3 C 21,4 C 7,2 C 20,0 C 63 % 63 % 1020,6 hPa 0,0 l/m 3,2 km/h (1 Bft) SO 135 1 min 0,000 mm 4,6 UV-I 388 W/m 14,1 C 21,4 C 8,0 km/h (2 Bft) 95,65 %
17.06.2019 09:39 24,3 C 21,3 C 7,2 C 20,0 C 63 % 64 % 1020,6 hPa 0,0 l/m 3,2 km/h (1 Bft) O-SO 112 1 min 0,000 mm 4,5 UV-I 388 W/m 14,2 C 21,3 C 6,4 km/h (2 Bft) 95,65 %
17.06.2019 09:38 24,3 C 21,3 C 7,2 C 20,0 C 63 % 65 % 1020,6 hPa 0,0 l/m 3,2 km/h (1 Bft) O-SO 112 1 min 0,000 mm 4,5 UV-I 388 W/m 14,4 C 21,3 C 8,0 km/h (2 Bft) 100,00 %
17.06.2019 09:37 24,3 C 21,2 C 7,2 C 20,0 C 63 % 64 % 1020,6 hPa 0,0 l/m 3,2 km/h (1 Bft) O-SO 112 1 min 0,000 mm 4,5 UV-I 207 W/m 14,1 C 21,2 C 14,5 km/h (3 Bft) 91,30 %
17.06.2019 09:36 24,3 C 21,2 C 7,2 C 20,0 C 63 % 65 % 1020,6 hPa 0,0 l/m 6,4 km/h (2 Bft) O-SO 112 1 min 0,000 mm 4,6 UV-I 207 W/m 14,4 C 21,2 C 12,9 km/h (3 Bft) 95,65 %
17.06.2019 09:35 24,3 C 21,2 C 7,2 C 20,0 C 64 % 65 % 1020,6 hPa 0,0 l/m 9,7 km/h (2 Bft) O-SO 112 1 min 0,000 mm 4,8 UV-I 207 W/m 14,4 C 20,1 C 14,5 km/h (3 Bft) 100,00 %
17.06.2019 09:34 24,3 C 21,1 C 7,2 C 20,0 C 63 % 65 % 1020,6 hPa 0,0 l/m 1,6 km/h (1 Bft) O-SO 112 1 min 0,000 mm 4,8 UV-I 207 W/m 14,3 C 21,1 C 4,8 km/h (1 Bft) 95,65 %
17.06.2019 09:33 24,3 C 21,0 C 7,2 C 20,0 C 63 % 65 % 1020,6 hPa 0,0 l/m 4,8 km/h (1 Bft) S-SO 157 1 min 0,000 mm 4,7 UV-I 207 W/m 14,2 C 21,0 C 9,7 km/h (2 Bft) 91,30 %
17.06.2019 09:32 24,3 C 21,0 C 7,8 C 20,0 C 63 % 67 % 1020,6 hPa 0,0 l/m 1,6 km/h (1 Bft) O-NO 67 1 min 0,000 mm 4,7 UV-I 207 W/m 14,6 C 21,0 C 4,8 km/h (1 Bft) 100,00 %
17.06.2019 09:31 24,3 C 20,9 C 7,8 C 20,0 C 63 % 67 % 1020,6 hPa 0,0 l/m 3,2 km/h (1 Bft) SO 135 1 min 0,000 mm 4,6 UV-I 346 W/m 14,5 C 20,9 C 9,7 km/h (2 Bft) 95,65 %
17.06.2019 09:30 24,3 C 20,9 C 7,8 C 20,0 C 63 % 67 % 1020,6 hPa 0,0 l/m 3,2 km/h (1 Bft) O 90 1 min 0,000 mm 4,8 UV-I 346 W/m 14,5 C 20,9 C 6,4 km/h (2 Bft) 91,30 %
17.06.2019 09:29 24,3 C 20,8 C 7,8 C 20,0 C 63 % 68 % 1020,7 hPa 0,0 l/m 1,6 km/h (1 Bft) O 90 1 min 0,000 mm 4,8 UV-I 178 W/m 14,7 C 20,8 C 6,4 km/h (2 Bft) 95,65 %
17.06.2019 09:28 24,3 C 20,8 C 7,8 C 20,0 C 63 % 67 % 1020,7 hPa 0,0 l/m 3,2 km/h (1 Bft) O 90 0 min 0,000 mm 4,8 UV-I 121 W/m 14,4 C 20,8 C 9,7 km/h (2 Bft) 95,65 %
17.06.2019 09:27 24,3 C 20,7 C 7,8 C 20,0 C 63 % 68 % 1020,7 hPa 0,0 l/m 3,2 km/h (1 Bft) O-NO 67 0 min 0,000 mm 4,8 UV-I 130 W/m 14,6 C 20,7 C 6,4 km/h (2 Bft) 95,65 %
17.06.2019 09:26 24,3 C 20,7 C 7,8 C 20,0 C 63 % 71 % 1020,7 hPa 0,0 l/m 3,2 km/h (1 Bft) NO 45 0 min 0,000 mm 4,8 UV-I 121 W/m 15,2 C 20,7 C 6,4 km/h (2 Bft) 95,65 %
17.06.2019 09:25 24,3 C 20,6 C 7,8 C 20,0 C 63 % 71 % 1020,7 hPa 0,0 l/m 3,2 km/h (1 Bft) O-SO 112 0 min 0,000 mm 4,7 UV-I 113 W/m 15,2 C 20,6 C 8,0 km/h (2 Bft) 95,65 %
17.06.2019 09:24 24,3 C 20,6 C 7,2 C 20,0 C 63 % 70 % 1020,7 hPa 0,0 l/m 0,0 km/h (0 Bft) O-NO 67 0 min 0,000 mm 4,4 UV-I 151 W/m 14,9 C 20,6 C 3,2 km/h (1 Bft) 95,65 %
17.06.2019 09:23 24,3 C 20,5 C 7,2 C 20,0 C 63 % 71 % 1020,7 hPa 0,0 l/m 1,6 km/h (1 Bft) O-NO 67 1 min 0,000 mm 4,5 UV-I 156 W/m 15,1 C 20,5 C 4,8 km/h (1 Bft) 95,65 %
17.06.2019 09:22 24,3 C 20,4 C 7,2 C 20,0 C 63 % 72 % 1020,7 hPa 0,0 l/m 4,8 km/h (1 Bft) O 90 0 min 0,000 mm 4,5 UV-I 128 W/m 15,2 C 20,4 C 8,0 km/h (2 Bft) 100,00 %
17.06.2019 09:21 24,3 C 20,4 C 7,2 C 20,0 C 63 % 71 % 1020,7 hPa 0,0 l/m 1,6 km/h (1 Bft) O 90 0 min 0,000 mm 4,7 UV-I 128 W/m 15,0 C 20,4 C 4,8 km/h (1 Bft) 95,65 %
17.06.2019 09:20 24,3 C 20,3 C 6,7 C 20,0 C 63 % 71 % 1020,7 hPa 0,0 l/m 0,0 km/h (0 Bft) O-NO 67 0 min 0,000 mm 4,7 UV-I 116 W/m 14,9 C 20,3 C 1,6 km/h (1 Bft) 95,65 %
17.06.2019 09:19 24,3 C 20,3 C 6,7 C 20,0 C 63 % 71 % 1020,7 hPa 0,0 l/m 0,0 km/h (0 Bft) O-NO 67 0 min 0,000 mm 4,5 UV-I 105 W/m 14,9 C 20,3 C 1,6 km/h (1 Bft) 100,00 %
17.06.2019 09:18 24,3 C 20,3 C 6,7 C 20,0 C 63 % 73 % 1020,7 hPa 0,0 l/m 1,6 km/h (1 Bft) O-NO 67 0 min 0,000 mm 4,5 UV-I 105 W/m 15,3 C 20,3 C 4,8 km/h (1 Bft) 95,65 %
17.06.2019 09:17 24,3 C 20,2 C 6,7 C 20,0 C 63 % 73 % 1020,7 hPa 0,0 l/m 1,6 km/h (1 Bft) O 90 0 min 0,000 mm 4,5 UV-I 105 W/m 15,2 C 20,2 C 4,8 km/h (1 Bft) 91,30 %
17.06.2019 09:16 24,3 C 20,2 C 6,7 C 20,0 C 63 % 73 % 1020,7 hPa 0,0 l/m 6,4 km/h (2 Bft) O 90 0 min 0,000 mm 4,6 UV-I 105 W/m 15,2 C 20,2 C 9,7 km/h (2 Bft) 100,00 %
17.06.2019 09:15 24,3 C 20,1 C 6,7 C 20,0 C 63 % 73 % 1020,7 hPa 0,0 l/m 1,6 km/h (1 Bft) O-NO 67 0 min 0,000 mm 4,6 UV-I 123 W/m 15,1 C 20,1 C 4,8 km/h (1 Bft) 91,30 %
17.06.2019 09:14 24,3 C 20,1 C 6,7 C 20,0 C 63 % 73 % 1020,7 hPa 0,0 l/m 0,0 km/h (0 Bft) NO 45 0 min 0,000 mm 4,4 UV-I 132 W/m 15,1 C 20,1 C 3,2 km/h (1 Bft) 91,30 %
17.06.2019 09:13 24,3 C 20,1 C 6,7 C 20,0 C 63 % 73 % 1020,7 hPa 0,0 l/m 1,6 km/h (1 Bft) N 360 0 min 0,000 mm 4,4 UV-I 107 W/m 15,1 C 20,1 C 3,2 km/h (1 Bft) 100,00 %
17.06.2019 09:12 24,3 C 20,1 C 6,7 C 20,0 C 63 % 73 % 1020,7 hPa 0,0 l/m 1,6 km/h (1 Bft) N 360 0 min 0,000 mm 4,4 UV-I 128 W/m 15,1 C 20,1 C 3,2 km/h (1 Bft) 95,65 %
17.06.2019 09:11 24,3 C 20,0 C 6,7 C 20,0 C 63 % 73 % 1020,7 hPa 0,0 l/m 1,6 km/h (1 Bft) N 360 1 min 0,000 mm 4,4 UV-I 174 W/m 15,0 C 20,0 C 4,8 km/h (1 Bft) 95,65 %
17.06.2019 09:10 24,3 C 20,0 C 6,7 C 20,0 C 63 % 73 % 1020,7 hPa 0,0 l/m 3,2 km/h (1 Bft) NO 45 1 min 0,000 mm 4,4 UV-I 174 W/m 15,0 C 20,0 C 8,0 km/h (2 Bft) 95,65 %
17.06.2019 09:09 24,3 C 19,9 C 6,7 C 20,0 C 63 % 74 % 1020,7 hPa 0,0 l/m 3,2 km/h (1 Bft) NO 45 1 min 0,000 mm 4,4 UV-I 234 W/m 15,1 C 19,9 C 8,0 km/h (2 Bft) 95,65 %
17.06.2019 09:08 24,3 C 19,9 C 6,7 C 20,0 C 63 % 74 % 1020,7 hPa 0,0 l/m 3,2 km/h (1 Bft) N-NO 22 1 min 0,000 mm 4,1 UV-I 315 W/m 15,1 C 19,9 C 8,0 km/h (2 Bft) 91,30 %
17.06.2019 09:07 24,3 C 19,9 C 6,7 C 20,0 C 63 % 74 % 1020,7 hPa 0,0 l/m 1,6 km/h (1 Bft) O-NO 67 1 min 0,000 mm 4,1 UV-I 490 W/m 15,1 C 19,9 C 8,0 km/h (2 Bft) 100,00 %
17.06.2019 09:06 24,3 C 19,9 C 6,7 C 20,0 C 63 % 74 % 1020,7 hPa 0,0 l/m 0,0 km/h (0 Bft) O-NO 67 1 min 0,000 mm 4,1 UV-I 490 W/m 15,1 C 19,9 C 1,6 km/h (1 Bft) 91,30 %
17.06.2019 09:05 24,3 C 19,8 C 6,7 C 20,0 C 63 % 75 % 1020,7 hPa 0,0 l/m 0,0 km/h (0 Bft) O-NO 67 1 min 0,000 mm 4,1 UV-I 550 W/m 15,2 C 19,8 C 1,6 km/h (1 Bft) 95,65 %
17.06.2019 09:04 24,3 C 19,8 C 6,7 C 20,0 C 63 % 75 % 1020,7 hPa 0,0 l/m 3,2 km/h (1 Bft) O-NO 67 1 min 0,000 mm 4,2 UV-I 541 W/m 15,2 C 19,8 C 6,4 km/h (2 Bft) 95,65 %
17.06.2019 09:03 24,3 C 19,7 C 6,7 C 20,0 C 63 % 75 % 1020,7 hPa 0,0 l/m 4,8 km/h (1 Bft) SO 135 1 min 0,000 mm 4,3 UV-I 548 W/m 15,1 C 19,7 C 6,4 km/h (2 Bft) 95,65 %
17.06.2019 09:02 24,3 C 19,7 C 6,7 C 20,0 C 63 % 75 % 1020,7 hPa 0,0 l/m 1,6 km/h (1 Bft) O-SO 112 1 min 0,000 mm 4,3 UV-I 185 W/m 15,1 C 19,7 C 8,0 km/h (2 Bft) 91,30 %
17.06.2019 09:01 24,3 C 19,7 C 6,7 C 20,0 C 63 % 75 % 1020,7 hPa 0,0 l/m 1,6 km/h (1 Bft) O-NO 67 1 min 0,000 mm 4,3 UV-I 185 W/m 15,1 C 19,7 C 4,8 km/h (1 Bft) 95,65 %
17.06.2019 09:00 24,3 C 19,6 C 6,7 C 20,0 C 63 % 76 % 1020,7 hPa 0,0 l/m 1,6 km/h (1 Bft) O-NO 67 1 min 0,076 mm 4,1 UV-I 185 W/m 15,2 C 19,6 C 4,8 km/h (1 Bft) 91,30 %
17.06.2019 08:59 24,3 C 19,6 C 6,7 C 20,0 C 63 % 76 % 1020,8 hPa 0,0 l/m 0,0 km/h (0 Bft) O-NO 67 0 min 0,000 mm 4,1 UV-I 113 W/m 15,2 C 19,6 C 1,6 km/h (1 Bft) 95,65 %
17.06.2019 08:58 24,3 C 19,6 C 6,7 C 20,0 C 63 % 76 % 1020,8 hPa 0,0 l/m 6,4 km/h (2 Bft) NO 45 0 min 0,000 mm 4,1 UV-I 111 W/m 15,2 C 19,6 C 9,7 km/h (2 Bft) 95,65 %
17.06.2019 08:57 24,3 C 19,5 C 6,1 C 20,0 C 62 % 76 % 1020,8 hPa 0,0 l/m 4,8 km/h (1 Bft) O-NO 67 0 min 0,000 mm 4,1 UV-I 111 W/m 15,2 C 19,5 C 8,0 km/h (2 Bft) 91,30 %
17.06.2019 08:56 24,3 C 19,4 C 6,1 C 20,0 C 63 % 75 % 1020,8 hPa 0,0 l/m 3,2 km/h (1 Bft) O-NO 67 0 min 0,000 mm 4,1 UV-I 111 W/m 14,8 C 19,4 C 6,4 km/h (2 Bft) 95,65 %
17.06.2019 08:55 24,3 C 19,4 C 6,1 C 20,0 C 63 % 76 % 1020,8 hPa 0,0 l/m 0,0 km/h (0 Bft) O-NO 67 0 min 0,000 mm 4,2 UV-I 113 W/m 15,1 C 19,4 C 3,2 km/h (1 Bft) 91,30 %
17.06.2019 08:54 24,3 C 19,4 C 6,1 C 20,0 C 63 % 76 % 1020,8 hPa 0,0 l/m 1,6 km/h (1 Bft) O-NO 67 0 min 0,000 mm 4,2 UV-I 113 W/m 15,1 C 19,4 C 4,8 km/h (1 Bft) 95,65 %
17.06.2019 08:53 24,3 C 19,4 C 6,1 C 20,0 C 63 % 77 % 1020,8 hPa 0,0 l/m 3,2 km/h (1 Bft) O-NO 67 0 min 0,000 mm 4,2 UV-I 114 W/m 15,3 C 19,4 C 8,0 km/h (2 Bft) 91,30 %
17.06.2019 08:52 24,3 C 19,3 C 6,1 C 20,0 C 63 % 78 % 1020,8 hPa 0,0 l/m 4,8 km/h (1 Bft) O-NO 67 0 min 0,000 mm 4,2 UV-I 114 W/m 15,4 C 19,3 C 11,3 km/h (2 Bft) 100,00 %
17.06.2019 08:51 24,3 C 19,3 C 6,1 C 20,0 C 63 % 78 % 1020,8 hPa 0,0 l/m 8,0 km/h (2 Bft) O 90 0 min 0,000 mm 4,2 UV-I 116 W/m 15,4 C 18,6 C 11,3 km/h (2 Bft) 91,30 %
17.06.2019 08:50 24,3 C 19,3 C 6,1 C 20,0 C 63 % 77 % 1020,8 hPa 0,0 l/m 0,0 km/h (0 Bft) O 90 0 min 0,000 mm 4,2 UV-I 116 W/m 15,2 C 19,3 C 3,2 km/h (1 Bft) 95,65 %
17.06.2019 08:49 24,3 C 19,2 C 6,7 C 20,0 C 63 % 77 % 1020,8 hPa 0,0 l/m 1,6 km/h (1 Bft) O 90 0 min 0,000 mm 4,2 UV-I 118 W/m 15,1 C 19,2 C 6,4 km/h (2 Bft) 95,65 %
17.06.2019 08:48 24,3 C 19,2 C 6,7 C 20,0 C 63 % 78 % 1020,8 hPa 0,0 l/m 3,2 km/h (1 Bft) O-NO 67 0 min 0,000 mm 4,2 UV-I 120 W/m 15,3 C 19,2 C 6,4 km/h (2 Bft) 95,65 %
17.06.2019 08:47 24,3 C 19,2 C 6,7 C 20,0 C 63 % 78 % 1020,8 hPa 0,0 l/m 1,6 km/h (1 Bft) O-NO 67 0 min 0,000 mm 4,2 UV-I 120 W/m 15,3 C 19,2 C 3,2 km/h (1 Bft) 91,30 %
17.06.2019 08:46 24,3 C 19,1 C 6,7 C 20,0 C 63 % 78 % 1020,8 hPa 0,0 l/m 0,0 km/h (0 Bft) O-NO 67 0 min 0,000 mm 4,2 UV-I 121 W/m 15,2 C 19,1 C 1,6 km/h (1 Bft) 100,00 %
17.06.2019 08:45 24,3 C 19,1 C 6,7 C 20,0 C 62 % 79 % 1020,8 hPa 0,0 l/m 4,8 km/h (1 Bft) O-NO 67 0 min 0,000 mm 4,2 UV-I 123 W/m 15,4 C 19,1 C 6,4 km/h (2 Bft) 91,30 %
17.06.2019 08:44 24,3 C 19,1 C 6,7 C 20,0 C 63 % 79 % 1021,0 hPa 0,0 l/m 3,2 km/h (1 Bft) O-NO 67 0 min 0,000 mm 4,2 UV-I 123 W/m 15,4 C 19,1 C 6,4 km/h (2 Bft) 95,65 %
17.06.2019 08:43 24,3 C 19,0 C 6,7 C 20,0 C 63 % 78 % 1021,0 hPa 0,0 l/m 3,2 km/h (1 Bft) O-NO 67 0 min 0,000 mm 4,2 UV-I 125 W/m 15,1 C 19,0 C 4,8 km/h (1 Bft) 91,30 %
17.06.2019 08:42 24,3 C 18,9 C 6,7 C 20,0 C 63 % 79 % 1021,0 hPa 0,0 l/m 0,0 km/h (0 Bft) O-NO 67 0 min 0,000 mm 4,2 UV-I 125 W/m 15,2 C 18,9 C 1,6 km/h (1 Bft) 95,65 %
17.06.2019 08:41 24,3 C 18,9 C 6,7 C 20,0 C 63 % 79 % 1021,0 hPa 0,0 l/m 0,0 km/h (0 Bft) O-NO 67 0 min 0,000 mm 4,2 UV-I 125 W/m 15,2 C 18,9 C 1,6 km/h (1 Bft) 86,96 %
17.06.2019 08:40 24,3 C 18,9 C 6,7 C 20,0 C 63 % 78 % 1021,0 hPa 0,0 l/m 0,0 km/h (0 Bft) O-NO 67 0 min 0,000 mm 4,2 UV-I 127 W/m 15,0 C 18,9 C 3,2 km/h (1 Bft) 95,65 %
17.06.2019 08:39 24,3 C 18,8 C 6,7 C 20,0 C 63 % 78 % 1021,0 hPa 0,0 l/m 3,2 km/h (1 Bft) NO 45 0 min 0,000 mm 4,2 UV-I 128 W/m 14,9 C 18,8 C 6,4 km/h (2 Bft) 86,96 %
17.06.2019 08:38 24,3 C 18,8 C 6,7 C 20,0 C 63 % 78 % 1021,0 hPa 0,0 l/m 1,6 km/h (1 Bft) N-NO 22 0 min 0,000 mm 4,2 UV-I 128 W/m 14,9 C 18,8 C 4,8 km/h (1 Bft) 86,96 %
17.06.2019 08:37 24,3 C 18,8 C 6,7 C 20,0 C 63 % 78 % 1021,0 hPa 0,0 l/m 0,0 km/h (0 Bft) N-NO 22 0 min 0,000 mm 4,2 UV-I 130 W/m 14,9 C 18,8 C 1,6 km/h (1 Bft) 95,65 %
17.06.2019 08:36 24,3 C 18,8 C 6,7 C 20,0 C 62 % 79 % 1021,0 hPa 0,0 l/m 1,6 km/h (1 Bft) N-NO 22 0 min 0,000 mm 4,2 UV-I 130 W/m 15,1 C 18,8 C 6,4 km/h (2 Bft) 91,30 %
17.06.2019 08:35 24,3 C 18,7 C 6,7 C 20,0 C 62 % 78 % 1021,0 hPa 0,0 l/m 0,0 km/h (0 Bft) N 0 0 min 0,000 mm 4,2 UV-I 132 W/m 14,8 C 18,7 C 0,0 km/h (0 Bft) 91,30 %
17.06.2019 08:34 24,3 C 18,7 C 6,7 C 20,0 C 63 % 80 % 1021,0 hPa 0,0 l/m 0,0 km/h (0 Bft) NW 315 0 min 0,000 mm 4,2 UV-I 132 W/m 15,2 C 18,7 C 1,6 km/h (1 Bft) 82,61 %
17.06.2019 08:33 24,3 C 18,6 C 6,7 C 20,0 C 63 % 80 % 1021,0 hPa 0,0 l/m 0,0 km/h (0 Bft) N 0 0 min 0,000 mm 4,2 UV-I 132 W/m 15,1 C 18,6 C 0,0 km/h (0 Bft) 100,00 %
17.06.2019 08:32 24,3 C 18,6 C 6,7 C 20,0 C 62 % 80 % 1021,0 hPa 0,0 l/m 0,0 km/h (0 Bft) NW 315 0 min 0,000 mm 4,1 UV-I 130 W/m 15,1 C 18,6 C 1,6 km/h (1 Bft) 86,96 %
17.06.2019 08:31 24,3 C 18,6 C 6,7 C 20,0 C 63 % 80 % 1021,0 hPa 0,0 l/m 0,0 km/h (0 Bft) N 0 0 min 0,000 mm 4,1 UV-I 130 W/m 15,1 C 18,6 C 0,0 km/h (0 Bft) 95,65 %
17.06.2019 08:30 24,3 C 18,6 C 6,7 C 20,0 C 62 % 80 % 1021,0 hPa 0,0 l/m 0,0 km/h (0 Bft) N 0 0 min 0,000 mm 4,1 UV-I 128 W/m 15,1 C 18,6 C 0,0 km/h (0 Bft) 91,30 %
17.06.2019 08:29 24,3 C 18,5 C 6,7 C 20,0 C 62 % 80 % 1021,0 hPa 0,0 l/m 0,0 km/h (0 Bft) NW 315 0 min 0,000 mm 4,1 UV-I 130 W/m 15,0 C 18,5 C 1,6 km/h (1 Bft) 95,65 %
17.06.2019 08:28 24,3 C 18,5 C 6,1 C 20,0 C 62 % 81 % 1021,0 hPa 0,0 l/m 0,0 km/h (0 Bft) N 0 0 min 0,000 mm 4,0 UV-I 134 W/m 15,2 C 18,5 C 0,0 km/h (0 Bft) 86,96 %
17.06.2019 08:27 24,3 C 18,4 C 6,1 C 20,0 C 63 % 81 % 1021,0 hPa 0,0 l/m 1,6 km/h (1 Bft) NW 315 0 min 0,000 mm 4,0 UV-I 141 W/m 15,1 C 18,4 C 4,8 km/h (1 Bft) 91,30 %
17.06.2019 08:26 24,3 C 18,4 C 6,1 C 20,0 C 63 % 81 % 1021,0 hPa 0,0 l/m 0,0 km/h (0 Bft) W 270 0 min 0,000 mm 4,0 UV-I 148 W/m 15,1 C 18,4 C 1,6 km/h (1 Bft) 86,96 %
17.06.2019 08:25 24,3 C 18,4 C 6,1 C 20,0 C 62 % 81 % 1021,0 hPa 0,0 l/m 0,0 km/h (0 Bft) N 0 0 min 0,000 mm 3,9 UV-I 149 W/m 15,1 C 18,4 C 0,0 km/h (0 Bft) 91,30 %
17.06.2019 08:24 24,3 C 18,3 C 6,1 C 20,0 C 62 % 81 % 1021,0 hPa 0,0 l/m 0,0 km/h (0 Bft) W 270 0 min 0,000 mm 3,9 UV-I 149 W/m 15,0 C 18,3 C 1,6 km/h (1 Bft) 86,96 %
17.06.2019 08:23 24,3 C 18,3 C 6,1 C 20,0 C 62 % 81 % 1021,0 hPa 0,0 l/m 0,0 km/h (0 Bft) N 0 0 min 0,000 mm 3,8 UV-I 151 W/m 15,0 C 18,3 C 0,0 km/h (0 Bft) 86,96 %
17.06.2019 08:22 24,3 C 18,2 C 6,1 C 20,0 C 63 % 81 % 1021,0 hPa 0,0 l/m 0,0 km/h (0 Bft) N 0 1 min 0,000 mm 3,8 UV-I 156 W/m 14,9 C 18,2 C 0,0 km/h (0 Bft) 95,65 %
17.06.2019 08:21 24,3 C 18,2 C 6,1 C 20,0 C 62 % 81 % 1021,0 hPa 0,0 l/m 0,0 km/h (0 Bft) N 0 1 min 0,000 mm 3,8 UV-I 156 W/m 14,9 C 18,2 C 0,0 km/h (0 Bft) 91,30 %
17.06.2019 08:20 24,3 C 18,2 C 6,1 C 20,0 C 62 % 80 % 1021,0 hPa 0,0 l/m 0,0 km/h (0 Bft) N 0 1 min 0,000 mm 3,7 UV-I 153 W/m 14,7 C 18,2 C 0,0 km/h (0 Bft) 91,30 %
17.06.2019 08:19 24,3 C 18,2 C 6,1 C 20,0 C 62 % 80 % 1021,0 hPa 0,0 l/m 0,0 km/h (0 Bft) N 0 0 min 0,000 mm 3,5 UV-I 151 W/m 14,7 C 18,2 C 0,0 km/h (0 Bft) 82,61 %
17.06.2019 08:18 24,3 C 18,2 C 6,1 C 20,0 C 62 % 80 % 1021,0 hPa 0,0 l/m 0,0 km/h (0 Bft) W 270 0 min 0,000 mm 3,4 UV-I 137 W/m 14,7 C 18,2 C 1,6 km/h (1 Bft) 100,00 %
17.06.2019 08:17 24,3 C 18,1 C 6,1 C 20,0 C 62 % 81 % 1021,0 hPa 0,0 l/m 0,0 km/h (0 Bft) N 0 0 min 0,000 mm 3,4 UV-I 132 W/m 14,8 C 18,1 C 0,0 km/h (0 Bft) 78,26 %
17.06.2019 08:16 24,3 C 18,1 C 6,1 C 20,0 C 63 % 81 % 1021,0 hPa 0,0 l/m 0,0 km/h (0 Bft) N 0 0 min 0,000 mm 3,3 UV-I 127 W/m 14,8 C 18,1 C 0,0 km/h (0 Bft) 95,65 %
17.06.2019 08:15 24,3 C 18,1 C 6,1 C 20,0 C 62 % 81 % 1021,0 hPa 0,0 l/m 0,0 km/h (0 Bft) N 0 0 min 0,000 mm 3,3 UV-I 121 W/m 14,8 C 18,1 C 0,0 km/h (0 Bft) 86,96 %
17.06.2019 08:14 24,3 C 18,1 C 6,1 C 20,0 C 62 % 81 % 1021,1 hPa 0,0 l/m 0,0 km/h (0 Bft) N 0 0 min 0,000 mm 3,1 UV-I 118 W/m 14,8 C 18,1 C 0,0 km/h (0 Bft) 95,65 %
17.06.2019 08:13 24,3 C 18,1 C 6,1 C 20,0 C 62 % 81 % 1021,1 hPa 0,0 l/m 0,0 km/h (0 Bft) N 0 0 min 0,000 mm 3,1 UV-I 113 W/m 14,8 C 18,1 C 0,0 km/h (0 Bft) 86,96 %
17.06.2019 08:12 24,3 C 18,0 C 6,1 C 20,0 C 62 % 81 % 1021,1 hPa 0,0 l/m 0,0 km/h (0 Bft) N 0 0 min 0,000 mm 3,0 UV-I 111 W/m 14,7 C 18,0 C 0,0 km/h (0 Bft) 95,65 %
17.06.2019 08:11 24,3 C 18,0 C 6,1 C 20,0 C 62 % 81 % 1021,1 hPa 0,0 l/m 0,0 km/h (0 Bft) N 0 0 min 0,000 mm 2,9 UV-I 109 W/m 14,7 C 18,0 C 0,0 km/h (0 Bft) 86,96 %
17.06.2019 08:10 24,3 C 18,0 C 6,1 C 20,0 C 63 % 81 % 1021,1 hPa 0,0 l/m 0,0 km/h (0 Bft) N 0 0 min 0,000 mm 2,8 UV-I 113 W/m 14,7 C 18,0 C 0,0 km/h (0 Bft) 91,30 %
17.06.2019 08:09 24,3 C 17,9 C 6,1 C 20,0 C 62 % 81 % 1021,1 hPa 0,0 l/m 0,0 km/h (0 Bft) N 0 0 min 0,000 mm 2,8 UV-I 125 W/m 14,6 C 17,9 C 0,0 km/h (0 Bft) 91,30 %
17.06.2019 08:08 24,3 C 17,9 C 6,1 C 20,0 C 62 % 81 % 1021,1 hPa 0,0 l/m 0,0 km/h (0 Bft) N 0 0 min 0,000 mm 2,6 UV-I 146 W/m 14,6 C 17,9 C 0,0 km/h (0 Bft) 82,61 %
17.06.2019 08:07 24,3 C 17,9 C 6,1 C 20,0 C 62 % 81 % 1021,1 hPa 0,0 l/m 0,0 km/h (0 Bft) N 0 1 min 0,000 mm 2,3 UV-I 169 W/m 14,6 C 17,9 C 0,0 km/h (0 Bft) 95,65 %
17.06.2019 08:06 24,3 C 17,9 C 6,1 C 20,0 C 62 % 81 % 1021,1 hPa 0,0 l/m 0,0 km/h (0 Bft) N 0 1 min 0,000 mm 2,0 UV-I 171 W/m 14,6 C 17,9 C 0,0 km/h (0 Bft) 95,65 %
17.06.2019 08:05 24,3 C 17,9 C 6,1 C 20,0 C 62 % 81 % 1021,1 hPa 0,0 l/m 0,0 km/h (0 Bft) N 0 1 min 0,000 mm 1,6 UV-I 169 W/m 14,6 C 17,9 C 0,0 km/h (0 Bft) 95,65 %
17.06.2019 08:04 24,3 C 17,8 C 5,6 C 20,0 C 62 % 82 % 1021,1 hPa 0,0 l/m 0,0 km/h (0 Bft) W 270 1 min 0,000 mm 1,3 UV-I 167 W/m 14,7 C 17,8 C 1,6 km/h (1 Bft) 86,96 %
17.06.2019 08:03 24,3 C 17,8 C 5,6 C 20,0 C 62 % 82 % 1021,1 hPa 0,0 l/m 0,0 km/h (0 Bft) N 0 1 min 0,000 mm 1,0 UV-I 163 W/m 14,7 C 17,8 C 0,0 km/h (0 Bft) 100,00 %
17.06.2019 08:02 24,3 C 17,8 C 5,6 C 20,0 C 62 % 81 % 1021,1 hPa 0,0 l/m 0,0 km/h (0 Bft) W 270 1 min 0,000 mm 0,5 UV-I 156 W/m 14,5 C 17,8 C 1,6 km/h (1 Bft) 91,30 %
17.06.2019 08:01 24,3 C 17,8 C 5,6 C 20,0 C 63 % 81 % 1021,1 hPa 0,0 l/m 0,0 km/h (0 Bft) N 0 0 min 0,000 mm 0,0 UV-I 135 W/m 14,5 C 17,8 C 0,0 km/h (0 Bft) 95,65 %
17.06.2019 08:00 24,3 C 17,7 C 5,6 C 20,0 C 62 % 81 % 1021,1 hPa 0,0 l/m 0,0 km/h (0 Bft) N 0 0 min 0,051 mm 0,0 UV-I 125 W/m 14,4 C 17,7 C 0,0 km/h (0 Bft) 95,65 %
17.06.2019 07:59 24,3 C 17,7 C 5,6 C 20,0 C 62 % 81 % 1021,1 hPa 0,0 l/m 0,0 km/h (0 Bft) N 0 0 min 0,000 mm 0,0 UV-I 118 W/m 14,4 C 17,7 C 0,0 km/h (0 Bft) 95,65 %
17.06.2019 07:58 24,3 C 17,7 C 5,6 C 20,0 C 62 % 81 % 1021,1 hPa 0,0 l/m 0,0 km/h (0 Bft) N 0 0 min 0,000 mm 0,0 UV-I 114 W/m 14,4 C 17,7 C 0,0 km/h (0 Bft) 91,30 %
17.06.2019 07:57 24,3 C 17,7 C 5,6 C 20,0 C 62 % 81 % 1021,1 hPa 0,0 l/m 0,0 km/h (0 Bft) N 0 0 min 0,000 mm 0,0 UV-I 107 W/m 14,4 C 17,7 C 0,0 km/h (0 Bft) 95,65 %
17.06.2019 07:56 24,3 C 17,7 C 5,0 C 20,0 C 62 % 81 % 1021,1 hPa 0,0 l/m 0,0 km/h (0 Bft) N 0 0 min 0,000 mm 0,0 UV-I 104 W/m 14,4 C 17,7 C 0,0 km/h (0 Bft) 86,96 %
17.06.2019 07:55 24,3 C 17,6 C 5,0 C 20,0 C 62 % 82 % 1021,1 hPa 0,0 l/m 0,0 km/h (0 Bft) N 0 0 min 0,000 mm 0,0 UV-I 98 W/m 14,5 C 17,6 C 0,0 km/h (0 Bft) 95,65 %
17.06.2019 07:54 24,3 C 17,6 C 5,0 C 20,0 C 62 % 82 % 1021,1 hPa 0,0 l/m 3,2 km/h (1 Bft) W 270 0 min 0,000 mm 0,0 UV-I 97 W/m 14,5 C 17,6 C 4,8 km/h (1 Bft) 95,65 %
17.06.2019 07:53 24,3 C 17,6 C 5,0 C 20,0 C 62 % 82 % 1021,1 hPa 0,0 l/m 1,6 km/h (1 Bft) W 270 0 min 0,000 mm 0,0 UV-I 97 W/m 14,5 C 17,6 C 3,2 km/h (1 Bft) 86,96 %
17.06.2019 07:52 24,3 C 17,6 C 5,0 C 20,0 C 62 % 82 % 1021,1 hPa 0,0 l/m 0,0 km/h (0 Bft) W 270 0 min 0,000 mm 0,0 UV-I 97 W/m 14,5 C 17,6 C 1,6 km/h (1 Bft) 95,65 %
17.06.2019 07:51 24,3 C 17,6 C 5,0 C 20,0 C 62 % 82 % 1021,1 hPa 0,0 l/m 0,0 km/h (0 Bft) N 0 0 min 0,000 mm 0,0 UV-I 97 W/m 14,5 C 17,6 C 0,0 km/h (0 Bft) 95,65 %
17.06.2019 07:50 24,3 C 17,5 C 5,0 C 20,0 C 62 % 82 % 1021,1 hPa 0,0 l/m 0,0 km/h (0 Bft) N 0 0 min 0,000 mm 0,0 UV-I 93 W/m 14,4 C 17,5 C 0,0 km/h (0 Bft) 95,65 %
17.06.2019 07:49 24,3 C 17,5 C 5,0 C 20,0 C 62 % 82 % 1021,1 hPa 0,0 l/m 0,0 km/h (0 Bft) N 0 0 min 0,000 mm 0,0 UV-I 91 W/m 14,4 C 17,5 C 0,0 km/h (0 Bft) 91,30 %
17.06.2019 07:48 24,3 C 17,4 C 5,0 C 20,0 C 62 % 82 % 1021,1 hPa 0,0 l/m 0,0 km/h (0 Bft) N 0 0 min 0,000 mm 0,0 UV-I 91 W/m 14,3 C 17,4 C 0,0 km/h (0 Bft) 95,65 %
17.06.2019 07:47 24,3 C 17,4 C 5,0 C 20,0 C 62 % 82 % 1021,1 hPa 0,0 l/m 0,0 km/h (0 Bft) W 270 0 min 0,000 mm 0,0 UV-I 90 W/m 14,3 C 17,4 C 1,6 km/h (1 Bft) 95,65 %
17.06.2019 07:46 24,2 C 17,4 C 5,0 C 20,0 C 62 % 82 % 1021,1 hPa 0,0 l/m 0,0 km/h (0 Bft) W 270 0 min 0,000 mm 0,0 UV-I 88 W/m 14,3 C 17,4 C 3,2 km/h (1 Bft) 95,65 %
17.06.2019 07:45 24,2 C 17,4 C 5,0 C 20,0 C 62 % 82 % 1021,1 hPa 0,0 l/m 1,6 km/h (1 Bft) W 270 0 min 0,000 mm 0,0 UV-I 88 W/m 14,3 C 17,4 C 3,2 km/h (1 Bft) 91,30 %
17.06.2019 07:44 24,2 C 17,3 C 5,0 C 20,0 C 62 % 82 % 1021,1 hPa 0,0 l/m 0,0 km/h (0 Bft) N 0 0 min 0,000 mm 0,0 UV-I 86 W/m 14,2 C 17,3 C 0,0 km/h (0 Bft) 95,65 %
17.06.2019 07:43 24,2 C 17,3 C 5,0 C 20,0 C 62 % 82 % 1021,1 hPa 0,0 l/m 0,0 km/h (0 Bft) W 270 0 min 0,000 mm 0,0 UV-I 84 W/m 14,2 C 17,3 C 1,6 km/h (1 Bft) 95,65 %
17.06.2019 07:42 24,2 C 17,3 C 5,0 C 20,0 C 62 % 82 % 1021,1 hPa 0,0 l/m 0,0 km/h (0 Bft) N 0 0 min 0,000 mm 0,0 UV-I 84 W/m 14,2 C 17,3 C 0,0 km/h (0 Bft) 91,30 %
17.06.2019 07:41 24,2 C 17,3 C 5,0 C 20,0 C 62 % 82 % 1021,1 hPa 0,0 l/m 0,0 km/h (0 Bft) N 0 0 min 0,000 mm 0,0 UV-I 84 W/m 14,2 C 17,3 C 0,0 km/h (0 Bft) 91,30 %
17.06.2019 07:40 24,2 C 17,2 C 5,0 C 20,0 C 62 % 82 % 1021,1 hPa 0,0 l/m 0,0 km/h (0 Bft) N 0 0 min 0,000 mm 0,0 UV-I 84 W/m 14,1 C 17,2 C 0,0 km/h (0 Bft) 95,65 %
17.06.2019 07:39 24,2 C 17,2 C 5,0 C 20,0 C 62 % 82 % 1021,1 hPa 0,0 l/m 0,0 km/h (0 Bft) N 0 0 min 0,000 mm 0,0 UV-I 83 W/m 14,1 C 17,2 C 0,0 km/h (0 Bft) 95,65 %
17.06.2019 07:38 24,2 C 17,2 C 5,0 C 20,0 C 62 % 82 % 1021,1 hPa 0,0 l/m 0,0 km/h (0 Bft) N 0 0 min 0,000 mm 0,0 UV-I 81 W/m 14,1 C 17,2 C 0,0 km/h (0 Bft) 100,00 %
17.06.2019 07:37 24,2 C 17,2 C 5,0 C 20,0 C 62 % 82 % 1021,1 hPa 0,0 l/m 0,0 km/h (0 Bft) N 0 0 min 0,000 mm 0,0 UV-I 79 W/m 14,1 C 17,2 C 0,0 km/h (0 Bft) 91,30 %
17.06.2019 07:36 24,2 C 17,2 C 5,0 C 20,0 C 62 % 83 % 1021,1 hPa 0,0 l/m 0,0 km/h (0 Bft) N 0 0 min 0,000 mm 0,0 UV-I 76 W/m 14,3 C 17,2 C 0,0 km/h (0 Bft) 95,65 %
17.06.2019 07:35 24,2 C 17,1 C 5,0 C 20,0 C 62 % 83 % 1021,1 hPa 0,0 l/m 0,0 km/h (0 Bft) N 0 0 min 0,000 mm 0,0 UV-I 76 W/m 14,2 C 17,1 C 0,0 km/h (0 Bft) 100,00 %
17.06.2019 07:34 24,2 C 17,1 C 5,0 C 20,0 C 62 % 83 % 1021,1 hPa 0,0 l/m 0,0 km/h (0 Bft) N 0 0 min 0,000 mm 0,0 UV-I 76 W/m 14,2 C 17,1 C 0,0 km/h (0 Bft) 91,30 %
17.06.2019 07:33 24,2 C 17,1 C 5,0 C 20,0 C 62 % 83 % 1021,1 hPa 0,0 l/m 0,0 km/h (0 Bft) N 0 0 min 0,000 mm 0,0 UV-I 77 W/m 14,2 C 17,1 C 0,0 km/h (0 Bft) 95,65 %
17.06.2019 07:32 24,2 C 17,0 C 5,0 C 20,0 C 62 % 83 % 1021,1 hPa 0,0 l/m 0,0 km/h (0 Bft) N 0 0 min 0,000 mm 0,0 UV-I 83 W/m 14,1 C 17,0 C 0,0 km/h (0 Bft) 69,57 %
17.06.2019 07:31 24,2 C 17,0 C 5,0 C 20,0 C 62 % 83 % 1021,1 hPa 0,0 l/m 0,0 km/h (0 Bft) W 270 0 min 0,000 mm 0,0 UV-I 83 W/m 14,1 C 17,0 C 1,6 km/h (1 Bft) 78,26 %
17.06.2019 07:29 24,2 C 16,9 C 5,0 C 20,0 C 62 % 83 % 1020,9 hPa 0,0 l/m 0,0 km/h (0 Bft) N 0 0 min 0,000 mm 0,0 UV-I 84 W/m 14,0 C 16,9 C 0,0 km/h (0 Bft) 100,00 %
17.06.2019 07:28 24,2 C 16,9 C 5,0 C 20,0 C 62 % 83 % 1020,9 hPa 0,0 l/m 0,0 km/h (0 Bft) N 0 0 min 0,000 mm 0,0 UV-I 84 W/m 14,0 C 16,9 C 0,0 km/h (0 Bft) 95,65 %
17.06.2019 07:27 24,2 C 16,9 C 5,0 C 20,0 C 62 % 83 % 1020,9 hPa 0,0 l/m 0,0 km/h (0 Bft) N 0 0 min 0,000 mm 0,0 UV-I 83 W/m 14,0 C 16,9 C 0,0 km/h (0 Bft) 95,65 %
17.06.2019 07:26 24,2 C 16,9 C 5,0 C 20,0 C 62 % 83 % 1020,9 hPa 0,0 l/m 0,0 km/h (0 Bft) N 0 0 min 0,000 mm 0,0 UV-I 84 W/m 14,0 C 16,9 C 0,0 km/h (0 Bft) 95,65 %
17.06.2019 07:25 24,2 C 16,9 C 5,0 C 20,0 C 62 % 83 % 1020,9 hPa 0,0 l/m 0,0 km/h (0 Bft) N 0 0 min 0,000 mm 0,0 UV-I 98 W/m 14,0 C 16,9 C 0,0 km/h (0 Bft) 91,30 %
17.06.2019 07:24 24,2 C 16,8 C 4,4 C 20,0 C 62 % 83 % 1020,9 hPa 0,0 l/m 0,0 km/h (0 Bft) N 0 0 min 0,000 mm 0,0 UV-I 102 W/m 13,9 C 16,8 C 0,0 km/h (0 Bft) 95,65 %
17.06.2019 07:23 24,2 C 16,8 C 5,0 C 20,0 C 62 % 83 % 1020,9 hPa 0,0 l/m 0,0 km/h (0 Bft) N 0 0 min 0,000 mm 0,0 UV-I 91 W/m 13,9 C 16,8 C 0,0 km/h (0 Bft) 100,00 %
17.06.2019 07:22 24,2 C 16,8 C 4,4 C 20,0 C 62 % 83 % 1020,9 hPa 0,0 l/m 0,0 km/h (0 Bft) N 0 0 min 0,000 mm 0,0 UV-I 79 W/m 13,9 C 16,8 C 0,0 km/h (0 Bft) 95,65 %
17.06.2019 07:21 24,2 C 16,8 C 4,4 C 20,0 C 62 % 84 % 1020,9 hPa 0,0 l/m 0,0 km/h (0 Bft) N 0 0 min 0,000 mm 0,0 UV-I 76 W/m 14,1 C 16,8 C 0,0 km/h (0 Bft) 91,30 %
17.06.2019 07:20 24,2 C 16,8 C 4,4 C 20,0 C 62 % 84 % 1020,9 hPa 0,0 l/m 0,0 km/h (0 Bft) N 0 0 min 0,000 mm 0,0 UV-I 72 W/m 14,1 C 16,8 C 0,0 km/h (0 Bft) 95,65 %
17.06.2019 07:19 24,2 C 16,7 C 4,4 C 20,0 C 62 % 84 % 1020,9 hPa 0,0 l/m 0,0 km/h (0 Bft) N 0 0 min 0,000 mm 0,0 UV-I 72 W/m 14,0 C 16,7 C 0,0 km/h (0 Bft) 95,65 %
17.06.2019 07:18 24,2 C 16,7 C 4,4 C 20,0 C 62 % 83 % 1020,9 hPa 0,0 l/m 0,0 km/h (0 Bft) N 0 0 min 0,000 mm 0,0 UV-I 70 W/m 13,8 C 16,7 C 0,0 km/h (0 Bft) 91,30 %
17.06.2019 07:17 24,2 C 16,7 C 4,4 C 20,0 C 62 % 84 % 1020,9 hPa 0,0 l/m 0,0 km/h (0 Bft) N 0 0 min 0,000 mm 0,0 UV-I 70 W/m 14,0 C 16,7 C 0,0 km/h (0 Bft) 95,65 %
17.06.2019 07:16 24,2 C 16,7 C 4,4 C 20,0 C 62 % 84 % 1020,9 hPa 0,0 l/m 0,0 km/h (0 Bft) N 0 0 min 0,000 mm 0,0 UV-I 70 W/m 14,0 C 16,7 C 0,0 km/h (0 Bft) 95,65 %
17.06.2019 07:15 24,2 C 16,6 C 4,4 C 20,0 C 62 % 84 % 1020,9 hPa 0,0 l/m 0,0 km/h (0 Bft) N 0 0 min 0,000 mm 0,0 UV-I 70 W/m 13,9 C 16,6 C 0,0 km/h (0 Bft) 95,65 %
17.06.2019 07:14 24,2 C 16,6 C 4,4 C 20,0 C 62 % 84 % 1020,9 hPa 0,0 l/m 0,0 km/h (0 Bft) N 0 0 min 0,000 mm 0,0 UV-I 69 W/m 13,9 C 16,6 C 0,0 km/h (0 Bft) 100,00 %
17.06.2019 07:13 24,2 C 16,6 C 4,4 C 20,0 C 62 % 84 % 1020,9 hPa 0,0 l/m 0,0 km/h (0 Bft) N 0 0 min 0,000 mm 0,0 UV-I 69 W/m 13,9 C 16,6 C 0,0 km/h (0 Bft) 86,96 %
17.06.2019 07:12 24,2 C 16,6 C 4,4 C 20,0 C 62 % 84 % 1020,9 hPa 0,0 l/m 0,0 km/h (0 Bft) N 0 0 min 0,000 mm 0,0 UV-I 69 W/m 13,9 C 16,6 C 0,0 km/h (0 Bft) 95,65 %
17.06.2019 07:11 24,2 C 16,6 C 4,4 C 20,0 C 63 % 84 % 1020,9 hPa 0,0 l/m 0,0 km/h (0 Bft) W 270 0 min 0,000 mm 0,0 UV-I 67 W/m 13,9 C 16,6 C 1,6 km/h (1 Bft) 95,65 %
17.06.2019 07:10 24,2 C 16,5 C 4,4 C 20,0 C 62 % 84 % 1020,9 hPa 0,0 l/m 0,0 km/h (0 Bft) W 270 0 min 0,000 mm 0,0 UV-I 67 W/m 13,8 C 16,5 C 1,6 km/h (1 Bft) 86,96 %
17.06.2019 07:09 24,2 C 16,5 C 4,4 C 20,0 C 62 % 84 % 1020,9 hPa 0,0 l/m 0,0 km/h (0 Bft) N 0 0 min 0,000 mm 0,0 UV-I 67 W/m 13,8 C 16,5 C 0,0 km/h (0 Bft) 95,65 %
17.06.2019 07:08 24,2 C 16,4 C 4,4 C 20,0 C 62 % 84 % 1020,9 hPa 0,0 l/m 0,0 km/h (0 Bft) W 270 0 min 0,000 mm 0,0 UV-I 65 W/m 13,7 C 16,4 C 1,6 km/h (1 Bft) 100,00 %
17.06.2019 07:07 24,2 C 16,4 C 4,4 C 20,0 C 62 % 85 % 1020,9 hPa 0,0 l/m 1,6 km/h (1 Bft) W 270 0 min 0,000 mm 0,0 UV-I 65 W/m 13,9 C 16,4 C 4,8 km/h (1 Bft) 91,30 %
17.06.2019 07:06 24,1 C 16,4 C 4,4 C 20,0 C 62 % 84 % 1020,9 hPa 0,0 l/m 1,6 km/h (1 Bft) W 270 0 min 0,000 mm 0,0 UV-I 65 W/m 13,7 C 16,4 C 4,8 km/h (1 Bft) 95,65 %
17.06.2019 07:05 24,1 C 16,4 C 4,4 C 20,0 C 62 % 84 % 1020,9 hPa 0,0 l/m 0,0 km/h (0 Bft) W 270 0 min 0,000 mm 0,0 UV-I 65 W/m 13,7 C 16,4 C 1,6 km/h (1 Bft) 100,00 %
17.06.2019 07:04 24,1 C 16,4 C 4,4 C 20,0 C 63 % 84 % 1020,9 hPa 0,0 l/m 0,0 km/h (0 Bft) W 270 0 min 0,000 mm 0,0 UV-I 65 W/m 13,7 C 16,4 C 1,6 km/h (1 Bft) 95,65 %
17.06.2019 07:03 24,1 C 16,3 C 4,4 C 20,0 C 62 % 84 % 1020,9 hPa 0,0 l/m 0,0 km/h (0 Bft) W 270 0 min 0,000 mm 0,0 UV-I 65 W/m 13,6 C 16,3 C 1,6 km/h (1 Bft) 95,65 %
17.06.2019 07:02 24,1 C 16,3 C 4,4 C 20,0 C 62 % 84 % 1020,9 hPa 0,0 l/m 0,0 km/h (0 Bft) N 0 0 min 0,000 mm 0,0 UV-I 65 W/m 13,6 C 16,3 C 0,0 km/h (0 Bft) 100,00 %
17.06.2019 07:01 24,1 C 16,3 C 5,0 C 20,0 C 62 % 85 % 1020,9 hPa 0,0 l/m 0,0 km/h (0 Bft) W 270 0 min 0,000 mm 0,0 UV-I 65 W/m 13,8 C 16,3 C 1,6 km/h (1 Bft) 95,65 %
17.06.2019 07:00 24,1 C 16,3 C 5,0 C 20,0 C 62 % 85 % 1020,9 hPa 0,0 l/m 0,0 km/h (0 Bft) N 0 0 min 0,051 mm 0,0 UV-I 65 W/m 13,8 C 16,3 C 0,0 km/h (0 Bft) 95,65 %
17.06.2019 06:59 24,1 C 16,3 C 5,0 C 20,0 C 62 % 85 % 1021,1 hPa 0,0 l/m 0,0 km/h (0 Bft) W 270 0 min 0,000 mm 0,0 UV-I 67 W/m 13,8 C 16,3 C 1,6 km/h (1 Bft) 91,30 %
17.06.2019 06:58 24,1 C 16,2 C 5,0 C 20,0 C 62 % 85 % 1021,1 hPa 0,0 l/m 0,0 km/h (0 Bft) N 0 0 min 0,000 mm 0,0 UV-I 67 W/m 13,7 C 16,2 C 0,0 km/h (0 Bft) 100,00 %
17.06.2019 06:57 24,1 C 16,2 C 5,0 C 20,0 C 62 % 85 % 1021,1 hPa 0,0 l/m 0,0 km/h (0 Bft) N 0 0 min 0,000 mm 0,0 UV-I 70 W/m 13,7 C 16,2 C 0,0 km/h (0 Bft) 91,30 %
17.06.2019 06:56 24,1 C 16,2 C 5,0 C 20,0 C 62 % 85 % 1021,1 hPa 0,0 l/m 0,0 km/h (0 Bft) N 0 0 min 0,000 mm 0,0 UV-I 76 W/m 13,7 C 16,2 C 0,0 km/h (0 Bft) 95,65 %
17.06.2019 06:55 24,1 C 16,2 C 5,0 C 20,0 C 62 % 85 % 1021,1 hPa 0,0 l/m 0,0 km/h (0 Bft) W 270 0 min 0,000 mm 0,0 UV-I 81 W/m 13,7 C 16,2 C 1,6 km/h (1 Bft) 91,30 %
17.06.2019 06:54 24,1 C 16,2 C 5,0 C 20,0 C 62 % 85 % 1021,1 hPa 0,0 l/m 0,0 km/h (0 Bft) W 270 0 min 0,000 mm 0,0 UV-I 86 W/m 13,7 C 16,2 C 1,6 km/h (1 Bft) 91,30 %
17.06.2019 06:53 24,1 C 16,2 C 5,0 C 20,0 C 62 % 85 % 1021,1 hPa 0,0 l/m 0,0 km/h (0 Bft) W 270 0 min 0,000 mm 0,0 UV-I 91 W/m 13,7 C 16,2 C 1,6 km/h (1 Bft) 95,65 %
17.06.2019 06:52 24,1 C 16,1 C 5,0 C 20,0 C 62 % 85 % 1021,1 hPa 0,0 l/m 0,0 km/h (0 Bft) N 0 0 min 0,000 mm 0,0 UV-I 97 W/m 13,6 C 16,1 C 0,0 km/h (0 Bft) 95,65 %
17.06.2019 06:51 24,1 C 16,1 C 5,0 C 20,0 C 62 % 85 % 1021,1 hPa 0,0 l/m 0,0 km/h (0 Bft) N 0 0 min 0,000 mm 0,0 UV-I 100 W/m 13,6 C 16,1 C 0,0 km/h (0 Bft) 95,65 %
17.06.2019 06:50 24,1 C 16,1 C 4,4 C 20,0 C 62 % 85 % 1021,1 hPa 0,0 l/m 0,0 km/h (0 Bft) N 0 0 min 0,000 mm 0,0 UV-I 100 W/m 13,6 C 16,1 C 0,0 km/h (0 Bft) 91,30 %
17.06.2019 06:49 24,1 C 16,1 C 4,4 C 20,0 C 62 % 85 % 1021,1 hPa 0,0 l/m 0,0 km/h (0 Bft) N 0 0 min 0,000 mm 0,0 UV-I 98 W/m 13,6 C 16,1 C 0,0 km/h (0 Bft) 100,00 %
17.06.2019 06:48 24,1 C 16,1 C 4,4 C 20,0 C 62 % 85 % 1021,1 hPa 0,0 l/m 0,0 km/h (0 Bft) N 0 0 min 0,000 mm 0,0 UV-I 93 W/m 13,6 C 16,1 C 0,0 km/h (0 Bft) 91,30 %
17.06.2019 06:47 24,1 C 16,1 C 4,4 C 20,0 C 62 % 85 % 1021,1 hPa 0,0 l/m 0,0 km/h (0 Bft) N 0 0 min 0,000 mm 0,0 UV-I 88 W/m 13,6 C 16,1 C 0,0 km/h (0 Bft) 95,65 %
17.06.2019 06:46 24,1 C 16,1 C 4,4 C 20,0 C 62 % 85 % 1021,1 hPa 0,0 l/m 0,0 km/h (0 Bft) N 0 0 min 0,000 mm 0,0 UV-I 84 W/m 13,6 C 16,1 C 0,0 km/h (0 Bft) 91,30 %
17.06.2019 06:45 24,1 C 16,1 C 4,4 C 20,0 C 62 % 85 % 1021,1 hPa 0,0 l/m 0,0 km/h (0 Bft) N 0 0 min 0,000 mm 0,0 UV-I 81 W/m 13,6 C 16,1 C 0,0 km/h (0 Bft) 95,65 %
17.06.2019 06:44 24,1 C 16,1 C 4,4 C 20,0 C 62 % 85 % 1021,0 hPa 0,0 l/m 0,0 km/h (0 Bft) N 0 0 min 0,000 mm 0,0 UV-I 79 W/m 13,6 C 16,1 C 0,0 km/h (0 Bft) 86,96 %
17.06.2019 06:43 23,9 C 16,1 C 4,4 C 20,0 C 62 % 85 % 1021,0 hPa 0,0 l/m 0,0 km/h (0 Bft) N 0 0 min 0,000 mm 0,0 UV-I 79 W/m 13,6 C 16,1 C 0,0 km/h (0 Bft) 95,65 %
17.06.2019 06:42 23,9 C 16,0 C 4,4 C 20,0 C 62 % 85 % 1021,0 hPa 0,0 l/m 0,0 km/h (0 Bft) N 0 0 min 0,000 mm 0,0 UV-I 81 W/m 13,5 C 16,0 C 0,0 km/h (0 Bft) 95,65 %
17.06.2019 06:41 23,9 C 16,0 C 4,4 C 20,0 C 62 % 85 % 1021,0 hPa 0,0 l/m 0,0 km/h (0 Bft) N 0 0 min 0,000 mm 0,0 UV-I 83 W/m 13,5 C 16,0 C 0,0 km/h (0 Bft) 86,96 %
17.06.2019 06:40 23,9 C 16,0 C 4,4 C 20,0 C 62 % 85 % 1021,0 hPa 0,0 l/m 0,0 km/h (0 Bft) N 0 0 min 0,000 mm 0,0 UV-I 84 W/m 13,5 C 16,0 C 0,0 km/h (0 Bft) 95,65 %
17.06.2019 06:39 23,9 C 16,0 C 4,4 C 20,0 C 62 % 85 % 1021,0 hPa 0,0 l/m 0,0 km/h (0 Bft) N 0 0 min 0,000 mm 0,0 UV-I 84 W/m 13,5 C 16,0 C 0,0 km/h (0 Bft) 86,96 %
17.06.2019 06:38 23,9 C 16,0 C 4,4 C 20,0 C 62 % 85 % 1021,0 hPa 0,0 l/m 0,0 km/h (0 Bft) N 0 0 min 0,000 mm 0,0 UV-I 83 W/m 13,5 C 16,0 C 0,0 km/h (0 Bft) 95,65 %
17.06.2019 06:37 23,9 C 16,0 C 3,9 C 20,0 C 62 % 85 % 1021,0 hPa 0,0 l/m 0,0 km/h (0 Bft) N 0 0 min 0,000 mm 0,0 UV-I 77 W/m 13,5 C 16,0 C 0,0 km/h (0 Bft) 95,65 %
17.06.2019 06:36 23,9 C 16,0 C 3,9 C 20,0 C 62 % 85 % 1021,0 hPa 0,0 l/m 0,0 km/h (0 Bft) N 0 0 min 0,000 mm 0,0 UV-I 72 W/m 13,5 C 16,0 C 0,0 km/h (0 Bft) 95,65 %
17.06.2019 06:35 23,9 C 15,9 C 3,9 C 20,0 C 62 % 85 % 1021,0 hPa 0,0 l/m 0,0 km/h (0 Bft) W 270 0 min 0,000 mm 0,0 UV-I 69 W/m 13,4 C 15,9 C 1,6 km/h (1 Bft) 91,30 %
17.06.2019 06:34 23,9 C 15,9 C 3,9 C 20,0 C 62 % 85 % 1021,0 hPa 0,0 l/m 0,0 km/h (0 Bft) N 0 0 min 0,000 mm 0,0 UV-I 63 W/m 13,4 C 15,9 C 0,0 km/h (0 Bft) 100,00 %
17.06.2019 06:33 23,9 C 15,9 C 3,9 C 20,0 C 62 % 85 % 1021,0 hPa 0,0 l/m 0,0 km/h (0 Bft) N 0 0 min 0,000 mm 0,0 UV-I 60 W/m 13,4 C 15,9 C 0,0 km/h (0 Bft) 91,30 %
17.06.2019 06:32 23,9 C 15,9 C 3,9 C 20,0 C 62 % 85 % 1021,0 hPa 0,0 l/m 0,0 km/h (0 Bft) N 0 0 min 0,000 mm 0,0 UV-I 58 W/m 13,4 C 15,9 C 0,0 km/h (0 Bft) 91,30 %
17.06.2019 06:31 23,9 C 15,9 C 3,9 C 20,0 C 62 % 85 % 1021,0 hPa 0,0 l/m 0,0 km/h (0 Bft) N 0 0 min 0,000 mm 0,0 UV-I 58 W/m 13,4 C 15,9 C 0,0 km/h (0 Bft) 100,00 %
17.06.2019 06:30 23,9 C 15,9 C 3,9 C 20,0 C 62 % 85 % 1021,0 hPa 0,0 l/m 0,0 km/h (0 Bft) N 0 0 min 0,000 mm 0,0 UV-I 58 W/m 13,4 C 15,9 C 0,0 km/h (0 Bft) 95,65 %
17.06.2019 06:29 23,9 C 15,9 C 3,9 C 20,0 C 62 % 85 % 1020,9 hPa 0,0 l/m 0,0 km/h (0 Bft) N 0 0 min 0,000 mm 0,0 UV-I 58 W/m 13,4 C 15,9 C 0,0 km/h (0 Bft) 95,65 %
17.06.2019 06:28 23,9 C 15,9 C 3,9 C 20,0 C 62 % 85 % 1020,9 hPa 0,0 l/m 0,0 km/h (0 Bft) W 270 0 min 0,000 mm 0,0 UV-I 60 W/m 13,4 C 15,9 C 1,6 km/h (1 Bft) 100,00 %
17.06.2019 06:27 23,9 C 15,9 C 3,9 C 20,0 C 62 % 85 % 1020,9 hPa 0,0 l/m 0,0 km/h (0 Bft) N 0 0 min 0,000 mm 0,0 UV-I 62 W/m 13,4 C 15,9 C 0,0 km/h (0 Bft) 91,30 %
17.06.2019 06:26 23,9 C 15,9 C 3,9 C 20,0 C 62 % 85 % 1020,9 hPa 0,0 l/m 0,0 km/h (0 Bft) N 0 0 min 0,000 mm 0,0 UV-I 62 W/m 13,4 C 15,9 C 0,0 km/h (0 Bft) 91,30 %
17.06.2019 06:25 23,9 C 15,8 C 3,9 C 20,0 C 62 % 85 % 1020,9 hPa 0,0 l/m 0,0 km/h (0 Bft) N 0 0 min 0,000 mm 0,0 UV-I 62 W/m 13,3 C 15,8 C 0,0 km/h (0 Bft) 100,00 %
17.06.2019 06:24 23,9 C 15,8 C 3,9 C 20,0 C 62 % 86 % 1020,9 hPa 0,0 l/m 0,0 km/h (0 Bft) N 0 0 min 0,000 mm 0,0 UV-I 62 W/m 13,5 C 15,8 C 0,0 km/h (0 Bft) 95,65 %
17.06.2019 06:23 23,9 C 15,8 C 3,9 C 20,0 C 62 % 86 % 1020,9 hPa 0,0 l/m 0,0 km/h (0 Bft) N 0 0 min 0,000 mm 0,0 UV-I 60 W/m 13,5 C 15,8 C 0,0 km/h (0 Bft) 95,65 %
17.06.2019 06:22 23,9 C 15,8 C 3,9 C 20,0 C 62 % 86 % 1020,9 hPa 0,0 l/m 0,0 km/h (0 Bft) N 0 0 min 0,000 mm 0,0 UV-I 60 W/m 13,5 C 15,8 C 0,0 km/h (0 Bft) 100,00 %
17.06.2019 06:21 23,9 C 15,8 C 3,9 C 20,0 C 62 % 86 % 1020,9 hPa 0,0 l/m 0,0 km/h (0 Bft) W 270 0 min 0,000 mm 0,0 UV-I 56 W/m 13,5 C 15,8 C 1,6 km/h (1 Bft) 95,65 %
17.06.2019 06:20 24,1 C 15,8 C 3,9 C 20,0 C 62 % 86 % 1020,9 hPa 0,0 l/m 0,0 km/h (0 Bft) N 0 0 min 0,000 mm 0,0 UV-I 54 W/m 13,5 C 15,8 C 0,0 km/h (0 Bft) 95,65 %
17.06.2019 06:19 24,1 C 15,8 C 3,9 C 20,0 C 62 % 86 % 1020,9 hPa 0,0 l/m 0,0 km/h (0 Bft) N 0 0 min 0,000 mm 0,0 UV-I 54 W/m 13,5 C 15,8 C 0,0 km/h (0 Bft) 91,30 %
17.06.2019 06:18 24,1 C 15,8 C 3,9 C 20,0 C 61 % 86 % 1020,9 hPa 0,0 l/m 0,0 km/h (0 Bft) N 0 0 min 0,000 mm 0,0 UV-I 53 W/m 13,5 C 15,8 C 0,0 km/h (0 Bft) 91,30 %
17.06.2019 06:17 24,1 C 15,8 C 3,9 C 20,0 C 62 % 86 % 1020,9 hPa 0,0 l/m 0,0 km/h (0 Bft) N 0 0 min 0,000 mm 0,0 UV-I 51 W/m 13,5 C 15,8 C 0,0 km/h (0 Bft) 95,65 %
17.06.2019 06:16 24,1 C 15,7 C 3,9 C 20,0 C 62 % 86 % 1020,9 hPa 0,0 l/m 0,0 km/h (0 Bft) N 0 0 min 0,000 mm 0,0 UV-I 51 W/m 13,4 C 15,7 C 0,0 km/h (0 Bft) 100,00 %
17.06.2019 06:15 24,1 C 15,7 C 3,9 C 20,0 C 61 % 86 % 1020,9 hPa 0,0 l/m 0,0 km/h (0 Bft) W 270 0 min 0,000 mm 0,0 UV-I 51 W/m 13,4 C 15,7 C 1,6 km/h (1 Bft) 91,30 %
17.06.2019 06:14 24,1 C 15,7 C 3,9 C 20,0 C 62 % 86 % 1021,0 hPa 0,0 l/m 0,0 km/h (0 Bft) N 0 0 min 0,000 mm 0,0 UV-I 53 W/m 13,4 C 15,7 C 0,0 km/h (0 Bft) 95,65 %
17.06.2019 06:13 24,1 C 15,7 C 3,9 C 20,0 C 61 % 86 % 1021,0 hPa 0,0 l/m 0,0 km/h (0 Bft) N 0 0 min 0,000 mm 0,0 UV-I 53 W/m 13,4 C 15,7 C 0,0 km/h (0 Bft) 100,00 %
17.06.2019 06:12 24,1 C 15,7 C 3,9 C 20,0 C 61 % 86 % 1021,0 hPa 0,0 l/m 0,0 km/h (0 Bft) W 270 0 min 0,000 mm 0,0 UV-I 54 W/m 13,4 C 15,7 C 1,6 km/h (1 Bft) 91,30 %
17.06.2019 06:11 24,1 C 15,7 C 3,9 C 20,0 C 61 % 86 % 1021,0 hPa 0,0 l/m 0,0 km/h (0 Bft) N 0 0 min 0,000 mm 0,0 UV-I 54 W/m 13,4 C 15,7 C 0,0 km/h (0 Bft) 95,65 %
17.06.2019 06:10 24,1 C 15,7 C 3,9 C 20,0 C 62 % 86 % 1021,0 hPa 0,0 l/m 0,0 km/h (0 Bft) W 270 0 min 0,000 mm 0,0 UV-I 63 W/m 13,4 C 15,7 C 1,6 km/h (1 Bft) 95,65 %
17.06.2019 06:09 24,1 C 15,7 C 4,4 C 20,0 C 62 % 86 % 1021,0 hPa 0,0 l/m 0,0 km/h (0 Bft) N 0 0 min 0,000 mm 0,0 UV-I 63 W/m 13,4 C 15,7 C 0,0 km/h (0 Bft) 100,00 %
17.06.2019 06:08 24,2 C 15,7 C 4,4 C 20,0 C 62 % 86 % 1021,0 hPa 0,0 l/m 0,0 km/h (0 Bft) N 0 0 min 0,000 mm 0,0 UV-I 62 W/m 13,4 C 15,7 C 0,0 km/h (0 Bft) 95,65 %
17.06.2019 06:07 24,2 C 15,6 C 4,4 C 20,0 C 61 % 86 % 1021,0 hPa 0,0 l/m 0,0 km/h (0 Bft) W 270 0 min 0,000 mm 0,0 UV-I 60 W/m 13,3 C 15,6 C 1,6 km/h (1 Bft) 95,65 %
17.06.2019 06:06 24,2 C 15,6 C 4,4 C 20,0 C 61 % 87 % 1021,0 hPa 0,0 l/m 0,0 km/h (0 Bft) N 0 0 min 0,000 mm 0,0 UV-I 69 W/m 13,4 C 15,6 C 0,0 km/h (0 Bft) 100,00 %
17.06.2019 06:05 24,2 C 15,6 C 4,4 C 20,0 C 61 % 87 % 1021,0 hPa 0,0 l/m 0,0 km/h (0 Bft) N 0 0 min 0,000 mm 0,0 UV-I 72 W/m 13,4 C 15,6 C 0,0 km/h (0 Bft) 95,65 %
17.06.2019 06:04 24,2 C 15,6 C 4,4 C 20,0 C 61 % 87 % 1021,0 hPa 0,0 l/m 0,0 km/h (0 Bft) W 270 0 min 0,000 mm 0,0 UV-I 65 W/m 13,4 C 15,6 C 1,6 km/h (1 Bft) 95,65 %
17.06.2019 06:03 24,2 C 15,5 C 4,4 C 20,0 C 61 % 87 % 1021,0 hPa 0,0 l/m 0,0 km/h (0 Bft) N 0 0 min 0,000 mm 0,0 UV-I 65 W/m 13,3 C 15,5 C 0,0 km/h (0 Bft) 100,00 %
17.06.2019 06:02 24,2 C 15,5 C 4,4 C 20,0 C 61 % 87 % 1021,0 hPa 0,0 l/m 0,0 km/h (0 Bft) N 0 0 min 0,000 mm 0,0 UV-I 62 W/m 13,3 C 15,5 C 0,0 km/h (0 Bft) 91,30 %
17.06.2019 06:01 24,2 C 15,5 C 3,9 C 20,0 C 61 % 87 % 1021,0 hPa 0,0 l/m 0,0 km/h (0 Bft) N 0 0 min 0,000 mm 0,0 UV-I 62 W/m 13,3 C 15,5 C 0,0 km/h (0 Bft) 91,30 %
17.06.2019 06:00 24,2 C 15,4 C 3,9 C 20,0 C 62 % 87 % 1021,0 hPa 0,0 l/m 0,0 km/h (0 Bft) N 0 0 min 0,025 mm 0,0 UV-I 60 W/m 13,2 C 15,4 C 0,0 km/h (0 Bft) 100,00 %
17.06.2019 05:59 24,2 C 15,4 C 3,9 C 20,0 C 61 % 87 % 1020,9 hPa 0,0 l/m 0,0 km/h (0 Bft) N 0 0 min 0,000 mm 0,0 UV-I 56 W/m 13,2 C 15,4 C 0,0 km/h (0 Bft) 95,65 %
17.06.2019 05:58 24,2 C 15,4 C 3,9 C 20,0 C 62 % 87 % 1020,9 hPa 0,0 l/m 0,0 km/h (0 Bft) N 0 0 min 0,000 mm 0,0 UV-I 54 W/m 13,2 C 15,4 C 0,0 km/h (0 Bft) 91,30 %
17.06.2019 05:57 24,2 C 15,4 C 3,9 C 20,0 C 61 % 88 % 1020,9 hPa 0,0 l/m 0,0 km/h (0 Bft) N 0 0 min 0,000 mm 0,0 UV-I 54 W/m 13,4 C 15,4 C 0,0 km/h (0 Bft) 100,00 %
17.06.2019 05:56 24,2 C 15,4 C 3,9 C 20,0 C 61 % 88 % 1020,9 hPa 0,0 l/m 0,0 km/h (0 Bft) N 0 0 min 0,000 mm 0,0 UV-I 54 W/m 13,4 C 15,4 C 0,0 km/h (0 Bft) 91,30 %
17.06.2019 05:55 24,2 C 15,4 C 3,9 C 20,0 C 61 % 88 % 1020,9 hPa 0,0 l/m 0,0 km/h (0 Bft) N 0 0 min 0,000 mm 0,0 UV-I 54 W/m 13,4 C 15,4 C 0,0 km/h (0 Bft) 95,65 %
17.06.2019 05:54 24,2 C 15,3 C 3,9 C 20,0 C 61 % 88 % 1020,9 hPa 0,0 l/m 0,0 km/h (0 Bft) N 0 0 min 0,000 mm 0,0 UV-I 54 W/m 13,3 C 15,3 C 0,0 km/h (0 Bft) 95,65 %
17.06.2019 05:53 24,2 C 15,3 C 3,9 C 20,0 C 61 % 88 % 1020,9 hPa 0,0 l/m 0,0 km/h (0 Bft) N 0 0 min 0,000 mm 0,0 UV-I 54 W/m 13,3 C 15,3 C 0,0 km/h (0 Bft) 95,65 %
17.06.2019 05:52 24,2 C 15,3 C 3,9 C 20,0 C 61 % 88 % 1020,9 hPa 0,0 l/m 0,0 km/h (0 Bft) N 0 0 min 0,000 mm 0,0 UV-I 54 W/m 13,3 C 15,3 C 0,0 km/h (0 Bft) 95,65 %
17.06.2019 05:51 24,2 C 15,3 C 3,9 C 20,0 C 61 % 88 % 1020,9 hPa 0,0 l/m 0,0 km/h (0 Bft) N 0 0 min 0,000 mm 0,0 UV-I 54 W/m 13,3 C 15,3 C 0,0 km/h (0 Bft) 100,00 %
17.06.2019 05:50 24,3 C 15,3 C 3,9 C 20,0 C 61 % 88 % 1020,9 hPa 0,0 l/m 0,0 km/h (0 Bft) N 0 0 min 0,000 mm 0,0 UV-I 54 W/m 13,3 C 15,3 C 0,0 km/h (0 Bft) 86,96 %
17.06.2019 05:49 24,3 C 15,3 C 3,9 C 20,0 C 61 % 88 % 1020,9 hPa 0,0 l/m 0,0 km/h (0 Bft) N 0 0 min 0,000 mm 0,0 UV-I 54 W/m 13,3 C 15,3 C 0,0 km/h (0 Bft) 86,96 %
17.06.2019 05:48 24,3 C 15,3 C 3,9 C 20,0 C 62 % 88 % 1020,9 hPa 0,0 l/m 0,0 km/h (0 Bft) N 0 0 min 0,000 mm 0,0 UV-I 53 W/m 13,3 C 15,3 C 0,0 km/h (0 Bft) 100,00 %
17.06.2019 05:47 24,3 C 15,3 C 3,9 C 20,0 C 61 % 88 % 1020,9 hPa 0,0 l/m 0,0 km/h (0 Bft) N 0 0 min 0,000 mm 0,0 UV-I 53 W/m 13,3 C 15,3 C 0,0 km/h (0 Bft) 91,30 %
17.06.2019 05:46 24,3 C 15,2 C 3,9 C 20,0 C 62 % 88 % 1020,9 hPa 0,0 l/m 0,0 km/h (0 Bft) N 0 0 min 0,000 mm 0,0 UV-I 51 W/m 13,2 C 15,2 C 0,0 km/h (0 Bft) 95,65 %
17.06.2019 05:45 24,3 C 15,2 C 3,9 C 20,0 C 62 % 88 % 1020,9 hPa 0,0 l/m 0,0 km/h (0 Bft) N 0 0 min 0,000 mm 0,0 UV-I 51 W/m 13,2 C 15,2 C 0,0 km/h (0 Bft) 95,65 %
17.06.2019 05:44 24,3 C 15,2 C 3,9 C 20,0 C 62 % 88 % 1021,0 hPa 0,0 l/m 0,0 km/h (0 Bft) N 0 0 min 0,000 mm 0,0 UV-I 51 W/m 13,2 C 15,2 C 0,0 km/h (0 Bft) 91,30 %
17.06.2019 05:43 24,3 C 15,2 C 4,4 C 20,0 C 62 % 88 % 1021,0 hPa 0,0 l/m 0,0 km/h (0 Bft) W 270 0 min 0,000 mm 0,0 UV-I 51 W/m 13,2 C 15,2 C 1,6 km/h (1 Bft) 95,65 %
17.06.2019 05:42 24,3 C 15,2 C 4,4 C 20,0 C 62 % 88 % 1021,0 hPa 0,0 l/m 0,0 km/h (0 Bft) W 270 0 min 0,000 mm 0,0 UV-I 51 W/m 13,2 C 15,2 C 1,6 km/h (1 Bft) 100,00 %
17.06.2019 05:41 24,3 C 15,2 C 4,4 C 20,0 C 62 % 88 % 1021,0 hPa 0,0 l/m 0,0 km/h (0 Bft) N 0 0 min 0,000 mm 0,0 UV-I 51 W/m 13,2 C 15,2 C 0,0 km/h (0 Bft) 95,65 %
17.06.2019 05:40 24,3 C 15,1 C 4,4 C 20,0 C 62 % 88 % 1021,0 hPa 0,0 l/m 3,2 km/h (1 Bft) W 270 0 min 0,000 mm 0,0 UV-I 49 W/m 13,1 C 15,1 C 6,4 km/h (2 Bft) 91,30 %
17.06.2019 05:39 24,3 C 15,1 C 4,4 C 20,0 C 62 % 88 % 1021,0 hPa 0,0 l/m 0,0 km/h (0 Bft) N 0 0 min 0,000 mm 0,0 UV-I 49 W/m 13,1 C 15,1 C 0,0 km/h (0 Bft) 95,65 %
17.06.2019 05:38 24,3 C 15,1 C 4,4 C 20,0 C 61 % 88 % 1021,0 hPa 0,0 l/m 0,0 km/h (0 Bft) W 270 0 min 0,000 mm 0,0 UV-I 49 W/m 13,1 C 15,1 C 1,6 km/h (1 Bft) 95,65 %
17.06.2019 05:37 24,3 C 15,1 C 3,9 C 20,0 C 62 % 88 % 1021,0 hPa 0,0 l/m 3,2 km/h (1 Bft) W 270 0 min 0,000 mm 0,0 UV-I 47 W/m 13,1 C 15,1 C 6,4 km/h (2 Bft) 95,65 %
17.06.2019 05:36 24,3 C 15,1 C 3,9 C 20,0 C 62 % 89 % 1021,0 hPa 0,0 l/m 1,6 km/h (1 Bft) W 270 0 min 0,000 mm 0,0 UV-I 46 W/m 13,3 C 15,1 C 6,4 km/h (2 Bft) 100,00 %
17.06.2019 05:35 24,3 C 15,1 C 3,9 C 20,0 C 62 % 89 % 1021,0 hPa 0,0 l/m 0,0 km/h (0 Bft) N 0 0 min 0,000 mm 0,0 UV-I 44 W/m 13,3 C 15,1 C 0,0 km/h (0 Bft) 95,65 %
17.06.2019 05:34 24,3 C 15,1 C 3,9 C 20,0 C 61 % 89 % 1021,0 hPa 0,0 l/m 0,0 km/h (0 Bft) W 270 0 min 0,000 mm 0,0 UV-I 40 W/m 13,3 C 15,1 C 1,6 km/h (1 Bft) 95,65 %
17.06.2019 05:33 24,3 C 15,0 C 3,9 C 20,0 C 61 % 88 % 1021,0 hPa 0,0 l/m 0,0 km/h (0 Bft) N 0 0 min 0,000 mm 0,0 UV-I 39 W/m 13,0 C 15,0 C 0,0 km/h (0 Bft) 100,00 %
17.06.2019 05:32 24,3 C 15,0 C 3,9 C 20,0 C 62 % 88 % 1021,0 hPa 0,0 l/m 0,0 km/h (0 Bft) W 270 0 min 0,000 mm 0,0 UV-I 37 W/m 13,0 C 15,0 C 1,6 km/h (1 Bft) 95,65 %
17.06.2019 05:31 24,3 C 15,0 C 3,9 C 20,0 C 62 % 88 % 1021,0 hPa 0,0 l/m 0,0 km/h (0 Bft) N 0 0 min 0,000 mm 0,0 UV-I 37 W/m 13,0 C 15,0 C 0,0 km/h (0 Bft) 95,65 %
17.06.2019 05:30 24,3 C 15,0 C 3,9 C 20,0 C 62 % 88 % 1021,0 hPa 0,0 l/m 0,0 km/h (0 Bft) N 0 0 min 0,000 mm 0,0 UV-I 35 W/m 13,0 C 15,0 C 0,0 km/h (0 Bft) 95,65 %
17.06.2019 05:29 24,3 C 15,0 C 3,9 C 20,0 C 62 % 88 % 1021,0 hPa 0,0 l/m 0,0 km/h (0 Bft) N 0 0 min 0,000 mm 0,0 UV-I 33 W/m 13,0 C 15,0 C 0,0 km/h (0 Bft) 95,65 %
17.06.2019 05:28 24,3 C 14,9 C 3,9 C 20,0 C 62 % 88 % 1021,0 hPa 0,0 l/m 0,0 km/h (0 Bft) N 0 0 min 0,000 mm 0,0 UV-I 30 W/m 12,9 C 14,9 C 0,0 km/h (0 Bft) 95,65 %
17.06.2019 05:27 24,3 C 14,9 C 3,9 C 20,0 C 62 % 88 % 1021,0 hPa 0,0 l/m 0,0 km/h (0 Bft) N 0 0 min 0,000 mm 0,0 UV-I 30 W/m 12,9 C 14,9 C 0,0 km/h (0 Bft) 100,00 %
17.06.2019 05:26 24,3 C 14,9 C 3,9 C 20,0 C 62 % 88 % 1021,0 hPa 0,0 l/m 0,0 km/h (0 Bft) N 0 0 min 0,000 mm 0,0 UV-I 28 W/m 12,9 C 14,9 C 0,0 km/h (0 Bft) 95,65 %
17.06.2019 05:25 24,3 C 14,9 C 3,9 C 20,0 C 62 % 88 % 1021,0 hPa 0,0 l/m 0,0 km/h (0 Bft) N 0 0 min 0,000 mm 0,0 UV-I 26 W/m 12,9 C 14,9 C 0,0 km/h (0 Bft) 91,30 %
17.06.2019 05:24 24,3 C 14,9 C 3,9 C 20,0 C 62 % 88 % 1021,0 hPa 0,0 l/m 0,0 km/h (0 Bft) N 0 0 min 0,000 mm 0,0 UV-I 25 W/m 12,9 C 14,9 C 0,0 km/h (0 Bft) 100,00 %
17.06.2019 05:23 24,3 C 14,9 C 3,9 C 20,0 C 62 % 88 % 1021,0 hPa 0,0 l/m 0,0 km/h (0 Bft) N 0 0 min 0,000 mm 0,0 UV-I 23 W/m 12,9 C 14,9 C 0,0 km/h (0 Bft) 91,30 %
17.06.2019 05:22 24,3 C 14,9 C 3,3 C 20,0 C 62 % 88 % 1021,0 hPa 0,0 l/m 0,0 km/h (0 Bft) N 0 0 min 0,000 mm 0,0 UV-I 21 W/m 12,9 C 14,9 C 0,0 km/h (0 Bft) 95,65 %
17.06.2019 05:21 24,3 C 14,9 C 3,3 C 20,0 C 62 % 88 % 1021,0 hPa 0,0 l/m 0,0 km/h (0 Bft) N 0 0 min 0,000 mm 0,0 UV-I 19 W/m 12,9 C 14,9 C 0,0 km/h (0 Bft) 91,30 %
17.06.2019 05:20 24,3 C 14,9 C 3,3 C 20,0 C 62 % 88 % 1021,0 hPa 0,0 l/m 0,0 km/h (0 Bft) N 0 0 min 0,000 mm 0,0 UV-I 19 W/m 12,9 C 14,9 C 0,0 km/h (0 Bft) 95,65 %
17.06.2019 05:19 24,4 C 14,9 C 3,3 C 20,0 C 62 % 88 % 1021,0 hPa 0,0 l/m 0,0 km/h (0 Bft) N 0 0 min 0,000 mm 0,0 UV-I 18 W/m 12,9 C 14,9 C 0,0 km/h (0 Bft) 91,30 %
17.06.2019 05:18 24,4 C 14,9 C 3,3 C 20,0 C 62 % 88 % 1021,0 hPa 0,0 l/m 0,0 km/h (0 Bft) N 0 0 min 0,000 mm 0,0 UV-I 18 W/m 12,9 C 14,9 C 0,0 km/h (0 Bft) 95,65 %
17.06.2019 05:17 24,4 C 14,9 C 3,3 C 20,0 C 62 % 88 % 1021,0 hPa 0,0 l/m 0,0 km/h (0 Bft) N 0 0 min 0,000 mm 0,0 UV-I 16 W/m 12,9 C 14,9 C 0,0 km/h (0 Bft) 95,65 %
17.06.2019 05:16 24,4 C 14,9 C 3,3 C 20,0 C 62 % 88 % 1021,0 hPa 0,0 l/m 0,0 km/h (0 Bft) N 0 0 min 0,000 mm 0,0 UV-I 16 W/m 12,9 C 14,9 C 0,0 km/h (0 Bft) 91,30 %
17.06.2019 05:15 24,4 C 14,9 C 3,3 C 20,0 C 62 % 88 % 1021,0 hPa 0,0 l/m 0,0 km/h (0 Bft) N 0 0 min 0,000 mm 0,0 UV-I 16 W/m 12,9 C 14,9 C 0,0 km/h (0 Bft) 91,30 %
17.06.2019 05:14 24,4 C 14,9 C 3,3 C 20,0 C 62 % 88 % 1021,1 hPa 0,0 l/m 0,0 km/h (0 Bft) N 0 0 min 0,000 mm 0,0 UV-I 14 W/m 12,9 C 14,9 C 0,0 km/h (0 Bft) 95,65 %
17.06.2019 05:13 24,4 C 14,9 C 3,3 C 20,0 C 62 % 88 % 1021,1 hPa 0,0 l/m 0,0 km/h (0 Bft) N 0 0 min 0,000 mm 0,0 UV-I 14 W/m 12,9 C 14,9 C 0,0 km/h (0 Bft) 91,30 %
17.06.2019 05:12 24,4 C 14,9 C 3,3 C 20,0 C 62 % 88 % 1021,1 hPa 0,0 l/m 0,0 km/h (0 Bft) N 0 0 min 0,000 mm 0,0 UV-I 14 W/m 12,9 C 14,9 C 0,0 km/h (0 Bft) 91,30 %
17.06.2019 05:11 24,4 C 14,9 C 3,3 C 20,0 C 62 % 88 % 1021,1 hPa 0,0 l/m 0,0 km/h (0 Bft) N 0 0 min 0,000 mm 0,0 UV-I 12 W/m 12,9 C 14,9 C 0,0 km/h (0 Bft) 100,00 %
17.06.2019 05:10 24,4 C 14,9 C 3,3 C 20,0 C 62 % 88 % 1021,1 hPa 0,0 l/m 0,0 km/h (0 Bft) N 0 0 min 0,000 mm 0,0 UV-I 12 W/m 12,9 C 14,9 C 0,0 km/h (0 Bft) 91,30 %
17.06.2019 05:09 24,4 C 14,9 C 3,3 C 20,0 C 62 % 88 % 1021,1 hPa 0,0 l/m 0,0 km/h (0 Bft) N 0 0 min 0,000 mm 0,0 UV-I 11 W/m 12,9 C 14,9 C 0,0 km/h (0 Bft) 95,65 %
17.06.2019 05:08 24,4 C 14,9 C 3,3 C 20,0 C 62 % 88 % 1021,1 hPa 0,0 l/m 0,0 km/h (0 Bft) N 0 0 min 0,000 mm 0,0 UV-I 11 W/m 12,9 C 14,9 C 0,0 km/h (0 Bft) 95,65 %
17.06.2019 05:07 24,4 C 14,9 C 2,8 C 20,0 C 62 % 88 % 1021,1 hPa 0,0 l/m 0,0 km/h (0 Bft) N 0 0 min 0,000 mm 0,0 UV-I 11 W/m 12,9 C 14,9 C 0,0 km/h (0 Bft) 95,65 %
17.06.2019 05:06 24,4 C 14,9 C 2,8 C 20,0 C 62 % 88 % 1021,1 hPa 0,0 l/m 0,0 km/h (0 Bft) N 0 0 min 0,000 mm 0,0 UV-I 9 W/m 12,9 C 14,9 C 0,0 km/h (0 Bft) 91,30 %
17.06.2019 05:05 24,4 C 14,9 C 2,8 C 20,0 C 62 % 88 % 1021,1 hPa 0,0 l/m 0,0 km/h (0 Bft) N 0 0 min 0,000 mm 0,0 UV-I 9 W/m 12,9 C 14,9 C 0,0 km/h (0 Bft) 100,00 %
17.06.2019 05:04 24,4 C 14,9 C 2,8 C 20,6 C 63 % 88 % 1021,1 hPa 0,0 l/m 0,0 km/h (0 Bft) N 0 0 min 0,000 mm 0,0 UV-I 7 W/m 12,9 C 14,9 C 0,0 km/h (0 Bft) 86,96 %
17.06.2019 05:03 24,4 C 14,9 C 2,8 C 20,6 C 62 % 88 % 1021,1 hPa 0,0 l/m 0,0 km/h (0 Bft) N 0 0 min 0,000 mm 0,0 UV-I 7 W/m 12,9 C 14,9 C 0,0 km/h (0 Bft) 86,96 %
17.06.2019 05:02 24,4 C 14,9 C 2,8 C 20,6 C 62 % 88 % 1021,1 hPa 0,0 l/m 0,0 km/h (0 Bft) N 0 0 min 0,000 mm 0,0 UV-I 7 W/m 12,9 C 14,9 C 0,0 km/h (0 Bft) 100,00 %
17.06.2019 05:01 24,4 C 14,9 C 2,8 C 20,6 C 62 % 88 % 1021,1 hPa 0,0 l/m 0,0 km/h (0 Bft) N 0 0 min 0,000 mm 0,0 UV-I 5 W/m 12,9 C 14,9 C 0,0 km/h (0 Bft) 91,30 %
17.06.2019 05:00 24,4 C 14,9 C 2,8 C 20,6 C 62 % 88 % 1021,1 hPa 0,0 l/m 0,0 km/h (0 Bft) N 0 0 min 0,000 mm 0,0 UV-I 5 W/m 12,9 C 14,9 C 0,0 km/h (0 Bft) 95,65 %
17.06.2019 04:59 24,4 C 14,9 C 2,8 C 20,6 C 62 % 88 % 1020,8 hPa 0,0 l/m 0,0 km/h (0 Bft) N 0 0 min 0,000 mm 0,0 UV-I 0 W/m 12,9 C 14,9 C 0,0 km/h (0 Bft) 86,96 %
17.06.2019 04:58 24,4 C 14,9 C 2,8 C 20,6 C 62 % 88 % 1020,8 hPa 0,0 l/m 0,0 km/h (0 Bft) N 0 0 min 0,000 mm 0,0 UV-I 0 W/m 12,9 C 14,9 C 0,0 km/h (0 Bft) 91,30 %
17.06.2019 04:57 24,4 C 14,9 C 2,8 C 20,6 C 63 % 88 % 1020,8 hPa 0,0 l/m 0,0 km/h (0 Bft) N 0 0 min 0,000 mm 0,0 UV-I 0 W/m 12,9 C 14,9 C 0,0 km/h (0 Bft) 91,30 %
17.06.2019 04:56 24,4 C 14,9 C 2,8 C 20,6 C 62 % 88 % 1020,8 hPa 0,0 l/m 0,0 km/h (0 Bft) N 0 0 min 0,000 mm 0,0 UV-I 5 W/m 12,9 C 14,9 C 0,0 km/h (0 Bft) 100,00 %
17.06.2019 04:55 24,4 C 14,9 C 2,8 C 20,6 C 62 % 88 % 1020,8 hPa 0,0 l/m 0,0 km/h (0 Bft) N 0 0 min 0,000 mm 0,0 UV-I 5 W/m 12,9 C 14,9 C 0,0 km/h (0 Bft) 91,30 %
17.06.2019 04:54 24,4 C 14,9 C 2,8 C 20,6 C 62 % 88 % 1020,8 hPa 0,0 l/m 0,0 km/h (0 Bft) N 0 0 min 0,000 mm 0,0 UV-I 5 W/m 12,9 C 14,9 C 0,0 km/h (0 Bft) 95,65 %
17.06.2019 04:53 24,4 C 14,9 C 2,8 C 20,6 C 62 % 88 % 1020,8 hPa 0,0 l/m 0,0 km/h (0 Bft) N 0 0 min 0,000 mm 0,0 UV-I 0 W/m 12,9 C 14,9 C 0,0 km/h (0 Bft) 100,00 %
17.06.2019 04:52 24,4 C 14,9 C 2,8 C 20,6 C 62 % 88 % 1020,8 hPa 0,0 l/m 0,0 km/h (0 Bft) N 0 0 min 0,000 mm 0,0 UV-I 0 W/m 12,9 C 14,9 C 0,0 km/h (0 Bft) 95,65 %
17.06.2019 04:51 24,4 C 14,9 C 2,8 C 20,6 C 63 % 88 % 1020,8 hPa 0,0 l/m 0,0 km/h (0 Bft) N 0 0 min 0,000 mm 0,0 UV-I 0 W/m 12,9 C 14,9 C 0,0 km/h (0 Bft) 95,65 %
17.06.2019 04:50 24,4 C 14,9 C 2,8 C 20,6 C 62 % 88 % 1020,8 hPa 0,0 l/m 0,0 km/h (0 Bft) N 0 0 min 0,000 mm 0,0 UV-I 0 W/m 12,9 C 14,9 C 0,0 km/h (0 Bft) 100,00 %
17.06.2019 04:49 24,4 C 14,9 C 2,8 C 20,6 C 62 % 88 % 1020,8 hPa 0,0 l/m 0,0 km/h (0 Bft) N 0 0 min 0,000 mm 0,0 UV-I 0 W/m 12,9 C 14,9 C 0,0 km/h (0 Bft) 95,65 %
17.06.2019 04:48 24,4 C 14,9 C 2,8 C 20,6 C 62 % 88 % 1020,8 hPa 0,0 l/m 0,0 km/h (0 Bft) N 0 0 min 0,000 mm 0,0 UV-I 0 W/m 12,9 C 14,9 C 0,0 km/h (0 Bft) 95,65 %
17.06.2019 04:47 24,4 C 14,9 C 2,8 C 20,6 C 62 % 88 % 1020,8 hPa 0,0 l/m 0,0 km/h (0 Bft) W 270 0 min 0,000 mm 0,0 UV-I 0 W/m 12,9 C 14,9 C 1,6 km/h (1 Bft) 100,00 %
17.06.2019 04:46 24,4 C 14,9 C 2,8 C 20,6 C 62 % 88 % 1020,8 hPa 0,0 l/m 0,0 km/h (0 Bft) N 0 0 min 0,000 mm 0,0 UV-I 0 W/m 12,9 C 14,9 C 0,0 km/h (0 Bft) 91,30 %
17.06.2019 04:45 24,4 C 14,9 C 2,8 C 20,6 C 62 % 88 % 1020,8 hPa 0,0 l/m 0,0 km/h (0 Bft) N 0 0 min 0,000 mm 0,0 UV-I 0 W/m 12,9 C 14,9 C 0,0 km/h (0 Bft) 95,65 %
17.06.2019 04:44 24,4 C 14,9 C 2,8 C 20,6 C 62 % 88 % 1020,8 hPa 0,0 l/m 0,0 km/h (0 Bft) N 0 0 min 0,000 mm 0,0 UV-I 0 W/m 12,9 C 14,9 C 0,0 km/h (0 Bft) 100,00 %
17.06.2019 04:43 24,4 C 14,9 C 3,3 C 20,6 C 62 % 87 % 1020,8 hPa 0,0 l/m 0,0 km/h (0 Bft) N 0 0 min 0,000 mm 0,0 UV-I 0 W/m 12,8 C 14,9 C 0,0 km/h (0 Bft) 91,30 %
17.06.2019 04:42 24,4 C 14,9 C 3,3 C 20,6 C 62 % 87 % 1020,8 hPa 0,0 l/m 0,0 km/h (0 Bft) N 0 0 min 0,000 mm 0,0 UV-I 0 W/m 12,8 C 14,9 C 0,0 km/h (0 Bft) 91,30 %
17.06.2019 04:41 24,4 C 14,9 C 3,3 C 20,6 C 62 % 87 % 1020,8 hPa 0,0 l/m 0,0 km/h (0 Bft) N 0 0 min 0,000 mm 0,0 UV-I 0 W/m 12,8 C 14,9 C 0,0 km/h (0 Bft) 100,00 %
17.06.2019 04:40 24,4 C 14,9 C 3,3 C 20,6 C 62 % 87 % 1020,8 hPa 0,0 l/m 0,0 km/h (0 Bft) W 270 0 min 0,000 mm 0,0 UV-I 0 W/m 12,8 C 14,9 C 1,6 km/h (1 Bft) 95,65 %
17.06.2019 04:39 24,6 C 14,9 C 2,8 C 20,6 C 62 % 87 % 1020,8 hPa 0,0 l/m 3,2 km/h (1 Bft) W 270 0 min 0,000 mm 0,0 UV-I 0 W/m 12,8 C 14,9 C 4,8 km/h (1 Bft) 95,65 %
17.06.2019 04:38 24,6 C 14,9 C 3,3 C 20,6 C 62 % 87 % 1020,8 hPa 0,0 l/m 3,2 km/h (1 Bft) W 270 0 min 0,000 mm 0,0 UV-I 0 W/m 12,8 C 14,9 C 4,8 km/h (1 Bft) 100,00 %
17.06.2019 04:37 24,6 C 14,9 C 2,8 C 20,6 C 62 % 87 % 1020,8 hPa 0,0 l/m 1,6 km/h (1 Bft) W 270 0 min 0,000 mm 0,0 UV-I 0 W/m 12,8 C 14,9 C 3,2 km/h (1 Bft) 95,65 %
17.06.2019 04:36 24,6 C 14,9 C 2,8 C 20,6 C 63 % 87 % 1020,8 hPa 0,0 l/m 1,6 km/h (1 Bft) W 270 0 min 0,000 mm 0,0 UV-I 0 W/m 12,8 C 14,9 C 3,2 km/h (1 Bft) 91,30 %
17.06.2019 04:35 24,6 C 14,9 C 2,8 C 20,6 C 63 % 87 % 1020,8 hPa 0,0 l/m 0,0 km/h (0 Bft) W 270 0 min 0,000 mm 0,0 UV-I 0 W/m 12,8 C 14,9 C 1,6 km/h (1 Bft) 100,00 %
17.06.2019 04:34 24,6 C 14,9 C 2,8 C 20,6 C 63 % 87 % 1020,8 hPa 0,0 l/m 0,0 km/h (0 Bft) N 0 0 min 0,000 mm 0,0 UV-I 0 W/m 12,8 C 14,9 C 0,0 km/h (0 Bft) 95,65 %
17.06.2019 04:33 24,6 C 14,9 C 2,8 C 20,6 C 62 % 86 % 1020,8 hPa 0,0 l/m 0,0 km/h (0 Bft) W 270 0 min 0,000 mm 0,0 UV-I 0 W/m 12,6 C 14,9 C 1,6 km/h (1 Bft) 95,65 %
17.06.2019 04:32 24,6 C 14,9 C 2,8 C 20,6 C 62 % 86 % 1020,8 hPa 0,0 l/m 0,0 km/h (0 Bft) N 0 0 min 0,000 mm 0,0 UV-I 0 W/m 12,6 C 14,9 C 0,0 km/h (0 Bft) 91,30 %
17.06.2019 04:31 24,6 C 14,9 C 2,8 C 20,6 C 62 % 86 % 1020,8 hPa 0,0 l/m 0,0 km/h (0 Bft) N 0 0 min 0,000 mm 0,0 UV-I 0 W/m 12,6 C 14,9 C 0,0 km/h (0 Bft) 95,65 %
17.06.2019 04:30 24,6 C 14,9 C 2,8 C 20,6 C 62 % 86 % 1020,8 hPa 0,0 l/m 0,0 km/h (0 Bft) N 0 0 min 0,000 mm 0,0 UV-I 0 W/m 12,6 C 14,9 C 0,0 km/h (0 Bft) 95,65 %
17.06.2019 04:29 24,6 C 14,9 C 2,8 C 20,6 C 62 % 86 % 1020,7 hPa 0,0 l/m 0,0 km/h (0 Bft) W 270 0 min 0,000 mm 0,0 UV-I 0 W/m 12,6 C 14,9 C 1,6 km/h (1 Bft) 95,65 %
17.06.2019 04:28 24,6 C 14,9 C 2,8 C 20,6 C 62 % 86 % 1020,7 hPa 0,0 l/m 0,0 km/h (0 Bft) N 0 0 min 0,000 mm 0,0 UV-I 0 W/m 12,6 C 14,9 C 0,0 km/h (0 Bft) 100,00 %
17.06.2019 04:27 24,6 C 14,9 C 2,8 C 20,6 C 63 % 86 % 1020,7 hPa 0,0 l/m 0,0 km/h (0 Bft) N 0 0 min 0,000 mm 0,0 UV-I 0 W/m 12,6 C 14,9 C 0,0 km/h (0 Bft) 95,65 %
17.06.2019 04:26 24,4 C 14,9 C 2,8 C 20,6 C 62 % 86 % 1020,7 hPa 0,0 l/m 0,0 km/h (0 Bft) N 0 0 min 0,000 mm 0,0 UV-I 0 W/m 12,6 C 14,9 C 0,0 km/h (0 Bft) 95,65 %
17.06.2019 04:25 24,6 C 14,9 C 2,8 C 20,6 C 62 % 86 % 1020,7 hPa 0,0 l/m 0,0 km/h (0 Bft) N 0 0 min 0,000 mm 0,0 UV-I 0 W/m 12,6 C 14,9 C 0,0 km/h (0 Bft) 100,00 %
17.06.2019 04:24 24,6 C 14,9 C 2,8 C 20,6 C 62 % 86 % 1020,7 hPa 0,0 l/m 0,0 km/h (0 Bft) N 0 0 min 0,000 mm 0,0 UV-I 0 W/m 12,6 C 14,9 C 0,0 km/h (0 Bft) 91,30 %
17.06.2019 04:23 24,6 C 14,9 C 2,8 C 20,6 C 62 % 86 % 1020,7 hPa 0,0 l/m 0,0 km/h (0 Bft) N 0 0 min 0,000 mm 0,0 UV-I 0 W/m 12,6 C 14,9 C 0,0 km/h (0 Bft) 95,65 %
17.06.2019 04:22 24,4 C 15,0 C 2,8 C 20,6 C 62 % 86 % 1020,7 hPa 0,0 l/m 0,0 km/h (0 Bft) N 0 0 min 0,000 mm 0,0 UV-I 0 W/m 12,7 C 15,0 C 0,0 km/h (0 Bft) 100,00 %
17.06.2019 04:21 24,4 C 15,0 C 2,8 C 20,6 C 62 % 86 % 1020,7 hPa 0,0 l/m 0,0 km/h (0 Bft) N 0 0 min 0,000 mm 0,0 UV-I 0 W/m 12,7 C 15,0 C 0,0 km/h (0 Bft) 95,65 %
17.06.2019 04:20 24,4 C 15,0 C 2,8 C 20,6 C 62 % 86 % 1020,7 hPa 0,0 l/m 0,0 km/h (0 Bft) N 0 0 min 0,000 mm 0,0 UV-I 0 W/m 12,7 C 15,0 C 0,0 km/h (0 Bft) 95,65 %
17.06.2019 04:19 24,4 C 15,0 C 2,8 C 20,6 C 62 % 86 % 1020,7 hPa 0,0 l/m 0,0 km/h (0 Bft) N 0 0 min 0,000 mm 0,0 UV-I 0 W/m 12,7 C 15,0 C 0,0 km/h (0 Bft) 95,65 %
17.06.2019 04:18 24,6 C 15,0 C 2,8 C 20,6 C 62 % 86 % 1020,7 hPa 0,0 l/m 0,0 km/h (0 Bft) N 0 0 min 0,000 mm 0,0 UV-I 0 W/m 12,7 C 15,0 C 0,0 km/h (0 Bft) 91,30 %
17.06.2019 04:17 24,4 C 15,1 C 2,8 C 20,6 C 62 % 86 % 1020,7 hPa 0,0 l/m 0,0 km/h (0 Bft) N 0 0 min 0,000 mm 0,0 UV-I 0 W/m 12,8 C 15,1 C 0,0 km/h (0 Bft) 95,65 %
17.06.2019 04:16 24,6 C 15,1 C 2,2 C 20,6 C 62 % 86 % 1020,7 hPa 0,0 l/m 0,0 km/h (0 Bft) N 0 0 min 0,000 mm 0,0 UV-I 0 W/m 12,8 C 15,1 C 0,0 km/h (0 Bft) 95,65 %
17.06.2019 04:15 24,4 C 15,1 C 2,2 C 20,6 C 63 % 86 % 1020,7 hPa 0,0 l/m 0,0 km/h (0 Bft) N 0 0 min 0,000 mm 0,0 UV-I 0 W/m 12,8 C 15,1 C 0,0 km/h (0 Bft) 95,65 %
17.06.2019 04:14 24,6 C 15,1 C 2,2 C 20,6 C 62 % 86 % 1020,6 hPa 0,0 l/m 0,0 km/h (0 Bft) N 0 0 min 0,000 mm 0,0 UV-I 0 W/m 12,8 C 15,1 C 0,0 km/h (0 Bft) 95,65 %
17.06.2019 04:13 24,4 C 15,1 C 2,2 C 20,6 C 62 % 86 % 1020,6 hPa 0,0 l/m 0,0 km/h (0 Bft) N 0 0 min 0,000 mm 0,0 UV-I 0 W/m 12,8 C 15,1 C 0,0 km/h (0 Bft) 100,00 %
17.06.2019 04:12 24,6 C 15,1 C 2,2 C 20,6 C 62 % 86 % 1020,6 hPa 0,0 l/m 0,0 km/h (0 Bft) N 0 0 min 0,000 mm 0,0 UV-I 0 W/m 12,8 C 15,1 C 0,0 km/h (0 Bft) 95,65 %
17.06.2019 04:11 24,4 C 15,1 C 2,2 C 20,6 C 62 % 86 % 1020,6 hPa 0,0 l/m 0,0 km/h (0 Bft) N 0 0 min 0,000 mm 0,0 UV-I 0 W/m 12,8 C 15,1 C 0,0 km/h (0 Bft) 91,30 %
17.06.2019 04:10 24,6 C 15,1 C 2,2 C 20,6 C 62 % 86 % 1020,6 hPa 0,0 l/m 0,0 km/h (0 Bft) N 0 0 min 0,000 mm 0,0 UV-I 0 W/m 12,8 C 15,1 C 0,0 km/h (0 Bft) 95,65 %
17.06.2019 04:09 24,6 C 15,1 C 2,2 C 20,6 C 62 % 86 % 1020,6 hPa 0,0 l/m 0,0 km/h (0 Bft) N 0 0 min 0,000 mm 0,0 UV-I 0 W/m 12,8 C 15,1 C 0,0 km/h (0 Bft) 95,65 %
17.06.2019 04:08 24,6 C 15,1 C 2,2 C 20,6 C 62 % 86 % 1020,6 hPa 0,0 l/m 0,0 km/h (0 Bft) N 0 0 min 0,000 mm 0,0 UV-I 0 W/m 12,8 C 15,1 C 0,0 km/h (0 Bft) 95,65 %
17.06.2019 04:07 24,6 C 15,2 C 2,2 C 20,6 C 62 % 86 % 1020,6 hPa 0,0 l/m 0,0 km/h (0 Bft) N 0 0 min 0,000 mm 0,0 UV-I 0 W/m 12,9 C 15,2 C 0,0 km/h (0 Bft) 100,00 %
17.06.2019 04:06 24,6 C 15,2 C 2,2 C 20,6 C 62 % 86 % 1020,6 hPa 0,0 l/m 0,0 km/h (0 Bft) N 0 0 min 0,000 mm 0,0 UV-I 0 W/m 12,9 C 15,2 C 0,0 km/h (0 Bft) 95,65 %
17.06.2019 04:05 24,6 C 15,2 C 2,2 C 20,6 C 62 % 86 % 1020,6 hPa 0,0 l/m 0,0 km/h (0 Bft) W 270 0 min 0,000 mm 0,0 UV-I 0 W/m 12,9 C 15,2 C 1,6 km/h (1 Bft) 95,65 %
17.06.2019 04:04 24,6 C 15,2 C 2,2 C 20,6 C 62 % 86 % 1020,6 hPa 0,0 l/m 0,0 km/h (0 Bft) N 0 0 min 0,000 mm 0,0 UV-I 0 W/m 12,9 C 15,2 C 0,0 km/h (0 Bft) 95,65 %
17.06.2019 04:03 24,6 C 15,2 C 2,2 C 20,6 C 62 % 86 % 1020,6 hPa 0,0 l/m 0,0 km/h (0 Bft) W 270 0 min 0,000 mm 0,0 UV-I 0 W/m 12,9 C 15,2 C 1,6 km/h (1 Bft) 91,30 %
17.06.2019 04:02 24,6 C 15,2 C 2,2 C 20,6 C 62 % 85 % 1020,6 hPa 0,0 l/m 0,0 km/h (0 Bft) N 0 0 min 0,000 mm 0,0 UV-I 0 W/m 12,7 C 15,2 C 0,0 km/h (0 Bft) 91,30 %
17.06.2019 04:01 24,6 C 15,2 C 2,2 C 20,6 C 62 % 85 % 1020,6 hPa 0,0 l/m 0,0 km/h (0 Bft) W 270 0 min 0,000 mm 0,0 UV-I 0 W/m 12,7 C 15,2 C 1,6 km/h (1 Bft) 95,65 %
17.06.2019 04:00 24,6 C 15,2 C 2,2 C 20,6 C 62 % 85 % 1020,6 hPa 0,0 l/m 3,2 km/h (1 Bft) W 270 0 min 0,025 mm 0,0 UV-I 0 W/m 12,7 C 15,2 C 4,8 km/h (1 Bft) 95,65 %
17.06.2019 03:59 24,6 C 15,2 C 2,2 C 20,6 C 62 % 85 % 1020,4 hPa 0,0 l/m 1,6 km/h (1 Bft) W 270 0 min 0,000 mm 0,0 UV-I 0 W/m 12,7 C 15,2 C 4,8 km/h (1 Bft) 91,30 %
17.06.2019 03:58 24,6 C 15,2 C 2,2 C 20,6 C 62 % 85 % 1020,4 hPa 0,0 l/m 0,0 km/h (0 Bft) W 270 0 min 0,000 mm 0,0 UV-I 0 W/m 12,7 C 15,2 C 1,6 km/h (1 Bft) 100,00 %
17.06.2019 03:57 24,6 C 15,3 C 2,2 C 20,6 C 62 % 85 % 1020,4 hPa 0,0 l/m 0,0 km/h (0 Bft) N 0 0 min 0,000 mm 0,0 UV-I 0 W/m 12,8 C 15,3 C 0,0 km/h (0 Bft) 95,65 %
17.06.2019 03:56 24,6 C 15,3 C 2,2 C 20,6 C 62 % 85 % 1020,4 hPa 0,0 l/m 0,0 km/h (0 Bft) N 0 0 min 0,000 mm 0,0 UV-I 0 W/m 12,8 C 15,3 C 0,0 km/h (0 Bft) 95,65 %
17.06.2019 03:55 24,6 C 15,3 C 2,2 C 20,6 C 62 % 85 % 1020,4 hPa 0,0 l/m 0,0 km/h (0 Bft) W 270 0 min 0,000 mm 0,0 UV-I 0 W/m 12,8 C 15,3 C 1,6 km/h (1 Bft) 95,65 %
17.06.2019 03:54 24,6 C 15,3 C 2,2 C 20,6 C 62 % 85 % 1020,4 hPa 0,0 l/m 0,0 km/h (0 Bft) N 0 0 min 0,000 mm 0,0 UV-I 0 W/m 12,8 C 15,3 C 0,0 km/h (0 Bft) 95,65 %
17.06.2019 03:53 24,6 C 15,3 C 2,2 C 20,6 C 62 % 85 % 1020,4 hPa 0,0 l/m 0,0 km/h (0 Bft) W 270 0 min 0,000 mm 0,0 UV-I 0 W/m 12,8 C 15,3 C 1,6 km/h (1 Bft) 95,65 %
17.06.2019 03:52 24,6 C 15,3 C 2,2 C 20,6 C 62 % 85 % 1020,4 hPa 0,0 l/m 0,0 km/h (0 Bft) N 0 0 min 0,000 mm 0,0 UV-I 0 W/m 12,8 C 15,3 C 0,0 km/h (0 Bft) 100,00 %
17.06.2019 03:51 24,6 C 15,3 C 2,2 C 20,6 C 62 % 85 % 1020,4 hPa 0,0 l/m 0,0 km/h (0 Bft) N 0 0 min 0,000 mm 0,0 UV-I 0 W/m 12,8 C 15,3 C 0,0 km/h (0 Bft) 91,30 %
17.06.2019 03:50 24,6 C 15,3 C 2,2 C 20,6 C 62 % 85 % 1020,4 hPa 0,0 l/m 0,0 km/h (0 Bft) N 0 0 min 0,000 mm 0,0 UV-I 0 W/m 12,8 C 15,3 C 0,0 km/h (0 Bft) 91,30 %
17.06.2019 03:49 24,6 C 15,3 C 2,2 C 20,6 C 62 % 85 % 1020,4 hPa 0,0 l/m 0,0 km/h (0 Bft) N 0 0 min 0,000 mm 0,0 UV-I 0 W/m 12,8 C 15,3 C 0,0 km/h (0 Bft) 100,00 %
17.06.2019 03:48 24,6 C 15,3 C 2,2 C 20,6 C 62 % 85 % 1020,4 hPa 0,0 l/m 0,0 km/h (0 Bft) W 270 0 min 0,000 mm 0,0 UV-I 0 W/m 12,8 C 15,3 C 1,6 km/h (1 Bft) 95,65 %
17.06.2019 03:47 24,6 C 15,3 C 2,2 C 20,6 C 62 % 85 % 1020,4 hPa 0,0 l/m 0,0 km/h (0 Bft) W 270 0 min 0,000 mm 0,0 UV-I 0 W/m 12,8 C 15,3 C 1,6 km/h (1 Bft) 95,65 %
17.06.2019 03:46 24,6 C 15,4 C 2,2 C 20,6 C 62 % 85 % 1020,4 hPa 0,0 l/m 0,0 km/h (0 Bft) W 270 0 min 0,000 mm 0,0 UV-I 0 W/m 12,9 C 15,4 C 1,6 km/h (1 Bft) 100,00 %
17.06.2019 03:45 24,6 C 15,4 C 2,2 C 20,6 C 63 % 85 % 1020,4 hPa 0,0 l/m 0,0 km/h (0 Bft) N 0 0 min 0,000 mm 0,0 UV-I 0 W/m 12,9 C 15,4 C 0,0 km/h (0 Bft) 86,96 %
17.06.2019 03:44 24,6 C 15,4 C 2,2 C 20,6 C 62 % 85 % 1020,7 hPa 0,0 l/m 0,0 km/h (0 Bft) W 270 0 min 0,000 mm 0,0 UV-I 0 W/m 12,9 C 15,4 C 1,6 km/h (1 Bft) 91,30 %
17.06.2019 03:43 24,6 C 15,4 C 2,2 C 20,6 C 62 % 85 % 1020,7 hPa 0,0 l/m 0,0 km/h (0 Bft) N 0 0 min 0,000 mm 0,0 UV-I 0 W/m 12,9 C 15,4 C 0,0 km/h (0 Bft) 95,65 %
17.06.2019 03:42 24,6 C 15,4 C 2,2 C 20,6 C 62 % 85 % 1020,7 hPa 0,0 l/m 0,0 km/h (0 Bft) N 0 0 min 0,000 mm 0,0 UV-I 0 W/m 12,9 C 15,4 C 0,0 km/h (0 Bft) 95,65 %
17.06.2019 03:41 24,6 C 15,4 C 2,2 C 20,6 C 62 % 85 % 1020,7 hPa 0,0 l/m 0,0 km/h (0 Bft) N 0 0 min 0,000 mm 0,0 UV-I 0 W/m 12,9 C 15,4 C 0,0 km/h (0 Bft) 86,96 %
17.06.2019 03:40 24,6 C 15,4 C 2,2 C 20,6 C 62 % 85 % 1020,7 hPa 0,0 l/m 0,0 km/h (0 Bft) W 270 0 min 0,000 mm 0,0 UV-I 0 W/m 12,9 C 15,4 C 1,6 km/h (1 Bft) 95,65 %
17.06.2019 03:39 24,6 C 15,4 C 2,2 C 20,6 C 63 % 85 % 1020,7 hPa 0,0 l/m 0,0 km/h (0 Bft) W 270 0 min 0,000 mm 0,0 UV-I 0 W/m 12,9 C 15,4 C 3,2 km/h (1 Bft) 91,30 %
17.06.2019 03:38 24,6 C 15,4 C 2,2 C 20,6 C 63 % 85 % 1020,7 hPa 0,0 l/m 3,2 km/h (1 Bft) W 270 0 min 0,000 mm 0,0 UV-I 0 W/m 12,9 C 15,4 C 4,8 km/h (1 Bft) 91,30 %
17.06.2019 03:37 24,6 C 15,4 C 2,2 C 20,6 C 63 % 85 % 1020,7 hPa 0,0 l/m 0,0 km/h (0 Bft) W 270 0 min 0,000 mm 0,0 UV-I 0 W/m 12,9 C 15,4 C 1,6 km/h (1 Bft) 91,30 %
17.06.2019 03:36 24,6 C 15,4 C 2,2 C 20,6 C 62 % 85 % 1020,7 hPa 0,0 l/m 0,0 km/h (0 Bft) W 270 0 min 0,000 mm 0,0 UV-I 0 W/m 12,9 C 15,4 C 1,6 km/h (1 Bft) 100,00 %
17.06.2019 03:35 24,6 C 15,4 C 2,2 C 20,6 C 62 % 85 % 1020,7 hPa 0,0 l/m 0,0 km/h (0 Bft) N 0 0 min 0,000 mm 0,0 UV-I 0 W/m 12,9 C 15,4 C 0,0 km/h (0 Bft) 91,30 %
17.06.2019 03:34 24,6 C 15,4 C 2,2 C 20,6 C 62 % 84 % 1020,7 hPa 0,0 l/m 0,0 km/h (0 Bft) N 0 0 min 0,000 mm 0,0 UV-I 0 W/m 12,7 C 15,4 C 0,0 km/h (0 Bft) 95,65 %
17.06.2019 03:33 24,6 C 15,5 C 2,2 C 20,6 C 62 % 84 % 1020,7 hPa 0,0 l/m 0,0 km/h (0 Bft) W 270 0 min 0,000 mm 0,0 UV-I 0 W/m 12,8 C 15,5 C 1,6 km/h (1 Bft) 91,30 %
17.06.2019 03:32 24,6 C 15,5 C 2,2 C 20,6 C 62 % 84 % 1020,7 hPa 0,0 l/m 0,0 km/h (0 Bft) W 270 0 min 0,000 mm 0,0 UV-I 0 W/m 12,8 C 15,5 C 1,6 km/h (1 Bft) 91,30 %
17.06.2019 03:31 24,6 C 15,5 C 2,2 C 20,6 C 62 % 84 % 1020,7 hPa 0,0 l/m 0,0 km/h (0 Bft) N 0 0 min 0,000 mm 0,0 UV-I 0 W/m 12,8 C 15,5 C 0,0 km/h (0 Bft) 91,30 %
17.06.2019 03:30 24,6 C 15,5 C 2,2 C 20,6 C 63 % 84 % 1020,7 hPa 0,0 l/m 0,0 km/h (0 Bft) N 0 0 min 0,000 mm 0,0 UV-I 0 W/m 12,8 C 15,5 C 0,0 km/h (0 Bft) 95,65 %
17.06.2019 03:29 24,6 C 15,6 C 2,2 C 20,6 C 63 % 84 % 1020,7 hPa 0,0 l/m 0,0 km/h (0 Bft) W 270 0 min 0,000 mm 0,0 UV-I 0 W/m 12,9 C 15,6 C 1,6 km/h (1 Bft) 91,30 %
17.06.2019 03:28 24,6 C 15,6 C 2,2 C 20,6 C 62 % 84 % 1020,7 hPa 0,0 l/m 0,0 km/h (0 Bft) W 270 0 min 0,000 mm 0,0 UV-I 0 W/m 12,9 C 15,6 C 1,6 km/h (1 Bft) 91,30 %
17.06.2019 03:27 24,6 C 15,6 C 2,2 C 20,6 C 62 % 84 % 1020,7 hPa 0,0 l/m 1,6 km/h (1 Bft) W 270 0 min 0,000 mm 0,0 UV-I 0 W/m 12,9 C 15,6 C 3,2 km/h (1 Bft) 91,30 %
17.06.2019 03:26 24,6 C 15,6 C 2,2 C 20,6 C 62 % 84 % 1020,7 hPa 0,0 l/m 0,0 km/h (0 Bft) W 270 0 min 0,000 mm 0,0 UV-I 0 W/m 12,9 C 15,6 C 1,6 km/h (1 Bft) 91,30 %
17.06.2019 03:25 24,6 C 15,6 C 2,2 C 20,6 C 62 % 84 % 1020,7 hPa 0,0 l/m 0,0 km/h (0 Bft) W 270 0 min 0,000 mm 0,0 UV-I 0 W/m 12,9 C 15,6 C 1,6 km/h (1 Bft) 91,30 %
17.06.2019 03:24 24,6 C 15,6 C 2,2 C 20,6 C 62 % 83 % 1020,7 hPa 0,0 l/m 0,0 km/h (0 Bft) N 0 0 min 0,000 mm 0,0 UV-I 0 W/m 12,7 C 15,6 C 0,0 km/h (0 Bft) 91,30 %
17.06.2019 03:23 24,6 C 15,7 C 2,2 C 20,6 C 63 % 83 % 1020,7 hPa 0,0 l/m 0,0 km/h (0 Bft) W 270 0 min 0,000 mm 0,0 UV-I 0 W/m 12,8 C 15,7 C 1,6 km/h (1 Bft) 95,65 %
17.06.2019 03:22 24,6 C 15,7 C 2,2 C 20,6 C 62 % 83 % 1020,7 hPa 0,0 l/m 0,0 km/h (0 Bft) W 270 0 min 0,000 mm 0,0 UV-I 0 W/m 12,8 C 15,7 C 1,6 km/h (1 Bft) 86,96 %
17.06.2019 03:21 24,6 C 15,7 C 2,2 C 20,6 C 63 % 83 % 1020,7 hPa 0,0 l/m 1,6 km/h (1 Bft) W 270 0 min 0,000 mm 0,0 UV-I 0 W/m 12,8 C 15,7 C 3,2 km/h (1 Bft) 95,65 %
17.06.2019 03:20 24,6 C 15,7 C 2,2 C 20,6 C 62 % 83 % 1020,7 hPa 0,0 l/m 0,0 km/h (0 Bft) W 270 0 min 0,000 mm 0,0 UV-I 0 W/m 12,8 C 15,7 C 1,6 km/h (1 Bft) 91,30 %
17.06.2019 03:19 24,6 C 15,7 C 2,2 C 20,6 C 62 % 83 % 1020,7 hPa 0,0 l/m 0,0 km/h (0 Bft) N 0 0 min 0,000 mm 0,0 UV-I 0 W/m 12,8 C 15,7 C 0,0 km/h (0 Bft) 86,96 %
17.06.2019 03:18 24,6 C 15,7 C 2,2 C 20,6 C 62 % 83 % 1020,7 hPa 0,0 l/m 0,0 km/h (0 Bft) N 0 0 min 0,000 mm 0,0 UV-I 0 W/m 12,8 C 15,7 C 0,0 km/h (0 Bft) 95,65 %
17.06.2019 03:17 24,6 C 15,7 C 2,2 C 20,6 C 62 % 83 % 1020,7 hPa 0,0 l/m 0,0 km/h (0 Bft) N 0 0 min 0,000 mm 0,0 UV-I 0 W/m 12,8 C 15,7 C 0,0 km/h (0 Bft) 91,30 %
17.06.2019 03:16 24,6 C 15,7 C 2,2 C 20,6 C 63 % 83 % 1020,7 hPa 0,0 l/m 0,0 km/h (0 Bft) N 0 0 min 0,000 mm 0,0 UV-I 0 W/m 12,8 C 15,7 C 0,0 km/h (0 Bft) 86,96 %
17.06.2019 03:15 24,6 C 15,8 C 2,2 C 20,6 C 63 % 82 % 1020,7 hPa 0,0 l/m 0,0 km/h (0 Bft) N 0 0 min 0,000 mm 0,0 UV-I 0 W/m 12,7 C 15,8 C 0,0 km/h (0 Bft) 95,65 %
17.06.2019 03:14 24,6 C 15,8 C 2,2 C 20,6 C 62 % 83 % 1020,8 hPa 0,0 l/m 0,0 km/h (0 Bft) N 0 0 min 0,000 mm 0,0 UV-I 0 W/m 12,9 C 15,8 C 0,0 km/h (0 Bft) 91,30 %
17.06.2019 03:13 24,6 C 15,8 C 2,2 C 20,6 C 62 % 83 % 1020,8 hPa 0,0 l/m 0,0 km/h (0 Bft) N 0 0 min 0,000 mm 0,0 UV-I 0 W/m 12,9 C 15,8 C 0,0 km/h (0 Bft) 95,65 %
17.06.2019 03:12 24,6 C 15,8 C 2,2 C 20,6 C 63 % 83 % 1020,8 hPa 0,0 l/m 0,0 km/h (0 Bft) N 0 0 min 0,000 mm 0,0 UV-I 0 W/m 12,9 C 15,8 C 0,0 km/h (0 Bft) 95,65 %
17.06.2019 03:11 24,6 C 15,8 C 2,2 C 20,6 C 62 % 83 % 1020,8 hPa 0,0 l/m 0,0 km/h (0 Bft) N 0 0 min 0,000 mm 0,0 UV-I 0 W/m 12,9 C 15,8 C 0,0 km/h (0 Bft) 91,30 %
17.06.2019 03:10 24,6 C 15,8 C 2,8 C 20,6 C 62 % 83 % 1020,8 hPa 0,0 l/m 0,0 km/h (0 Bft) N 0 0 min 0,000 mm 0,0 UV-I 0 W/m 12,9 C 15,8 C 0,0 km/h (0 Bft) 91,30 %
17.06.2019 03:09 24,6 C 15,8 C 2,2 C 20,6 C 63 % 83 % 1020,8 hPa 0,0 l/m 0,0 km/h (0 Bft) N 0 0 min 0,000 mm 0,0 UV-I 0 W/m 12,9 C 15,8 C 0,0 km/h (0 Bft) 100,00 %
17.06.2019 03:08 24,6 C 15,9 C 2,8 C 20,6 C 62 % 83 % 1020,8 hPa 0,0 l/m 0,0 km/h (0 Bft) N 0 0 min 0,000 mm 0,0 UV-I 0 W/m 13,0 C 15,9 C 0,0 km/h (0 Bft) 91,30 %
17.06.2019 03:07 24,6 C 15,9 C 2,8 C 20,6 C 62 % 83 % 1020,8 hPa 0,0 l/m 0,0 km/h (0 Bft) N 0 0 min 0,000 mm 0,0 UV-I 0 W/m 13,0 C 15,9 C 0,0 km/h (0 Bft) 91,30 %
17.06.2019 03:06 24,6 C 15,9 C 2,8 C 20,6 C 62 % 83 % 1020,8 hPa 0,0 l/m 0,0 km/h (0 Bft) N 0 0 min 0,000 mm 0,0 UV-I 0 W/m 13,0 C 15,9 C 0,0 km/h (0 Bft) 100,00 %
17.06.2019 03:05 24,6 C 15,9 C 2,8 C 20,6 C 62 % 83 % 1020,8 hPa 0,0 l/m 0,0 km/h (0 Bft) N 0 0 min 0,000 mm 0,0 UV-I 0 W/m 13,0 C 15,9 C 0,0 km/h (0 Bft) 91,30 %
17.06.2019 03:04 24,6 C 15,9 C 2,2 C 20,6 C 62 % 83 % 1020,8 hPa 0,0 l/m 0,0 km/h (0 Bft) N 0 0 min 0,000 mm 0,0 UV-I 0 W/m 13,0 C 15,9 C 0,0 km/h (0 Bft) 95,65 %
17.06.2019 03:03 24,6 C 15,9 C 2,8 C 20,6 C 62 % 83 % 1020,8 hPa 0,0 l/m 0,0 km/h (0 Bft) N 0 0 min 0,000 mm 0,0 UV-I 0 W/m 13,0 C 15,9 C 0,0 km/h (0 Bft) 95,65 %
17.06.2019 03:02 24,6 C 15,9 C 2,8 C 20,6 C 62 % 83 % 1020,8 hPa 0,0 l/m 0,0 km/h (0 Bft) N 0 0 min 0,000 mm 0,0 UV-I 0 W/m 13,0 C 15,9 C 0,0 km/h (0 Bft) 95,65 %
17.06.2019 03:01 24,6 C 15,9 C 2,8 C 20,6 C 62 % 83 % 1020,8 hPa 0,0 l/m 0,0 km/h (0 Bft) N 0 0 min 0,000 mm 0,0 UV-I 0 W/m 13,0 C 15,9 C 0,0 km/h (0 Bft) 86,96 %
17.06.2019 03:00 24,6 C 15,9 C 2,8 C 20,6 C 63 % 83 % 1020,8 hPa 0,0 l/m 0,0 km/h (0 Bft) N 0 0 min 0,025 mm 0,0 UV-I 0 W/m 13,0 C 15,9 C 0,0 km/h (0 Bft) 95,65 %
17.06.2019 02:59 24,6 C 15,9 C 2,8 C 20,6 C 62 % 83 % 1020,7 hPa 0,0 l/m 0,0 km/h (0 Bft) N 0 0 min 0,000 mm 0,0 UV-I 0 W/m 13,0 C 15,9 C 0,0 km/h (0 Bft) 91,30 %
17.06.2019 02:58 24,6 C 15,9 C 2,8 C 20,6 C 62 % 83 % 1020,7 hPa 0,0 l/m 0,0 km/h (0 Bft) N 0 0 min 0,000 mm 0,0 UV-I 0 W/m 13,0 C 15,9 C 0,0 km/h (0 Bft) 95,65 %
17.06.2019 02:57 24,6 C 16,0 C 2,8 C 20,6 C 62 % 83 % 1020,7 hPa 0,0 l/m 0,0 km/h (0 Bft) N 0 0 min 0,000 mm 0,0 UV-I 0 W/m 13,1 C 16,0 C 0,0 km/h (0 Bft) 95,65 %
17.06.2019 02:56 24,6 C 16,0 C 2,8 C 20,6 C 62 % 83 % 1020,7 hPa 0,0 l/m 0,0 km/h (0 Bft) N 0 0 min 0,000 mm 0,0 UV-I 0 W/m 13,1 C 16,0 C 0,0 km/h (0 Bft) 95,65 %
17.06.2019 02:55 24,6 C 16,0 C 2,8 C 20,6 C 62 % 83 % 1020,7 hPa 0,0 l/m 0,0 km/h (0 Bft) N 0 0 min 0,000 mm 0,0 UV-I 0 W/m 13,1 C 16,0 C 0,0 km/h (0 Bft) 86,96 %
17.06.2019 02:54 24,6 C 16,0 C 2,8 C 20,6 C 62 % 82 % 1020,7 hPa 0,0 l/m 0,0 km/h (0 Bft) N 0 0 min 0,000 mm 0,0 UV-I 0 W/m 12,9 C 16,0 C 0,0 km/h (0 Bft) 91,30 %
17.06.2019 02:53 24,6 C 16,0 C 2,8 C 20,6 C 62 % 82 % 1020,7 hPa 0,0 l/m 0,0 km/h (0 Bft) N 0 0 min 0,000 mm 0,0 UV-I 0 W/m 12,9 C 16,0 C 0,0 km/h (0 Bft) 91,30 %
17.06.2019 02:52 24,6 C 16,0 C 2,8 C 20,6 C 62 % 82 % 1020,7 hPa 0,0 l/m 0,0 km/h (0 Bft) N 0 0 min 0,000 mm 0,0 UV-I 0 W/m 12,9 C 16,0 C 0,0 km/h (0 Bft) 86,96 %
17.06.2019 02:51 24,6 C 16,0 C 2,8 C 20,6 C 62 % 82 % 1020,7 hPa 0,0 l/m 0,0 km/h (0 Bft) N 0 0 min 0,000 mm 0,0 UV-I 0 W/m 12,9 C 16,0 C 0,0 km/h (0 Bft) 95,65 %
17.06.2019 02:50 24,6 C 16,0 C 2,8 C 20,6 C 62 % 82 % 1020,7 hPa 0,0 l/m 0,0 km/h (0 Bft) N 0 0 min 0,000 mm 0,0 UV-I 0 W/m 12,9 C 16,0 C 0,0 km/h (0 Bft) 95,65 %
17.06.2019 02:49 24,6 C 16,1 C 2,8 C 20,6 C 62 % 82 % 1020,7 hPa 0,0 l/m 0,0 km/h (0 Bft) W 270 0 min 0,000 mm 0,0 UV-I 0 W/m 13,0 C 16,1 C 1,6 km/h (1 Bft) 91,30 %
17.06.2019 02:48 24,6 C 16,1 C 2,8 C 20,6 C 62 % 82 % 1020,7 hPa 0,0 l/m 0,0 km/h (0 Bft) N 0 0 min 0,000 mm 0,0 UV-I 0 W/m 13,0 C 16,1 C 0,0 km/h (0 Bft) 91,30 %
17.06.2019 02:47 24,6 C 16,1 C 2,8 C 20,6 C 62 % 82 % 1020,7 hPa 0,0 l/m 0,0 km/h (0 Bft) N 0 0 min 0,000 mm 0,0 UV-I 0 W/m 13,0 C 16,1 C 0,0 km/h (0 Bft) 95,65 %
17.06.2019 02:46 24,6 C 16,1 C 2,8 C 20,6 C 62 % 82 % 1020,7 hPa 0,0 l/m 0,0 km/h (0 Bft) N 0 0 min 0,000 mm 0,0 UV-I 0 W/m 13,0 C 16,1 C 0,0 km/h (0 Bft) 86,96 %
17.06.2019 02:45 24,6 C 16,1 C 2,8 C 20,6 C 62 % 82 % 1020,7 hPa 0,0 l/m 0,0 km/h (0 Bft) N 0 0 min 0,000 mm 0,0 UV-I 0 W/m 13,0 C 16,1 C 0,0 km/h (0 Bft) 95,65 %
17.06.2019 02:44 24,6 C 16,1 C 2,8 C 20,6 C 62 % 82 % 1020,7 hPa 0,0 l/m 0,0 km/h (0 Bft) N 0 0 min 0,000 mm 0,0 UV-I 0 W/m 13,0 C 16,1 C 0,0 km/h (0 Bft) 95,65 %
17.06.2019 02:43 24,6 C 16,1 C 2,8 C 20,6 C 62 % 82 % 1020,7 hPa 0,0 l/m 0,0 km/h (0 Bft) N 0 0 min 0,000 mm 0,0 UV-I 0 W/m 13,0 C 16,1 C 0,0 km/h (0 Bft) 91,30 %
17.06.2019 02:42 24,6 C 16,1 C 2,8 C 20,6 C 62 % 82 % 1020,7 hPa 0,0 l/m 0,0 km/h (0 Bft) N 0 0 min 0,000 mm 0,0 UV-I 0 W/m 13,0 C 16,1 C 0,0 km/h (0 Bft) 86,96 %
17.06.2019 02:41 24,6 C 16,1 C 2,8 C 20,6 C 62 % 82 % 1020,7 hPa 0,0 l/m 0,0 km/h (0 Bft) N 0 0 min 0,000 mm 0,0 UV-I 0 W/m 13,0 C 16,1 C 0,0 km/h (0 Bft) 95,65 %
17.06.2019 02:40 24,6 C 16,2 C 2,8 C 20,6 C 62 % 82 % 1020,7 hPa 0,0 l/m 0,0 km/h (0 Bft) N 0 0 min 0,000 mm 0,0 UV-I 0 W/m 13,1 C 16,2 C 0,0 km/h (0 Bft) 91,30 %
17.06.2019 02:39 24,6 C 16,2 C 2,8 C 20,6 C 62 % 82 % 1020,7 hPa 0,0 l/m 0,0 km/h (0 Bft) N 0 0 min 0,000 mm 0,0 UV-I 0 W/m 13,1 C 16,2 C 0,0 km/h (0 Bft) 95,65 %
17.06.2019 02:38 24,6 C 16,2 C 2,8 C 20,6 C 62 % 82 % 1020,7 hPa 0,0 l/m 0,0 km/h (0 Bft) N 0 0 min 0,000 mm 0,0 UV-I 0 W/m 13,1 C 16,2 C 0,0 km/h (0 Bft) 91,30 %
17.06.2019 02:37 24,6 C 16,2 C 2,8 C 20,6 C 62 % 82 % 1020,7 hPa 0,0 l/m 0,0 km/h (0 Bft) N 0 0 min 0,000 mm 0,0 UV-I 0 W/m 13,1 C 16,2 C 0,0 km/h (0 Bft) 91,30 %
17.06.2019 02:36 24,6 C 16,2 C 2,8 C 20,6 C 62 % 81 % 1020,7 hPa 0,0 l/m 0,0 km/h (0 Bft) N 0 0 min 0,000 mm 0,0 UV-I 0 W/m 12,9 C 16,2 C 0,0 km/h (0 Bft) 91,30 %
17.06.2019 02:35 24,6 C 16,2 C 2,8 C 20,6 C 62 % 81 % 1020,7 hPa 0,0 l/m 0,0 km/h (0 Bft) W 270 0 min 0,000 mm 0,0 UV-I 0 W/m 12,9 C 16,2 C 1,6 km/h (1 Bft) 95,65 %
17.06.2019 02:34 24,6 C 16,2 C 2,8 C 20,6 C 63 % 81 % 1020,7 hPa 0,0 l/m 0,0 km/h (0 Bft) N 0 0 min 0,000 mm 0,0 UV-I 0 W/m 12,9 C 16,2 C 0,0 km/h (0 Bft) 95,65 %
17.06.2019 02:33 24,6 C 16,2 C 2,8 C 20,6 C 63 % 80 % 1020,7 hPa 0,0 l/m 0,0 km/h (0 Bft) N 0 0 min 0,000 mm 0,0 UV-I 0 W/m 12,7 C 16,2 C 0,0 km/h (0 Bft) 91,30 %
17.06.2019 02:32 24,6 C 16,3 C 2,8 C 20,6 C 62 % 80 % 1020,7 hPa 0,0 l/m 0,0 km/h (0 Bft) N 0 0 min 0,000 mm 0,0 UV-I 0 W/m 12,8 C 16,3 C 0,0 km/h (0 Bft) 100,00 %
17.06.2019 02:31 24,6 C 16,3 C 2,8 C 20,6 C 62 % 80 % 1020,7 hPa 0,0 l/m 0,0 km/h (0 Bft) N 0 0 min 0,000 mm 0,0 UV-I 0 W/m 12,8 C 16,3 C 0,0 km/h (0 Bft) 91,30 %
17.06.2019 02:30 24,6 C 16,3 C 2,8 C 20,6 C 62 % 80 % 1020,7 hPa 0,0 l/m 0,0 km/h (0 Bft) N 0 0 min 0,000 mm 0,0 UV-I 0 W/m 12,8 C 16,3 C 0,0 km/h (0 Bft) 95,65 %
17.06.2019 02:29 24,6 C 16,3 C 2,8 C 20,6 C 62 % 80 % 1020,8 hPa 0,0 l/m 0,0 km/h (0 Bft) W 270 0 min 0,000 mm 0,0 UV-I 0 W/m 12,8 C 16,3 C 1,6 km/h (1 Bft) 95,65 %
17.06.2019 02:28 24,6 C 16,4 C 2,8 C 20,6 C 62 % 80 % 1020,8 hPa 0,0 l/m 0,0 km/h (0 Bft) N 0 0 min 0,000 mm 0,0 UV-I 0 W/m 12,9 C 16,4 C 0,0 km/h (0 Bft) 91,30 %
17.06.2019 02:27 24,6 C 16,4 C 2,8 C 20,6 C 62 % 80 % 1020,8 hPa 0,0 l/m 0,0 km/h (0 Bft) W 270 0 min 0,000 mm 0,0 UV-I 0 W/m 12,9 C 16,4 C 1,6 km/h (1 Bft) 91,30 %
17.06.2019 02:26 24,6 C 16,4 C 2,8 C 20,6 C 62 % 80 % 1020,8 hPa 0,0 l/m 0,0 km/h (0 Bft) N 0 0 min 0,000 mm 0,0 UV-I 0 W/m 12,9 C 16,4 C 0,0 km/h (0 Bft) 100,00 %
17.06.2019 02:25 24,6 C 16,4 C 2,8 C 20,6 C 62 % 80 % 1020,8 hPa 0,0 l/m 0,0 km/h (0 Bft) N 0 0 min 0,000 mm 0,0 UV-I 0 W/m 12,9 C 16,4 C 0,0 km/h (0 Bft) 91,30 %
17.06.2019 02:24 24,6 C 16,4 C 2,8 C 20,6 C 62 % 80 % 1020,8 hPa 0,0 l/m 0,0 km/h (0 Bft) N 0 0 min 0,000 mm 0,0 UV-I 0 W/m 12,9 C 16,4 C 0,0 km/h (0 Bft) 95,65 %
17.06.2019 02:23 24,6 C 16,4 C 2,8 C 20,6 C 62 % 80 % 1020,8 hPa 0,0 l/m 0,0 km/h (0 Bft) N 0 0 min 0,000 mm 0,0 UV-I 0 W/m 12,9 C 16,4 C 0,0 km/h (0 Bft) 95,65 %
17.06.2019 02:22 24,6 C 16,4 C 2,8 C 20,6 C 62 % 80 % 1020,8 hPa 0,0 l/m 0,0 km/h (0 Bft) N 0 0 min 0,000 mm 0,0 UV-I 0 W/m 12,9 C 16,4 C 0,0 km/h (0 Bft) 95,65 %
17.06.2019 02:21 24,6 C 16,5 C 2,8 C 20,6 C 62 % 80 % 1020,8 hPa 0,0 l/m 0,0 km/h (0 Bft) N 0 0 min 0,000 mm 0,0 UV-I 0 W/m 13,0 C 16,5 C 0,0 km/h (0 Bft) 91,30 %
17.06.2019 02:20 24,6 C 16,5 C 2,8 C 20,6 C 62 % 80 % 1020,8 hPa 0,0 l/m 0,0 km/h (0 Bft) N 0 0 min 0,000 mm 0,0 UV-I 0 W/m 13,0 C 16,5 C 0,0 km/h (0 Bft) 95,65 %
17.06.2019 02:19 24,6 C 16,5 C 2,8 C 20,6 C 62 % 80 % 1020,8 hPa 0,0 l/m 0,0 km/h (0 Bft) N 0 0 min 0,000 mm 0,0 UV-I 0 W/m 13,0 C 16,5 C 0,0 km/h (0 Bft) 95,65 %
17.06.2019 02:18 24,6 C 16,6 C 2,8 C 20,6 C 62 % 80 % 1020,8 hPa 0,0 l/m 0,0 km/h (0 Bft) N 0 0 min 0,000 mm 0,0 UV-I 0 W/m 13,1 C 16,6 C 0,0 km/h (0 Bft) 91,30 %
17.06.2019 02:17 24,6 C 16,6 C 2,8 C 20,6 C 62 % 80 % 1020,8 hPa 0,0 l/m 0,0 km/h (0 Bft) N 0 0 min 0,000 mm 0,0 UV-I 0 W/m 13,1 C 16,6 C 0,0 km/h (0 Bft) 100,00 %
17.06.2019 02:16 24,6 C 16,6 C 2,8 C 20,6 C 62 % 80 % 1020,8 hPa 0,0 l/m 0,0 km/h (0 Bft) N 0 0 min 0,000 mm 0,0 UV-I 0 W/m 13,1 C 16,6 C 0,0 km/h (0 Bft) 86,96 %
17.06.2019 02:15 24,6 C 16,6 C 2,8 C 21,1 C 62 % 80 % 1020,8 hPa 0,0 l/m 0,0 km/h (0 Bft) N 0 0 min 0,000 mm 0,0 UV-I 0 W/m 13,1 C 16,6 C 0,0 km/h (0 Bft) 95,65 %
17.06.2019 02:14 24,6 C 16,6 C 2,8 C 21,1 C 62 % 80 % 1020,6 hPa 0,0 l/m 0,0 km/h (0 Bft) N 0 0 min 0,000 mm 0,0 UV-I 0 W/m 13,1 C 16,6 C 0,0 km/h (0 Bft) 95,65 %
17.06.2019 02:13 24,6 C 16,6 C 2,8 C 21,1 C 62 % 80 % 1020,6 hPa 0,0 l/m 0,0 km/h (0 Bft) N 0 0 min 0,000 mm 0,0 UV-I 0 W/m 13,1 C 16,6 C 0,0 km/h (0 Bft) 95,65 %
17.06.2019 02:12 24,6 C 16,7 C 2,8 C 21,1 C 62 % 80 % 1020,6 hPa 0,0 l/m 0,0 km/h (0 Bft) N 0 0 min 0,000 mm 0,0 UV-I 0 W/m 13,2 C 16,7 C 0,0 km/h (0 Bft) 91,30 %
17.06.2019 02:11 24,6 C 16,7 C 2,8 C 21,1 C 62 % 80 % 1020,6 hPa 0,0 l/m 0,0 km/h (0 Bft) N 0 0 min 0,000 mm 0,0 UV-I 0 W/m 13,2 C 16,7 C 0,0 km/h (0 Bft) 100,00 %
17.06.2019 02:10 24,6 C 16,7 C 2,8 C 21,1 C 62 % 80 % 1020,6 hPa 0,0 l/m 0,0 km/h (0 Bft) N 0 0 min 0,000 mm 0,0 UV-I 0 W/m 13,2 C 16,7 C 0,0 km/h (0 Bft) 91,30 %
17.06.2019 02:09 24,6 C 16,7 C 2,8 C 21,1 C 62 % 80 % 1020,6 hPa 0,0 l/m 0,0 km/h (0 Bft) N 0 0 min 0,000 mm 0,0 UV-I 0 W/m 13,2 C 16,7 C 0,0 km/h (0 Bft) 95,65 %
17.06.2019 02:08 24,6 C 16,8 C 2,8 C 21,1 C 62 % 80 % 1020,6 hPa 0,0 l/m 0,0 km/h (0 Bft) N 0 0 min 0,000 mm 0,0 UV-I 0 W/m 13,3 C 16,8 C 0,0 km/h (0 Bft) 95,65 %
17.06.2019 02:07 24,6 C 16,8 C 2,8 C 21,1 C 62 % 80 % 1020,6 hPa 0,0 l/m 0,0 km/h (0 Bft) N 0 0 min 0,000 mm 0,0 UV-I 0 W/m 13,3 C 16,8 C 0,0 km/h (0 Bft) 95,65 %
17.06.2019 02:06 24,6 C 16,8 C 2,8 C 21,1 C 62 % 79 % 1020,6 hPa 0,0 l/m 0,0 km/h (0 Bft) N 0 0 min 0,000 mm 0,0 UV-I 0 W/m 13,1 C 16,8 C 0,0 km/h (0 Bft) 86,96 %
17.06.2019 02:05 24,6 C 16,8 C 2,8 C 21,1 C 62 % 79 % 1020,6 hPa 0,0 l/m 0,0 km/h (0 Bft) N 0 0 min 0,000 mm 0,0 UV-I 0 W/m 13,1 C 16,8 C 0,0 km/h (0 Bft) 100,00 %
17.06.2019 02:04 24,6 C 16,9 C 2,8 C 21,1 C 62 % 79 % 1020,6 hPa 0,0 l/m 0,0 km/h (0 Bft) N 0 0 min 0,000 mm 0,0 UV-I 0 W/m 13,2 C 16,9 C 0,0 km/h (0 Bft) 91,30 %
17.06.2019 02:03 24,6 C 16,9 C 2,8 C 21,1 C 63 % 78 % 1020,6 hPa 0,0 l/m 0,0 km/h (0 Bft) N 0 0 min 0,000 mm 0,0 UV-I 0 W/m 13,0 C 16,9 C 0,0 km/h (0 Bft) 95,65 %
17.06.2019 02:02 24,6 C 16,9 C 2,8 C 21,1 C 63 % 78 % 1020,6 hPa 0,0 l/m 0,0 km/h (0 Bft) N 0 0 min 0,000 mm 0,0 UV-I 0 W/m 13,0 C 16,9 C 0,0 km/h (0 Bft) 95,65 %
17.06.2019 02:01 24,6 C 16,9 C 2,8 C 21,1 C 63 % 78 % 1020,6 hPa 0,0 l/m 0,0 km/h (0 Bft) N 0 0 min 0,000 mm 0,0 UV-I 0 W/m 13,0 C 16,9 C 0,0 km/h (0 Bft) 91,30 %
17.06.2019 02:00 24,6 C 16,9 C 2,8 C 21,1 C 62 % 78 % 1020,6 hPa 0,0 l/m 0,0 km/h (0 Bft) N 0 0 min 0,025 mm 0,0 UV-I 0 W/m 13,0 C 16,9 C 0,0 km/h (0 Bft) 95,65 %
17.06.2019 01:59 24,6 C 17,0 C 2,8 C 21,1 C 62 % 78 % 1020,6 hPa 0,0 l/m 0,0 km/h (0 Bft) N 0 0 min 0,000 mm 0,0 UV-I 0 W/m 13,1 C 17,0 C 0,0 km/h (0 Bft) 91,30 %
17.06.2019 01:58 24,6 C 17,0 C 2,8 C 21,1 C 62 % 78 % 1020,6 hPa 0,0 l/m 0,0 km/h (0 Bft) N 0 0 min 0,000 mm 0,0 UV-I 0 W/m 13,1 C 17,0 C 0,0 km/h (0 Bft) 100,00 %
17.06.2019 01:57 24,6 C 17,1 C 2,8 C 21,1 C 62 % 78 % 1020,6 hPa 0,0 l/m 0,0 km/h (0 Bft) N 0 0 min 0,000 mm 0,0 UV-I 0 W/m 13,2 C 17,1 C 0,0 km/h (0 Bft) 91,30 %
17.06.2019 01:56 24,6 C 17,1 C 2,8 C 21,1 C 62 % 78 % 1020,6 hPa 0,0 l/m 0,0 km/h (0 Bft) N 0 0 min 0,000 mm 0,0 UV-I 0 W/m 13,2 C 17,1 C 0,0 km/h (0 Bft) 95,65 %
17.06.2019 01:55 24,6 C 17,1 C 2,8 C 21,1 C 62 % 77 % 1020,6 hPa 0,0 l/m 0,0 km/h (0 Bft) N 0 0 min 0,000 mm 0,0 UV-I 0 W/m 13,0 C 17,1 C 0,0 km/h (0 Bft) 95,65 %
17.06.2019 01:54 24,6 C 17,1 C 2,8 C 21,1 C 62 % 77 % 1020,6 hPa 0,0 l/m 0,0 km/h (0 Bft) N 0 0 min 0,000 mm 0,0 UV-I 0 W/m 13,0 C 17,1 C 0,0 km/h (0 Bft) 91,30 %
17.06.2019 01:53 24,6 C 17,1 C 2,8 C 21,1 C 62 % 76 % 1020,6 hPa 0,0 l/m 0,0 km/h (0 Bft) N 0 0 min 0,000 mm 0,0 UV-I 0 W/m 12,8 C 17,1 C 0,0 km/h (0 Bft) 91,30 %
17.06.2019 01:52 24,6 C 17,2 C 2,8 C 21,1 C 62 % 76 % 1020,6 hPa 0,0 l/m 0,0 km/h (0 Bft) N 0 0 min 0,000 mm 0,0 UV-I 0 W/m 12,9 C 17,2 C 0,0 km/h (0 Bft) 95,65 %
17.06.2019 01:51 24,6 C 17,2 C 2,8 C 21,1 C 62 % 76 % 1020,6 hPa 0,0 l/m 0,0 km/h (0 Bft) N 0 0 min 0,000 mm 0,0 UV-I 0 W/m 12,9 C 17,2 C 0,0 km/h (0 Bft) 95,65 %
17.06.2019 01:50 24,6 C 17,2 C 2,8 C 21,1 C 62 % 77 % 1020,6 hPa 0,0 l/m 0,0 km/h (0 Bft) N 0 0 min 0,000 mm 0,0 UV-I 0 W/m 13,1 C 17,2 C 0,0 km/h (0 Bft) 91,30 %
17.06.2019 01:49 24,6 C 17,2 C 3,3 C 21,1 C 62 % 77 % 1020,6 hPa 0,0 l/m 0,0 km/h (0 Bft) N 0 0 min 0,000 mm 0,0 UV-I 0 W/m 13,1 C 17,2 C 0,0 km/h (0 Bft) 100,00 %
17.06.2019 01:48 24,6 C 17,3 C 2,8 C 21,1 C 62 % 77 % 1020,6 hPa 0,0 l/m 0,0 km/h (0 Bft) N 0 0 min 0,000 mm 0,0 UV-I 0 W/m 13,2 C 17,3 C 0,0 km/h (0 Bft) 86,96 %
17.06.2019 01:47 24,6 C 17,3 C 2,8 C 21,1 C 62 % 77 % 1020,6 hPa 0,0 l/m 0,0 km/h (0 Bft) N 0 0 min 0,000 mm 0,0 UV-I 0 W/m 13,2 C 17,3 C 0,0 km/h (0 Bft) 95,65 %
17.06.2019 01:46 24,6 C 17,3 C 3,3 C 21,1 C 62 % 76 % 1020,6 hPa 0,0 l/m 0,0 km/h (0 Bft) N 0 0 min 0,000 mm 0,0 UV-I 0 W/m 13,0 C 17,3 C 0,0 km/h (0 Bft) 91,30 %
17.06.2019 01:45 24,6 C 17,3 C 2,8 C 21,1 C 62 % 76 % 1020,6 hPa 0,0 l/m 0,0 km/h (0 Bft) N 0 0 min 0,000 mm 0,0 UV-I 0 W/m 13,0 C 17,3 C 0,0 km/h (0 Bft) 95,65 %
17.06.2019 01:44 24,6 C 17,4 C 3,3 C 21,1 C 62 % 76 % 1020,7 hPa 0,0 l/m 0,0 km/h (0 Bft) N 0 0 min 0,000 mm 0,0 UV-I 0 W/m 13,1 C 17,4 C 0,0 km/h (0 Bft) 91,30 %
17.06.2019 01:43 24,6 C 17,4 C 3,3 C 21,1 C 62 % 76 % 1020,7 hPa 0,0 l/m 0,0 km/h (0 Bft) N 0 0 min 0,000 mm 0,0 UV-I 0 W/m 13,1 C 17,4 C 0,0 km/h (0 Bft) 100,00 %
17.06.2019 01:42 24,6 C 17,4 C 3,3 C 21,1 C 62 % 76 % 1020,7 hPa 0,0 l/m 0,0 km/h (0 Bft) N 0 0 min 0,000 mm 0,0 UV-I 0 W/m 13,1 C 17,4 C 0,0 km/h (0 Bft) 91,30 %
17.06.2019 01:41 24,6 C 17,4 C 3,3 C 21,1 C 62 % 76 % 1020,7 hPa 0,0 l/m 0,0 km/h (0 Bft) N 0 0 min 0,000 mm 0,0 UV-I 0 W/m 13,1 C 17,4 C 0,0 km/h (0 Bft) 86,96 %
17.06.2019 01:40 24,6 C 17,4 C 3,3 C 21,1 C 62 % 76 % 1020,7 hPa 0,0 l/m 0,0 km/h (0 Bft) N 0 0 min 0,000 mm 0,0 UV-I 0 W/m 13,1 C 17,4 C 0,0 km/h (0 Bft) 100,00 %
17.06.2019 01:39 24,6 C 17,5 C 3,3 C 21,1 C 62 % 76 % 1020,7 hPa 0,0 l/m 0,0 km/h (0 Bft) N 0 0 min 0,000 mm 0,0 UV-I 0 W/m 13,2 C 17,5 C 0,0 km/h (0 Bft) 86,96 %
17.06.2019 01:38 24,6 C 17,5 C 3,3 C 21,1 C 62 % 76 % 1020,7 hPa 0,0 l/m 0,0 km/h (0 Bft) N 0 0 min 0,000 mm 0,0 UV-I 0 W/m 13,2 C 17,5 C 0,0 km/h (0 Bft) 95,65 %
17.06.2019 01:37 24,6 C 17,6 C 3,3 C 21,1 C 62 % 76 % 1020,7 hPa 0,0 l/m 0,0 km/h (0 Bft) N 0 0 min 0,000 mm 0,0 UV-I 0 W/m 13,3 C 17,6 C 0,0 km/h (0 Bft) 95,65 %
17.06.2019 01:36 24,6 C 17,6 C 3,3 C 21,1 C 62 % 76 % 1020,7 hPa 0,0 l/m 0,0 km/h (0 Bft) N 0 0 min 0,000 mm 0,0 UV-I 0 W/m 13,3 C 17,6 C 0,0 km/h (0 Bft) 95,65 %
17.06.2019 01:35 24,6 C 17,6 C 3,3 C 21,1 C 62 % 76 % 1020,7 hPa 0,0 l/m 0,0 km/h (0 Bft) N 0 0 min 0,000 mm 0,0 UV-I 0 W/m 13,3 C 17,6 C 0,0 km/h (0 Bft) 91,30 %
17.06.2019 01:34 24,6 C 17,6 C 3,3 C 21,1 C 62 % 76 % 1020,7 hPa 0,0 l/m 0,0 km/h (0 Bft) N 0 0 min 0,000 mm 0,0 UV-I 0 W/m 13,3 C 17,6 C 0,0 km/h (0 Bft) 100,00 %
17.06.2019 01:33 24,6 C 17,6 C 3,3 C 21,1 C 62 % 76 % 1020,7 hPa 0,0 l/m 0,0 km/h (0 Bft) N 0 0 min 0,000 mm 0,0 UV-I 0 W/m 13,3 C 17,6 C 0,0 km/h (0 Bft) 86,96 %
17.06.2019 01:32 24,6 C 17,7 C 3,3 C 21,1 C 62 % 75 % 1020,7 hPa 0,0 l/m 0,0 km/h (0 Bft) N 0 0 min 0,000 mm 0,0 UV-I 0 W/m 13,2 C 17,7 C 0,0 km/h (0 Bft) 95,65 %
17.06.2019 01:31 24,6 C 17,7 C 3,3 C 21,1 C 62 % 76 % 1020,7 hPa 0,0 l/m 0,0 km/h (0 Bft) N 0 0 min 0,000 mm 0,0 UV-I 0 W/m 13,4 C 17,7 C 0,0 km/h (0 Bft) 100,00 %
17.06.2019 01:30 24,6 C 17,7 C 3,3 C 21,1 C 62 % 76 % 1020,7 hPa 0,0 l/m 0,0 km/h (0 Bft) N 0 0 min 0,000 mm 0,0 UV-I 0 W/m 13,4 C 17,7 C 0,0 km/h (0 Bft) 95,65 %
17.06.2019 01:29 24,6 C 17,7 C 3,3 C 21,1 C 62 % 76 % 1020,7 hPa 0,0 l/m 0,0 km/h (0 Bft) N 0 0 min 0,000 mm 0,0 UV-I 0 W/m 13,4 C 17,7 C 0,0 km/h (0 Bft) 95,65 %
17.06.2019 01:28 24,6 C 17,8 C 3,3 C 21,1 C 62 % 76 % 1020,7 hPa 0,0 l/m 0,0 km/h (0 Bft) N 0 0 min 0,000 mm 0,0 UV-I 0 W/m 13,5 C 17,8 C 0,0 km/h (0 Bft) 100,00 %
17.06.2019 01:27 24,6 C 17,8 C 3,3 C 21,1 C 62 % 76 % 1020,7 hPa 0,0 l/m 0,0 km/h (0 Bft) N 0 0 min 0,000 mm 0,0 UV-I 0 W/m 13,5 C 17,8 C 0,0 km/h (0 Bft) 95,65 %
17.06.2019 01:26 24,6 C 17,8 C 3,3 C 21,1 C 62 % 76 % 1020,7 hPa 0,0 l/m 0,0 km/h (0 Bft) N 0 0 min 0,000 mm 0,0 UV-I 0 W/m 13,5 C 17,8 C 0,0 km/h (0 Bft) 95,65 %
17.06.2019 01:25 24,6 C 17,8 C 3,3 C 21,1 C 62 % 76 % 1020,7 hPa 0,0 l/m 0,0 km/h (0 Bft) N 0 0 min 0,000 mm 0,0 UV-I 0 W/m 13,5 C 17,8 C 0,0 km/h (0 Bft) 95,65 %
17.06.2019 01:24 24,6 C 17,8 C 3,3 C 21,1 C 62 % 76 % 1020,7 hPa 0,0 l/m 0,0 km/h (0 Bft) N 0 0 min 0,000 mm 0,0 UV-I 0 W/m 13,5 C 17,8 C 0,0 km/h (0 Bft) 95,65 %
17.06.2019 01:23 24,6 C 17,9 C 3,3 C 21,1 C 62 % 76 % 1020,7 hPa 0,0 l/m 0,0 km/h (0 Bft) N 0 0 min 0,000 mm 0,0 UV-I 0 W/m 13,6 C 17,9 C 0,0 km/h (0 Bft) 91,30 %
17.06.2019 01:22 24,6 C 17,9 C 3,3 C 21,1 C 62 % 76 % 1020,7 hPa 0,0 l/m 0,0 km/h (0 Bft) N 0 0 min 0,000 mm 0,0 UV-I 0 W/m 13,6 C 17,9 C 0,0 km/h (0 Bft) 100,00 %
17.06.2019 01:21 24,6 C 17,9 C 3,3 C 21,1 C 62 % 75 % 1020,7 hPa 0,0 l/m 0,0 km/h (0 Bft) N 0 0 min 0,000 mm 0,0 UV-I 0 W/m 13,4 C 17,9 C 0,0 km/h (0 Bft) 95,65 %
17.06.2019 01:20 24,6 C 18,0 C 3,3 C 21,1 C 62 % 75 % 1020,7 hPa 0,0 l/m 0,0 km/h (0 Bft) N 0 0 min 0,000 mm 0,0 UV-I 0 W/m 13,5 C 18,0 C 0,0 km/h (0 Bft) 95,65 %
17.06.2019 01:19 24,6 C 18,0 C 3,3 C 21,1 C 62 % 75 % 1020,7 hPa 0,0 l/m 0,0 km/h (0 Bft) N 0 0 min 0,000 mm 0,0 UV-I 0 W/m 13,5 C 18,0 C 0,0 km/h (0 Bft) 100,00 %
17.06.2019 01:18 24,6 C 18,1 C 3,3 C 21,1 C 62 % 75 % 1020,7 hPa 0,0 l/m 0,0 km/h (0 Bft) N 0 0 min 0,000 mm 0,0 UV-I 0 W/m 13,6 C 18,1 C 0,0 km/h (0 Bft) 95,65 %
17.06.2019 01:17 24,6 C 18,1 C 3,3 C 21,1 C 62 % 75 % 1020,7 hPa 0,0 l/m 0,0 km/h (0 Bft) N 0 0 min 0,000 mm 0,0 UV-I 0 W/m 13,6 C 18,1 C 0,0 km/h (0 Bft) 95,65 %
17.06.2019 01:16 24,6 C 18,1 C 3,3 C 21,1 C 62 % 75 % 1020,7 hPa 0,0 l/m 0,0 km/h (0 Bft) N 0 0 min 0,000 mm 0,0 UV-I 0 W/m 13,6 C 18,1 C 0,0 km/h (0 Bft) 95,65 %
17.06.2019 01:15 24,6 C 18,1 C 3,3 C 21,1 C 62 % 75 % 1020,7 hPa 0,0 l/m 0,0 km/h (0 Bft) N 0 0 min 0,000 mm 0,0 UV-I 0 W/m 13,6 C 18,1 C 0,0 km/h (0 Bft) 95,65 %
17.06.2019 01:14 24,6 C 18,1 C 3,3 C 21,1 C 62 % 75 % 1021,0 hPa 0,0 l/m 0,0 km/h (0 Bft) N 0 0 min 0,000 mm 0,0 UV-I 0 W/m 13,6 C 18,1 C 0,0 km/h (0 Bft) 95,65 %
17.06.2019 01:13 24,4 C 18,2 C 3,3 C 21,1 C 62 % 75 % 1021,0 hPa 0,0 l/m 0,0 km/h (0 Bft) N 0 0 min 0,000 mm 0,0 UV-I 0 W/m 13,7 C 18,2 C 0,0 km/h (0 Bft) 95,65 %
17.06.2019 01:12 24,4 C 18,2 C 3,3 C 21,1 C 62 % 75 % 1021,0 hPa 0,0 l/m 0,0 km/h (0 Bft) N 0 0 min 0,000 mm 0,0 UV-I 0 W/m 13,7 C 18,2 C 0,0 km/h (0 Bft) 100,00 %
17.06.2019 01:11 24,4 C 18,2 C 3,3 C 21,1 C 63 % 75 % 1021,0 hPa 0,0 l/m 0,0 km/h (0 Bft) N 0 0 min 0,000 mm 0,0 UV-I 0 W/m 13,7 C 18,2 C 0,0 km/h (0 Bft) 95,65 %
17.06.2019 01:10 24,4 C 18,3 C 3,3 C 21,1 C 62 % 75 % 1021,0 hPa 0,0 l/m 0,0 km/h (0 Bft) N 0 0 min 0,000 mm 0,0 UV-I 0 W/m 13,8 C 18,3 C 0,0 km/h (0 Bft) 95,65 %
17.06.2019 01:09 24,4 C 18,3 C 3,3 C 21,1 C 62 % 74 % 1021,0 hPa 0,0 l/m 0,0 km/h (0 Bft) N 0 0 min 0,000 mm 0,0 UV-I 0 W/m 13,6 C 18,3 C 0,0 km/h (0 Bft) 100,00 %
17.06.2019 01:08 24,4 C 18,3 C 3,3 C 21,1 C 62 % 74 % 1021,0 hPa 0,0 l/m 0,0 km/h (0 Bft) N 0 0 min 0,000 mm 0,0 UV-I 0 W/m 13,6 C 18,3 C 0,0 km/h (0 Bft) 95,65 %
17.06.2019 01:07 24,4 C 18,3 C 3,3 C 21,1 C 62 % 74 % 1021,0 hPa 0,0 l/m 0,0 km/h (0 Bft) N 0 0 min 0,000 mm 0,0 UV-I 0 W/m 13,6 C 18,3 C 0,0 km/h (0 Bft) 95,65 %
17.06.2019 01:06 24,4 C 18,4 C 3,3 C 21,1 C 62 % 74 % 1021,0 hPa 0,0 l/m 0,0 km/h (0 Bft) N 0 0 min 0,000 mm 0,0 UV-I 0 W/m 13,7 C 18,4 C 0,0 km/h (0 Bft) 91,30 %
17.06.2019 01:05 24,4 C 18,4 C 3,3 C 21,1 C 62 % 74 % 1021,0 hPa 0,0 l/m 0,0 km/h (0 Bft) N 0 0 min 0,000 mm 0,0 UV-I 0 W/m 13,7 C 18,4 C 0,0 km/h (0 Bft) 95,65 %
17.06.2019 01:04 24,4 C 18,4 C 3,9 C 21,1 C 63 % 74 % 1021,0 hPa 0,0 l/m 0,0 km/h (0 Bft) N 0 0 min 0,000 mm 0,0 UV-I 0 W/m 13,7 C 18,4 C 0,0 km/h (0 Bft) 95,65 %
17.06.2019 01:03 24,4 C 18,4 C 3,9 C 21,1 C 62 % 74 % 1021,0 hPa 0,0 l/m 0,0 km/h (0 Bft) N 0 0 min 0,000 mm 0,0 UV-I 0 W/m 13,7 C 18,4 C 0,0 km/h (0 Bft) 100,00 %
17.06.2019 01:02 24,4 C 18,4 C 3,9 C 21,1 C 62 % 73 % 1021,0 hPa 0,0 l/m 0,0 km/h (0 Bft) N 0 0 min 0,000 mm 0,0 UV-I 0 W/m 13,5 C 18,4 C 0,0 km/h (0 Bft) 86,96 %
17.06.2019 01:01 24,4 C 18,5 C 3,9 C 21,1 C 62 % 73 % 1021,0 hPa 0,0 l/m 0,0 km/h (0 Bft) N 0 0 min 0,000 mm 0,0 UV-I 0 W/m 13,6 C 18,5 C 0,0 km/h (0 Bft) 95,65 %
17.06.2019 01:00 24,4 C 18,5 C 3,9 C 21,1 C 62 % 73 % 1021,0 hPa 0,0 l/m 0,0 km/h (0 Bft) N 0 0 min 0,025 mm 0,0 UV-I 0 W/m 13,6 C 18,5 C 0,0 km/h (0 Bft) 100,00 %
17.06.2019 00:59 24,4 C 18,5 C 3,9 C 21,1 C 62 % 73 % 1021,0 hPa 0,0 l/m 0,0 km/h (0 Bft) N 0 0 min 0,000 mm 0,0 UV-I 0 W/m 13,6 C 18,5 C 0,0 km/h (0 Bft) 91,30 %
17.06.2019 00:58 24,4 C 18,5 C 3,9 C 21,1 C 62 % 73 % 1021,0 hPa 0,0 l/m 0,0 km/h (0 Bft) N 0 0 min 0,000 mm 0,0 UV-I 0 W/m 13,6 C 18,5 C 0,0 km/h (0 Bft) 95,65 %
17.06.2019 00:57 24,4 C 18,6 C 3,9 C 21,1 C 62 % 73 % 1021,0 hPa 0,0 l/m 0,0 km/h (0 Bft) N 0 0 min 0,000 mm 0,0 UV-I 0 W/m 13,7 C 18,6 C 0,0 km/h (0 Bft) 100,00 %
17.06.2019 00:56 24,4 C 18,6 C 3,9 C 21,1 C 62 % 73 % 1021,0 hPa 0,0 l/m 0,0 km/h (0 Bft) N 0 0 min 0,000 mm 0,0 UV-I 0 W/m 13,7 C 18,6 C 0,0 km/h (0 Bft) 91,30 %
17.06.2019 00:55 24,4 C 18,6 C 3,9 C 21,1 C 63 % 73 % 1021,0 hPa 0,0 l/m 0,0 km/h (0 Bft) N 0 0 min 0,000 mm 0,0 UV-I 0 W/m 13,7 C 18,6 C 0,0 km/h (0 Bft) 95,65 %
17.06.2019 00:54 24,4 C 18,6 C 3,9 C 21,1 C 62 % 73 % 1021,0 hPa 0,0 l/m 0,0 km/h (0 Bft) N 0 0 min 0,000 mm 0,0 UV-I 0 W/m 13,7 C 18,6 C 0,0 km/h (0 Bft) 95,65 %
17.06.2019 00:53 24,4 C 18,6 C 3,9 C 21,1 C 62 % 73 % 1021,0 hPa 0,0 l/m 0,0 km/h (0 Bft) N 0 0 min 0,000 mm 0,0 UV-I 0 W/m 13,7 C 18,6 C 0,0 km/h (0 Bft) 95,65 %
17.06.2019 00:52 24,4 C 18,6 C 4,4 C 21,1 C 62 % 73 % 1021,0 hPa 0,0 l/m 0,0 km/h (0 Bft) N 0 0 min 0,000 mm 0,0 UV-I 0 W/m 13,7 C 18,6 C 0,0 km/h (0 Bft) 95,65 %
17.06.2019 00:51 24,4 C 18,6 C 4,4 C 21,1 C 62 % 73 % 1021,0 hPa 0,0 l/m 0,0 km/h (0 Bft) N 0 0 min 0,000 mm 0,0 UV-I 0 W/m 13,7 C 18,6 C 0,0 km/h (0 Bft) 95,65 %
17.06.2019 00:50 24,4 C 18,6 C 4,4 C 21,1 C 62 % 73 % 1021,0 hPa 0,0 l/m 0,0 km/h (0 Bft) N 0 0 min 0,000 mm 0,0 UV-I 0 W/m 13,7 C 18,6 C 0,0 km/h (0 Bft) 95,65 %
17.06.2019 00:49 24,4 C 18,6 C 4,4 C 21,1 C 62 % 73 % 1021,0 hPa 0,0 l/m 0,0 km/h (0 Bft) N 0 0 min 0,000 mm 0,0 UV-I 0 W/m 13,7 C 18,6 C 0,0 km/h (0 Bft) 95,65 %
17.06.2019 00:48 24,4 C 18,7 C 4,4 C 21,1 C 62 % 73 % 1021,0 hPa 0,0 l/m 0,0 km/h (0 Bft) N 0 0 min 0,000 mm 0,0 UV-I 0 W/m 13,8 C 18,7 C 0,0 km/h (0 Bft) 100,00 %
17.06.2019 00:47 24,4 C 18,7 C 4,4 C 21,1 C 62 % 73 % 1021,0 hPa 0,0 l/m 0,0 km/h (0 Bft) N 0 0 min 0,000 mm 0,0 UV-I 0 W/m 13,8 C 18,7 C 0,0 km/h (0 Bft) 91,30 %
17.06.2019 00:46 24,4 C 18,7 C 4,4 C 21,1 C 62 % 73 % 1021,0 hPa 0,0 l/m 0,0 km/h (0 Bft) N 0 0 min 0,000 mm 0,0 UV-I 0 W/m 13,8 C 18,7 C 0,0 km/h (0 Bft) 95,65 %
17.06.2019 00:45 24,4 C 18,7 C 4,4 C 21,1 C 62 % 73 % 1021,0 hPa 0,0 l/m 0,0 km/h (0 Bft) N 0 0 min 0,000 mm 0,0 UV-I 0 W/m 13,8 C 18,7 C 0,0 km/h (0 Bft) 100,00 %
17.06.2019 00:44 24,4 C 18,7 C 4,4 C 21,1 C 62 % 73 % 1021,2 hPa 0,0 l/m 0,0 km/h (0 Bft) N 0 0 min 0,000 mm 0,0 UV-I 0 W/m 13,8 C 18,7 C 0,0 km/h (0 Bft) 95,65 %
17.06.2019 00:43 24,4 C 18,7 C 4,4 C 21,1 C 62 % 73 % 1021,2 hPa 0,0 l/m 0,0 km/h (0 Bft) N 0 0 min 0,000 mm 0,0 UV-I 0 W/m 13,8 C 18,7 C 0,0 km/h (0 Bft) 95,65 %
17.06.2019 00:42 24,4 C 18,7 C 5,0 C 21,1 C 62 % 73 % 1021,2 hPa 0,0 l/m 0,0 km/h (0 Bft) N 0 0 min 0,000 mm 0,0 UV-I 0 W/m 13,8 C 18,7 C 0,0 km/h (0 Bft) 100,00 %
17.06.2019 00:41 24,4 C 18,7 C 5,0 C 21,1 C 62 % 73 % 1021,2 hPa 0,0 l/m 0,0 km/h (0 Bft) N 0 0 min 0,000 mm 0,0 UV-I 0 W/m 13,8 C 18,7 C 0,0 km/h (0 Bft) 95,65 %
17.06.2019 00:40 24,4 C 18,7 C 5,0 C 21,1 C 62 % 73 % 1021,2 hPa 0,0 l/m 0,0 km/h (0 Bft) N 0 0 min 0,000 mm 0,0 UV-I 0 W/m 13,8 C 18,7 C 0,0 km/h (0 Bft) 91,30 %
17.06.2019 00:39 24,4 C 18,7 C 5,0 C 21,1 C 62 % 73 % 1021,2 hPa 0,0 l/m 0,0 km/h (0 Bft) N 0 0 min 0,000 mm 0,0 UV-I 0 W/m 13,8 C 18,7 C 0,0 km/h (0 Bft) 95,65 %
17.06.2019 00:38 24,4 C 18,7 C 5,0 C 21,1 C 62 % 73 % 1021,2 hPa 0,0 l/m 0,0 km/h (0 Bft) W 270 0 min 0,000 mm 0,0 UV-I 0 W/m 13,8 C 18,7 C 1,6 km/h (1 Bft) 86,96 %
17.06.2019 00:37 24,4 C 18,7 C 5,0 C 21,1 C 62 % 73 % 1021,2 hPa 0,0 l/m 3,2 km/h (1 Bft) W 270 0 min 0,000 mm 0,0 UV-I 0 W/m 13,8 C 18,7 C 6,4 km/h (2 Bft) 91,30 %
17.06.2019 00:36 24,4 C 18,7 C 5,0 C 21,1 C 62 % 73 % 1021,2 hPa 0,0 l/m 1,6 km/h (1 Bft) W 270 0 min 0,000 mm 0,0 UV-I 0 W/m 13,8 C 18,7 C 4,8 km/h (1 Bft) 100,00 %
17.06.2019 00:35 24,4 C 18,7 C 5,0 C 21,1 C 62 % 72 % 1021,2 hPa 0,0 l/m 0,0 km/h (0 Bft) N 0 0 min 0,000 mm 0,0 UV-I 0 W/m 13,5 C 18,7 C 0,0 km/h (0 Bft) 95,65 %
17.06.2019 00:34 24,4 C 18,7 C 5,0 C 21,1 C 62 % 72 % 1021,2 hPa 0,0 l/m 0,0 km/h (0 Bft) W 270 0 min 0,000 mm 0,0 UV-I 0 W/m 13,5 C 18,7 C 1,6 km/h (1 Bft) 95,65 %
17.06.2019 00:33 24,4 C 18,7 C 5,0 C 21,1 C 62 % 72 % 1021,2 hPa 0,0 l/m 0,0 km/h (0 Bft) W 270 0 min 0,000 mm 0,0 UV-I 0 W/m 13,5 C 18,7 C 1,6 km/h (1 Bft) 100,00 %
17.06.2019 00:32 24,4 C 18,7 C 5,0 C 21,1 C 62 % 72 % 1021,2 hPa 0,0 l/m 0,0 km/h (0 Bft) W 270 0 min 0,000 mm 0,0 UV-I 0 W/m 13,5 C 18,7 C 3,2 km/h (1 Bft) 86,96 %
17.06.2019 00:31 24,4 C 18,8 C 5,0 C 21,1 C 62 % 72 % 1021,2 hPa 0,0 l/m 0,0 km/h (0 Bft) W 270 0 min 0,000 mm 0,0 UV-I 0 W/m 13,6 C 18,8 C 1,6 km/h (1 Bft) 95,65 %
17.06.2019 00:30 24,4 C 18,8 C 5,0 C 21,1 C 62 % 72 % 1021,2 hPa 0,0 l/m 1,6 km/h (1 Bft) W 270 0 min 0,000 mm 0,0 UV-I 0 W/m 13,6 C 18,8 C 3,2 km/h (1 Bft) 95,65 %
17.06.2019 00:29 24,4 C 18,8 C 5,0 C 21,1 C 62 % 72 % 1021,4 hPa 0,0 l/m 1,6 km/h (1 Bft) W 270 0 min 0,000 mm 0,0 UV-I 0 W/m 13,6 C 18,8 C 3,2 km/h (1 Bft) 95,65 %
17.06.2019 00:28 24,4 C 18,8 C 5,0 C 21,1 C 62 % 72 % 1021,4 hPa 0,0 l/m 1,6 km/h (1 Bft) W 270 0 min 0,000 mm 0,0 UV-I 0 W/m 13,6 C 18,8 C 4,8 km/h (1 Bft) 95,65 %
17.06.2019 00:27 24,4 C 18,8 C 5,0 C 21,1 C 62 % 72 % 1021,4 hPa 0,0 l/m 0,0 km/h (0 Bft) W 270 0 min 0,000 mm 0,0 UV-I 0 W/m 13,6 C 18,8 C 3,2 km/h (1 Bft) 100,00 %
17.06.2019 00:26 24,4 C 18,8 C 5,0 C 21,1 C 62 % 72 % 1021,4 hPa 0,0 l/m 0,0 km/h (0 Bft) N 0 0 min 0,000 mm 0,0 UV-I 0 W/m 13,6 C 18,8 C 0,0 km/h (0 Bft) 91,30 %
17.06.2019 00:25 24,4 C 18,8 C 5,0 C 21,1 C 62 % 72 % 1021,4 hPa 0,0 l/m 0,0 km/h (0 Bft) W 270 0 min 0,000 mm 0,0 UV-I 0 W/m 13,6 C 18,8 C 1,6 km/h (1 Bft) 95,65 %
17.06.2019 00:24 24,4 C 18,8 C 5,0 C 21,1 C 62 % 72 % 1021,4 hPa 0,0 l/m 0,0 km/h (0 Bft) N 0 0 min 0,000 mm 0,0 UV-I 0 W/m 13,6 C 18,8 C 0,0 km/h (0 Bft) 91,30 %
17.06.2019 00:23 24,4 C 18,8 C 5,0 C 21,1 C 62 % 72 % 1021,4 hPa 0,0 l/m 0,0 km/h (0 Bft) W 270 0 min 0,000 mm 0,0 UV-I 0 W/m 13,6 C 18,8 C 1,6 km/h (1 Bft) 95,65 %
17.06.2019 00:22 24,4 C 18,8 C 5,0 C 21,1 C 62 % 72 % 1021,4 hPa 0,0 l/m 0,0 km/h (0 Bft) W 270 0 min 0,000 mm 0,0 UV-I 0 W/m 13,6 C 18,8 C 1,6 km/h (1 Bft) 95,65 %
17.06.2019 00:21 24,4 C 18,8 C 5,0 C 21,1 C 62 % 72 % 1021,4 hPa 0,0 l/m 1,6 km/h (1 Bft) W 270 0 min 0,000 mm 0,0 UV-I 0 W/m 13,6 C 18,8 C 4,8 km/h (1 Bft) 86,96 %
17.06.2019 00:20 24,4 C 18,8 C 5,0 C 21,1 C 62 % 72 % 1021,4 hPa 0,0 l/m 0,0 km/h (0 Bft) W 270 0 min 0,000 mm 0,0 UV-I 0 W/m 13,6 C 18,8 C 1,6 km/h (1 Bft) 100,00 %
17.06.2019 00:19 24,4 C 18,8 C 5,0 C 21,1 C 62 % 72 % 1021,4 hPa 0,0 l/m 1,6 km/h (1 Bft) W 270 0 min 0,000 mm 0,0 UV-I 0 W/m 13,6 C 18,8 C 3,2 km/h (1 Bft) 91,30 %
17.06.2019 00:18 24,4 C 18,8 C 5,0 C 21,1 C 62 % 72 % 1021,4 hPa 0,0 l/m 1,6 km/h (1 Bft) W 270 0 min 0,000 mm 0,0 UV-I 0 W/m 13,6 C 18,8 C 6,4 km/h (2 Bft) 95,65 %
17.06.2019 00:17 24,4 C 18,8 C 5,0 C 21,1 C 62 % 72 % 1021,4 hPa 0,0 l/m 4,8 km/h (1 Bft) W 270 0 min 0,000 mm 0,0 UV-I 0 W/m 13,6 C 18,8 C 6,4 km/h (2 Bft) 95,65 %
17.06.2019 00:16 24,4 C 18,8 C 5,0 C 21,1 C 62 % 72 % 1021,4 hPa 0,0 l/m 3,2 km/h (1 Bft) W 270 0 min 0,000 mm 0,0 UV-I 0 W/m 13,6 C 18,8 C 6,4 km/h (2 Bft) 95,65 %
17.06.2019 00:15 24,4 C 18,8 C 5,0 C 21,1 C 62 % 72 % 1021,4 hPa 0,0 l/m 1,6 km/h (1 Bft) W 270 0 min 0,000 mm 0,0 UV-I 0 W/m 13,6 C 18,8 C 3,2 km/h (1 Bft) 91,30 %
17.06.2019 00:14 24,4 C 18,8 C 5,0 C 21,1 C 62 % 72 % 1021,5 hPa 0,0 l/m 1,6 km/h (1 Bft) W 270 0 min 0,000 mm 0,0 UV-I 0 W/m 13,6 C 18,8 C 3,2 km/h (1 Bft) 100,00 %
17.06.2019 00:13 24,4 C 18,8 C 5,0 C 21,1 C 62 % 72 % 1021,5 hPa 0,0 l/m 0,0 km/h (0 Bft) W 270 0 min 0,000 mm 0,0 UV-I 0 W/m 13,6 C 18,8 C 3,2 km/h (1 Bft) 91,30 %
17.06.2019 00:12 24,4 C 18,8 C 5,0 C 21,1 C 62 % 72 % 1021,5 hPa 0,0 l/m 1,6 km/h (1 Bft) W 270 0 min 0,000 mm 0,0 UV-I 0 W/m 13,6 C 18,8 C 4,8 km/h (1 Bft) 91,30 %
17.06.2019 00:11 24,4 C 18,8 C 5,0 C 21,1 C 62 % 72 % 1021,5 hPa 0,0 l/m 3,2 km/h (1 Bft) W 270 0 min 0,000 mm 0,0 UV-I 0 W/m 13,6 C 18,8 C 4,8 km/h (1 Bft) 100,00 %
17.06.2019 00:10 24,4 C 18,9 C 5,0 C 21,1 C 63 % 72 % 1021,5 hPa 0,0 l/m 1,6 km/h (1 Bft) W 270 0 min 0,000 mm 0,0 UV-I 0 W/m 13,7 C 18,9 C 4,8 km/h (1 Bft) 91,30 %
17.06.2019 00:09 24,4 C 18,9 C 5,0 C 21,1 C 62 % 72 % 1021,5 hPa 0,0 l/m 1,6 km/h (1 Bft) W 270 0 min 0,000 mm 0,0 UV-I 0 W/m 13,7 C 18,9 C 4,8 km/h (1 Bft) 95,65 %
17.06.2019 00:08 24,4 C 18,9 C 5,0 C 21,1 C 62 % 72 % 1021,5 hPa 0,0 l/m 1,6 km/h (1 Bft) W 270 0 min 0,000 mm 0,0 UV-I 0 W/m 13,7 C 18,9 C 4,8 km/h (1 Bft) 95,65 %
17.06.2019 00:07 24,4 C 18,9 C 5,0 C 21,1 C 62 % 72 % 1021,5 hPa 0,0 l/m 1,6 km/h (1 Bft) W 270 0 min 0,000 mm 0,0 UV-I 0 W/m 13,7 C 18,9 C 3,2 km/h (1 Bft) 95,65 %
17.06.2019 00:06 24,4 C 18,9 C 5,0 C 21,1 C 62 % 72 % 1021,5 hPa 0,0 l/m 1,6 km/h (1 Bft) W 270 0 min 0,000 mm 0,0 UV-I 0 W/m 13,7 C 18,9 C 4,8 km/h (1 Bft) 91,30 %
17.06.2019 00:05 24,6 C 18,9 C 5,0 C 21,1 C 62 % 72 % 1021,5 hPa 0,0 l/m 3,2 km/h (1 Bft) W 270 0 min 0,000 mm 0,0 UV-I 0 W/m 13,7 C 18,9 C 4,8 km/h (1 Bft) 100,00 %
17.06.2019 00:04 24,6 C 18,9 C 5,0 C 21,1 C 62 % 72 % 1021,5 hPa 0,0 l/m 1,6 km/h (1 Bft) W 270 0 min 0,000 mm 0,0 UV-I 0 W/m 13,7 C 18,9 C 4,8 km/h (1 Bft) 91,30 %
17.06.2019 00:03 24,4 C 18,9 C 5,0 C 21,1 C 62 % 72 % 1021,5 hPa 0,0 l/m 0,0 km/h (0 Bft) N 0 0 min 0,000 mm 0,0 UV-I 0 W/m 13,7 C 18,9 C 0,0 km/h (0 Bft) 43,48 %
17.06.2019 00:02 24,4 C 18,9 C 5,0 C 21,1 C 62 % 72 % 1021,5 hPa 0,0 l/m 0,0 km/h (0 Bft) N 0 0 min 0,000 mm 0,0 UV-I 0 W/m 13,7 C 18,9 C 0,0 km/h (0 Bft) 0,00 %
17.06.2019 00:01 24,4 C 18,9 C 5,0 C 21,1 C 62 % 72 % 1021,5 hPa 0,0 l/m 0,0 km/h (0 Bft) N 0 0 min 0,025 mm 0,0 UV-I 0 W/m 13,7 C 18,9 C 0,0 km/h (0 Bft) 8,70 %
17.06.2019 00:00 24,4 C 18,9 C 5,0 C 21,1 C 62 % 72 % 1021,5 hPa 0,0 l/m 0,0 km/h (0 Bft) W 270 0 min 0,000 mm 0,0 UV-I 0 W/m 13,7 C 18,9 C 1,6 km/h (1 Bft) 86,96 %
_ Min-Zeit 06:21 04:23 03:04 05:05 05:33 13:22 17:45 - 00:00 - - - - - - 04:23 04:23 00:01 00:02
Minimum _ 23,9 C 14,9 C 2,2 C 20,0 C 61 % 45 % 1016,8 hPa - 0,0 km/h (0 Bft) - - - - - - 12,6 C 14,9 C 0,0 km/h (0 Bft) 0,00 %
_ Max-Zeit 17:33 14:49 13:37 16:34 09:35 05:34 00:00 00:00 15:18 - - 08:02 13:00 13:25 13:36 08:44 13:39 14:48 00:05
Maximum _ 24,7 C 27,2 C 18,3 C 22,2 C 64 % 89 % 1021,5 hPa 0,0 l/m 20,9 km/h
O (4 Bft)
- - 1 min 0,610 mm 8,0 UV-I 995 W/m 15,4 C 26,9 C 29,0 km/h
O (5 Bft)
100,00 %
Durchschnitt _ 24,4 C 21,1 C 9,2 C 20,7 C 63 % 65 % 1019,8 hPa #0,0 l/m 4,2 km/h (1 Bft) O-NO - #9:46 h #4,519 mm 6,0 UV-I 453 W/m 13,8 C 20,9 C 7,7 km/h (2 Bft) 94,25 %